<?xml version="1.0" encoding="UTF-8" standalone="no" ?>
<gpx xmlns="http://www.topografix.com/GPX/1/1" xmlns:xsi="http://www.w3.org/2001/XMLSchema-instance" xsi:schemaLocation="http://www.topografix.com/GPX/1/1 http://www.topografix.com/GPX/1/1/gpx.xsd" version="1.1" creator="VisuGPX - https://www.visugpx.com">
  <metadata>
    <name>vtt Chamaret/JL</name>
  </metadata>
  <trk>
    <name><![CDATA[vtt Chamaret/JL]]></name>
    <trkseg>
      <trkpt lat="44.35628" lon="4.78418">
        <ele>117.799805</ele>
        <time>2022-04-14T09:06:05+02:00</time>
      </trkpt>
      <trkpt lat="44.35623" lon="4.7841">
        <ele>119.299805</ele>
        <time>2022-04-14T09:06:10+02:00</time>
      </trkpt>
      <trkpt lat="44.35619" lon="4.78411">
        <ele>119.299805</ele>
        <time>2022-04-14T09:06:15+02:00</time>
      </trkpt>
      <trkpt lat="44.35624" lon="4.78421">
        <ele>121.5</ele>
        <time>2022-04-14T09:06:20+02:00</time>
      </trkpt>
      <trkpt lat="44.35629" lon="4.78432">
        <ele>120</ele>
        <time>2022-04-14T09:06:25+02:00</time>
      </trkpt>
      <trkpt lat="44.35635" lon="4.78443">
        <ele>122.299805</ele>
        <time>2022-04-14T09:06:30+02:00</time>
      </trkpt>
      <trkpt lat="44.35641" lon="4.78456">
        <ele>123.100586</ele>
        <time>2022-04-14T09:06:35+02:00</time>
      </trkpt>
      <trkpt lat="44.35646" lon="4.7847">
        <ele>123.100586</ele>
        <time>2022-04-14T09:06:40+02:00</time>
      </trkpt>
      <trkpt lat="44.35651" lon="4.78485">
        <ele>123.299805</ele>
        <time>2022-04-14T09:06:45+02:00</time>
      </trkpt>
      <trkpt lat="44.35656" lon="4.78499">
        <ele>124.90039</ele>
        <time>2022-04-14T09:06:50+02:00</time>
      </trkpt>
      <trkpt lat="44.35662" lon="4.78514">
        <ele>126.200195</ele>
        <time>2022-04-14T09:06:55+02:00</time>
      </trkpt>
      <trkpt lat="44.35669" lon="4.78531">
        <ele>126.200195</ele>
        <time>2022-04-14T09:07:00+02:00</time>
      </trkpt>
      <trkpt lat="44.35672" lon="4.78549">
        <ele>127.5</ele>
        <time>2022-04-14T09:07:05+02:00</time>
      </trkpt>
      <trkpt lat="44.35676" lon="4.7857">
        <ele>127.200195</ele>
        <time>2022-04-14T09:07:10+02:00</time>
      </trkpt>
      <trkpt lat="44.35679" lon="4.78592">
        <ele>128.90039</ele>
        <time>2022-04-14T09:07:15+02:00</time>
      </trkpt>
      <trkpt lat="44.35681" lon="4.78619">
        <ele>129.7002</ele>
        <time>2022-04-14T09:07:20+02:00</time>
      </trkpt>
      <trkpt lat="44.35681" lon="4.78645">
        <ele>130</ele>
        <time>2022-04-14T09:07:25+02:00</time>
      </trkpt>
      <trkpt lat="44.35683" lon="4.78673">
        <ele>130</ele>
        <time>2022-04-14T09:07:30+02:00</time>
      </trkpt>
      <trkpt lat="44.35684" lon="4.78698">
        <ele>129.60059</ele>
        <time>2022-04-14T09:07:35+02:00</time>
      </trkpt>
      <trkpt lat="44.35686" lon="4.78722">
        <ele>129.2998</ele>
        <time>2022-04-14T09:07:40+02:00</time>
      </trkpt>
      <trkpt lat="44.35687" lon="4.78743">
        <ele>128.90039</ele>
        <time>2022-04-14T09:07:45+02:00</time>
      </trkpt>
      <trkpt lat="44.3569" lon="4.78764">
        <ele>128.10059</ele>
        <time>2022-04-14T09:07:50+02:00</time>
      </trkpt>
      <trkpt lat="44.35693" lon="4.78787">
        <ele>127.90039</ele>
        <time>2022-04-14T09:07:55+02:00</time>
      </trkpt>
      <trkpt lat="44.35695" lon="4.78813">
        <ele>127.799805</ele>
        <time>2022-04-14T09:08:00+02:00</time>
      </trkpt>
      <trkpt lat="44.35695" lon="4.78841">
        <ele>127.40039</ele>
        <time>2022-04-14T09:08:05+02:00</time>
      </trkpt>
      <trkpt lat="44.35695" lon="4.78872">
        <ele>126.90039</ele>
        <time>2022-04-14T09:08:10+02:00</time>
      </trkpt>
      <trkpt lat="44.35694" lon="4.78911">
        <ele>125.700195</ele>
        <time>2022-04-14T09:08:15+02:00</time>
      </trkpt>
      <trkpt lat="44.35696" lon="4.78968">
        <ele>122.700195</ele>
        <time>2022-04-14T09:08:20+02:00</time>
      </trkpt>
      <trkpt lat="44.357" lon="4.79024">
        <ele>120.200195</ele>
        <time>2022-04-14T09:08:25+02:00</time>
      </trkpt>
      <trkpt lat="44.35703" lon="4.79068">
        <ele>119.600586</ele>
        <time>2022-04-14T09:08:30+02:00</time>
      </trkpt>
      <trkpt lat="44.35701" lon="4.79103">
        <ele>119.600586</ele>
        <time>2022-04-14T09:08:35+02:00</time>
      </trkpt>
      <trkpt lat="44.35694" lon="4.79131">
        <ele>119.600586</ele>
        <time>2022-04-14T09:08:40+02:00</time>
      </trkpt>
      <trkpt lat="44.35686" lon="4.79158">
        <ele>119.700195</ele>
        <time>2022-04-14T09:08:45+02:00</time>
      </trkpt>
      <trkpt lat="44.35669" lon="4.79169">
        <ele>120.100586</ele>
        <time>2022-04-14T09:08:50+02:00</time>
      </trkpt>
      <trkpt lat="44.35644" lon="4.79148">
        <ele>119.40039</ele>
        <time>2022-04-14T09:08:55+02:00</time>
      </trkpt>
      <trkpt lat="44.35616" lon="4.79127">
        <ele>118.799805</ele>
        <time>2022-04-14T09:09:00+02:00</time>
      </trkpt>
      <trkpt lat="44.35588" lon="4.79105">
        <ele>117.700195</ele>
        <time>2022-04-14T09:09:05+02:00</time>
      </trkpt>
      <trkpt lat="44.35559" lon="4.79085">
        <ele>117.299805</ele>
        <time>2022-04-14T09:09:10+02:00</time>
      </trkpt>
      <trkpt lat="44.35537" lon="4.79074">
        <ele>116.799805</ele>
        <time>2022-04-14T09:09:15+02:00</time>
      </trkpt>
      <trkpt lat="44.35522" lon="4.79091">
        <ele>116.90039</ele>
        <time>2022-04-14T09:09:20+02:00</time>
      </trkpt>
      <trkpt lat="44.355" lon="4.79093">
        <ele>116.299805</ele>
        <time>2022-04-14T09:09:25+02:00</time>
      </trkpt>
      <trkpt lat="44.35477" lon="4.79098">
        <ele>115.700195</ele>
        <time>2022-04-14T09:09:30+02:00</time>
      </trkpt>
      <trkpt lat="44.35455" lon="4.79106">
        <ele>115.299805</ele>
        <time>2022-04-14T09:09:35+02:00</time>
      </trkpt>
      <trkpt lat="44.35437" lon="4.79114">
        <ele>114.90039</ele>
        <time>2022-04-14T09:09:40+02:00</time>
      </trkpt>
      <trkpt lat="44.35418" lon="4.79128">
        <ele>115.200195</ele>
        <time>2022-04-14T09:09:45+02:00</time>
      </trkpt>
      <trkpt lat="44.35397" lon="4.79142">
        <ele>115.5</ele>
        <time>2022-04-14T09:09:50+02:00</time>
      </trkpt>
      <trkpt lat="44.35376" lon="4.79154">
        <ele>115.600586</ele>
        <time>2022-04-14T09:09:55+02:00</time>
      </trkpt>
      <trkpt lat="44.35352" lon="4.79156">
        <ele>115.700195</ele>
        <time>2022-04-14T09:10:00+02:00</time>
      </trkpt>
      <trkpt lat="44.35324" lon="4.79157">
        <ele>115.200195</ele>
        <time>2022-04-14T09:10:05+02:00</time>
      </trkpt>
      <trkpt lat="44.35295" lon="4.79159">
        <ele>114.100586</ele>
        <time>2022-04-14T09:10:10+02:00</time>
      </trkpt>
      <trkpt lat="44.35267" lon="4.79164">
        <ele>112.5</ele>
        <time>2022-04-14T09:10:15+02:00</time>
      </trkpt>
      <trkpt lat="44.3524" lon="4.79171">
        <ele>112.100586</ele>
        <time>2022-04-14T09:10:20+02:00</time>
      </trkpt>
      <trkpt lat="44.35214" lon="4.7918">
        <ele>112.299805</ele>
        <time>2022-04-14T09:10:25+02:00</time>
      </trkpt>
      <trkpt lat="44.3519" lon="4.79187">
        <ele>112.299805</ele>
        <time>2022-04-14T09:10:30+02:00</time>
      </trkpt>
      <trkpt lat="44.35165" lon="4.79191">
        <ele>112.299805</ele>
        <time>2022-04-14T09:10:35+02:00</time>
      </trkpt>
      <trkpt lat="44.35136" lon="4.79189">
        <ele>112.200195</ele>
        <time>2022-04-14T09:10:40+02:00</time>
      </trkpt>
      <trkpt lat="44.35109" lon="4.79189">
        <ele>111.600586</ele>
        <time>2022-04-14T09:10:45+02:00</time>
      </trkpt>
      <trkpt lat="44.35082" lon="4.79188">
        <ele>111.100586</ele>
        <time>2022-04-14T09:10:50+02:00</time>
      </trkpt>
      <trkpt lat="44.35057" lon="4.79188">
        <ele>110.40039</ele>
        <time>2022-04-14T09:10:55+02:00</time>
      </trkpt>
      <trkpt lat="44.35032" lon="4.79188">
        <ele>109.700195</ele>
        <time>2022-04-14T09:11:00+02:00</time>
      </trkpt>
      <trkpt lat="44.35007" lon="4.79187">
        <ele>109.100586</ele>
        <time>2022-04-14T09:11:05+02:00</time>
      </trkpt>
      <trkpt lat="44.34982" lon="4.79186">
        <ele>108.700195</ele>
        <time>2022-04-14T09:11:10+02:00</time>
      </trkpt>
      <trkpt lat="44.34958" lon="4.79179">
        <ele>108.5</ele>
        <time>2022-04-14T09:11:15+02:00</time>
      </trkpt>
      <trkpt lat="44.34932" lon="4.79172">
        <ele>107.90039</ele>
        <time>2022-04-14T09:11:20+02:00</time>
      </trkpt>
      <trkpt lat="44.34904" lon="4.79165">
        <ele>107.90039</ele>
        <time>2022-04-14T09:11:25+02:00</time>
      </trkpt>
      <trkpt lat="44.34876" lon="4.79154">
        <ele>107.200195</ele>
        <time>2022-04-14T09:11:30+02:00</time>
      </trkpt>
      <trkpt lat="44.34848" lon="4.7914">
        <ele>106.90039</ele>
        <time>2022-04-14T09:11:35+02:00</time>
      </trkpt>
      <trkpt lat="44.34821" lon="4.79124">
        <ele>106.700195</ele>
        <time>2022-04-14T09:11:40+02:00</time>
      </trkpt>
      <trkpt lat="44.34795" lon="4.79105">
        <ele>106.700195</ele>
        <time>2022-04-14T09:11:45+02:00</time>
      </trkpt>
      <trkpt lat="44.3477" lon="4.79084">
        <ele>106.5</ele>
        <time>2022-04-14T09:11:50+02:00</time>
      </trkpt>
      <trkpt lat="44.34747" lon="4.79061">
        <ele>106.299805</ele>
        <time>2022-04-14T09:11:55+02:00</time>
      </trkpt>
      <trkpt lat="44.34725" lon="4.79035">
        <ele>105.299805</ele>
        <time>2022-04-14T09:12:00+02:00</time>
      </trkpt>
      <trkpt lat="44.34701" lon="4.79013">
        <ele>104.600586</ele>
        <time>2022-04-14T09:12:05+02:00</time>
      </trkpt>
      <trkpt lat="44.34674" lon="4.78995">
        <ele>103.90039</ele>
        <time>2022-04-14T09:12:10+02:00</time>
      </trkpt>
      <trkpt lat="44.34647" lon="4.78978">
        <ele>103</ele>
        <time>2022-04-14T09:12:15+02:00</time>
      </trkpt>
      <trkpt lat="44.3462" lon="4.7896">
        <ele>101.700195</ele>
        <time>2022-04-14T09:12:20+02:00</time>
      </trkpt>
      <trkpt lat="44.34591" lon="4.78948">
        <ele>100.200195</ele>
        <time>2022-04-14T09:12:25+02:00</time>
      </trkpt>
      <trkpt lat="44.34563" lon="4.78938">
        <ele>99.799805</ele>
        <time>2022-04-14T09:12:30+02:00</time>
      </trkpt>
      <trkpt lat="44.34535" lon="4.78928">
        <ele>98.799805</ele>
        <time>2022-04-14T09:12:35+02:00</time>
      </trkpt>
      <trkpt lat="44.34508" lon="4.78919">
        <ele>98.299805</ele>
        <time>2022-04-14T09:12:40+02:00</time>
      </trkpt>
      <trkpt lat="44.34481" lon="4.78909">
        <ele>97.700195</ele>
        <time>2022-04-14T09:12:45+02:00</time>
      </trkpt>
      <trkpt lat="44.34455" lon="4.789">
        <ele>97.5</ele>
        <time>2022-04-14T09:12:50+02:00</time>
      </trkpt>
      <trkpt lat="44.34429" lon="4.78896">
        <ele>98.200195</ele>
        <time>2022-04-14T09:12:55+02:00</time>
      </trkpt>
      <trkpt lat="44.34403" lon="4.78898">
        <ele>99.299805</ele>
        <time>2022-04-14T09:13:00+02:00</time>
      </trkpt>
      <trkpt lat="44.34374" lon="4.78904">
        <ele>101.100586</ele>
        <time>2022-04-14T09:13:05+02:00</time>
      </trkpt>
      <trkpt lat="44.34348" lon="4.78916">
        <ele>101.90039</ele>
        <time>2022-04-14T09:13:10+02:00</time>
      </trkpt>
      <trkpt lat="44.34323" lon="4.7893">
        <ele>102.299805</ele>
        <time>2022-04-14T09:13:15+02:00</time>
      </trkpt>
      <trkpt lat="44.34299" lon="4.78941">
        <ele>102.100586</ele>
        <time>2022-04-14T09:13:20+02:00</time>
      </trkpt>
      <trkpt lat="44.34276" lon="4.78952">
        <ele>101.5</ele>
        <time>2022-04-14T09:13:25+02:00</time>
      </trkpt>
      <trkpt lat="44.34257" lon="4.78964">
        <ele>101.799805</ele>
        <time>2022-04-14T09:13:30+02:00</time>
      </trkpt>
      <trkpt lat="44.34241" lon="4.78977">
        <ele>102.40039</ele>
        <time>2022-04-14T09:13:35+02:00</time>
      </trkpt>
      <trkpt lat="44.34227" lon="4.78991">
        <ele>102.100586</ele>
        <time>2022-04-14T09:13:40+02:00</time>
      </trkpt>
      <trkpt lat="44.34215" lon="4.79009">
        <ele>102.40039</ele>
        <time>2022-04-14T09:13:45+02:00</time>
      </trkpt>
      <trkpt lat="44.34203" lon="4.79033">
        <ele>102</ele>
        <time>2022-04-14T09:13:50+02:00</time>
      </trkpt>
      <trkpt lat="44.34182" lon="4.79054">
        <ele>101.100586</ele>
        <time>2022-04-14T09:13:55+02:00</time>
      </trkpt>
      <trkpt lat="44.34181" lon="4.79086">
        <ele>100.700195</ele>
        <time>2022-04-14T09:14:00+02:00</time>
      </trkpt>
      <trkpt lat="44.34185" lon="4.79115">
        <ele>100.5</ele>
        <time>2022-04-14T09:14:05+02:00</time>
      </trkpt>
      <trkpt lat="44.34186" lon="4.79141">
        <ele>100.600586</ele>
        <time>2022-04-14T09:14:10+02:00</time>
      </trkpt>
      <trkpt lat="44.34188" lon="4.79167">
        <ele>100.799805</ele>
        <time>2022-04-14T09:14:15+02:00</time>
      </trkpt>
      <trkpt lat="44.34191" lon="4.79192">
        <ele>101.700195</ele>
        <time>2022-04-14T09:14:20+02:00</time>
      </trkpt>
      <trkpt lat="44.34194" lon="4.79216">
        <ele>102.700195</ele>
        <time>2022-04-14T09:14:25+02:00</time>
      </trkpt>
      <trkpt lat="44.34198" lon="4.79239">
        <ele>103.200195</ele>
        <time>2022-04-14T09:14:30+02:00</time>
      </trkpt>
      <trkpt lat="44.34202" lon="4.79262">
        <ele>104.600586</ele>
        <time>2022-04-14T09:14:35+02:00</time>
      </trkpt>
      <trkpt lat="44.34206" lon="4.79286">
        <ele>104.799805</ele>
        <time>2022-04-14T09:14:40+02:00</time>
      </trkpt>
      <trkpt lat="44.3421" lon="4.79312">
        <ele>105</ele>
        <time>2022-04-14T09:14:45+02:00</time>
      </trkpt>
      <trkpt lat="44.34213" lon="4.79338">
        <ele>105.200195</ele>
        <time>2022-04-14T09:14:50+02:00</time>
      </trkpt>
      <trkpt lat="44.34216" lon="4.79363">
        <ele>106.700195</ele>
        <time>2022-04-14T09:14:55+02:00</time>
      </trkpt>
      <trkpt lat="44.34219" lon="4.79388">
        <ele>107</ele>
        <time>2022-04-14T09:15:00+02:00</time>
      </trkpt>
      <trkpt lat="44.34222" lon="4.79414">
        <ele>107.200195</ele>
        <time>2022-04-14T09:15:05+02:00</time>
      </trkpt>
      <trkpt lat="44.34226" lon="4.7944">
        <ele>107.100586</ele>
        <time>2022-04-14T09:15:10+02:00</time>
      </trkpt>
      <trkpt lat="44.34228" lon="4.79466">
        <ele>108.5</ele>
        <time>2022-04-14T09:15:15+02:00</time>
      </trkpt>
      <trkpt lat="44.34231" lon="4.79489">
        <ele>108.100586</ele>
        <time>2022-04-14T09:15:20+02:00</time>
      </trkpt>
      <trkpt lat="44.34234" lon="4.79514">
        <ele>108.100586</ele>
        <time>2022-04-14T09:15:25+02:00</time>
      </trkpt>
      <trkpt lat="44.34237" lon="4.79538">
        <ele>107.90039</ele>
        <time>2022-04-14T09:15:30+02:00</time>
      </trkpt>
      <trkpt lat="44.3424" lon="4.79562">
        <ele>108.700195</ele>
        <time>2022-04-14T09:15:35+02:00</time>
      </trkpt>
      <trkpt lat="44.34244" lon="4.79585">
        <ele>108.200195</ele>
        <time>2022-04-14T09:15:40+02:00</time>
      </trkpt>
      <trkpt lat="44.34247" lon="4.7961">
        <ele>107.799805</ele>
        <time>2022-04-14T09:15:45+02:00</time>
      </trkpt>
      <trkpt lat="44.34249" lon="4.79636">
        <ele>107.799805</ele>
        <time>2022-04-14T09:15:50+02:00</time>
      </trkpt>
      <trkpt lat="44.34252" lon="4.79662">
        <ele>108.200195</ele>
        <time>2022-04-14T09:15:55+02:00</time>
      </trkpt>
      <trkpt lat="44.34256" lon="4.79685">
        <ele>108.299805</ele>
        <time>2022-04-14T09:16:00+02:00</time>
      </trkpt>
      <trkpt lat="44.34261" lon="4.79708">
        <ele>108.200195</ele>
        <time>2022-04-14T09:16:05+02:00</time>
      </trkpt>
      <trkpt lat="44.34264" lon="4.7973">
        <ele>108.40039</ele>
        <time>2022-04-14T09:16:10+02:00</time>
      </trkpt>
      <trkpt lat="44.34263" lon="4.79746">
        <ele>107.90039</ele>
        <time>2022-04-14T09:16:15+02:00</time>
      </trkpt>
      <trkpt lat="44.34265" lon="4.79767">
        <ele>108.700195</ele>
        <time>2022-04-14T09:16:20+02:00</time>
      </trkpt>
      <trkpt lat="44.34268" lon="4.79793">
        <ele>109.200195</ele>
        <time>2022-04-14T09:16:25+02:00</time>
      </trkpt>
      <trkpt lat="44.34272" lon="4.79817">
        <ele>109.90039</ele>
        <time>2022-04-14T09:16:30+02:00</time>
      </trkpt>
      <trkpt lat="44.34276" lon="4.7984">
        <ele>110</ele>
        <time>2022-04-14T09:16:35+02:00</time>
      </trkpt>
      <trkpt lat="44.3428" lon="4.79863">
        <ele>110.600586</ele>
        <time>2022-04-14T09:16:40+02:00</time>
      </trkpt>
      <trkpt lat="44.34283" lon="4.79889">
        <ele>110.700195</ele>
        <time>2022-04-14T09:16:45+02:00</time>
      </trkpt>
      <trkpt lat="44.34279" lon="4.79916">
        <ele>110.700195</ele>
        <time>2022-04-14T09:16:50+02:00</time>
      </trkpt>
      <trkpt lat="44.34279" lon="4.79944">
        <ele>110.5</ele>
        <time>2022-04-14T09:16:55+02:00</time>
      </trkpt>
      <trkpt lat="44.34285" lon="4.79976">
        <ele>109.799805</ele>
        <time>2022-04-14T09:17:00+02:00</time>
      </trkpt>
      <trkpt lat="44.34289" lon="4.8001">
        <ele>109.799805</ele>
        <time>2022-04-14T09:17:05+02:00</time>
      </trkpt>
      <trkpt lat="44.34294" lon="4.80041">
        <ele>109.600586</ele>
        <time>2022-04-14T09:17:10+02:00</time>
      </trkpt>
      <trkpt lat="44.34299" lon="4.80072">
        <ele>109.600586</ele>
        <time>2022-04-14T09:17:15+02:00</time>
      </trkpt>
      <trkpt lat="44.34302" lon="4.80104">
        <ele>110.40039</ele>
        <time>2022-04-14T09:17:20+02:00</time>
      </trkpt>
      <trkpt lat="44.34307" lon="4.80135">
        <ele>110.600586</ele>
        <time>2022-04-14T09:17:25+02:00</time>
      </trkpt>
      <trkpt lat="44.3431" lon="4.80166">
        <ele>111.40039</ele>
        <time>2022-04-14T09:17:30+02:00</time>
      </trkpt>
      <trkpt lat="44.34314" lon="4.80196">
        <ele>112.40039</ele>
        <time>2022-04-14T09:17:35+02:00</time>
      </trkpt>
      <trkpt lat="44.34318" lon="4.80224">
        <ele>112.200195</ele>
        <time>2022-04-14T09:17:40+02:00</time>
      </trkpt>
      <trkpt lat="44.34321" lon="4.80252">
        <ele>112.200195</ele>
        <time>2022-04-14T09:17:45+02:00</time>
      </trkpt>
      <trkpt lat="44.34323" lon="4.80278">
        <ele>112.299805</ele>
        <time>2022-04-14T09:17:50+02:00</time>
      </trkpt>
      <trkpt lat="44.34326" lon="4.80304">
        <ele>112.600586</ele>
        <time>2022-04-14T09:17:55+02:00</time>
      </trkpt>
      <trkpt lat="44.3433" lon="4.80329">
        <ele>112.299805</ele>
        <time>2022-04-14T09:18:00+02:00</time>
      </trkpt>
      <trkpt lat="44.34334" lon="4.80355">
        <ele>112</ele>
        <time>2022-04-14T09:18:05+02:00</time>
      </trkpt>
      <trkpt lat="44.34337" lon="4.80383">
        <ele>111.700195</ele>
        <time>2022-04-14T09:18:10+02:00</time>
      </trkpt>
      <trkpt lat="44.34339" lon="4.80416">
        <ele>111.100586</ele>
        <time>2022-04-14T09:18:15+02:00</time>
      </trkpt>
      <trkpt lat="44.3434" lon="4.80446">
        <ele>111.40039</ele>
        <time>2022-04-14T09:18:20+02:00</time>
      </trkpt>
      <trkpt lat="44.3434" lon="4.80471">
        <ele>111.600586</ele>
        <time>2022-04-14T09:18:25+02:00</time>
      </trkpt>
      <trkpt lat="44.34345" lon="4.80502">
        <ele>111.90039</ele>
        <time>2022-04-14T09:18:30+02:00</time>
      </trkpt>
      <trkpt lat="44.3435" lon="4.80533">
        <ele>113.5</ele>
        <time>2022-04-14T09:18:35+02:00</time>
      </trkpt>
      <trkpt lat="44.34352" lon="4.80563">
        <ele>114</ele>
        <time>2022-04-14T09:18:40+02:00</time>
      </trkpt>
      <trkpt lat="44.34355" lon="4.80592">
        <ele>115.100586</ele>
        <time>2022-04-14T09:18:45+02:00</time>
      </trkpt>
      <trkpt lat="44.34351" lon="4.80617">
        <ele>115.5</ele>
        <time>2022-04-14T09:18:50+02:00</time>
      </trkpt>
      <trkpt lat="44.34353" lon="4.80639">
        <ele>116.5</ele>
        <time>2022-04-14T09:18:55+02:00</time>
      </trkpt>
      <trkpt lat="44.34361" lon="4.80665">
        <ele>117</ele>
        <time>2022-04-14T09:19:00+02:00</time>
      </trkpt>
      <trkpt lat="44.34368" lon="4.80694">
        <ele>119</ele>
        <time>2022-04-14T09:19:05+02:00</time>
      </trkpt>
      <trkpt lat="44.34376" lon="4.80722">
        <ele>119.40039</ele>
        <time>2022-04-14T09:19:10+02:00</time>
      </trkpt>
      <trkpt lat="44.34385" lon="4.8075">
        <ele>118.40039</ele>
        <time>2022-04-14T09:19:15+02:00</time>
      </trkpt>
      <trkpt lat="44.34395" lon="4.80777">
        <ele>117.5</ele>
        <time>2022-04-14T09:19:20+02:00</time>
      </trkpt>
      <trkpt lat="44.34404" lon="4.80802">
        <ele>117.5</ele>
        <time>2022-04-14T09:19:25+02:00</time>
      </trkpt>
      <trkpt lat="44.34415" lon="4.80826">
        <ele>116.299805</ele>
        <time>2022-04-14T09:19:30+02:00</time>
      </trkpt>
      <trkpt lat="44.34425" lon="4.80851">
        <ele>116.299805</ele>
        <time>2022-04-14T09:19:35+02:00</time>
      </trkpt>
      <trkpt lat="44.34435" lon="4.80879">
        <ele>115.299805</ele>
        <time>2022-04-14T09:19:40+02:00</time>
      </trkpt>
      <trkpt lat="44.34445" lon="4.80913">
        <ele>115.40039</ele>
        <time>2022-04-14T09:19:45+02:00</time>
      </trkpt>
      <trkpt lat="44.34455" lon="4.80944">
        <ele>115.600586</ele>
        <time>2022-04-14T09:19:50+02:00</time>
      </trkpt>
      <trkpt lat="44.34467" lon="4.80972">
        <ele>116</ele>
        <time>2022-04-14T09:19:55+02:00</time>
      </trkpt>
      <trkpt lat="44.34476" lon="4.81001">
        <ele>116.40039</ele>
        <time>2022-04-14T09:20:00+02:00</time>
      </trkpt>
      <trkpt lat="44.34482" lon="4.81031">
        <ele>116.200195</ele>
        <time>2022-04-14T09:20:05+02:00</time>
      </trkpt>
      <trkpt lat="44.34488" lon="4.8106">
        <ele>116.40039</ele>
        <time>2022-04-14T09:20:10+02:00</time>
      </trkpt>
      <trkpt lat="44.34496" lon="4.81086">
        <ele>115.40039</ele>
        <time>2022-04-14T09:20:15+02:00</time>
      </trkpt>
      <trkpt lat="44.34503" lon="4.81112">
        <ele>115.5</ele>
        <time>2022-04-14T09:20:20+02:00</time>
      </trkpt>
      <trkpt lat="44.3451" lon="4.81139">
        <ele>115.799805</ele>
        <time>2022-04-14T09:20:25+02:00</time>
      </trkpt>
      <trkpt lat="44.34517" lon="4.81168">
        <ele>115.40039</ele>
        <time>2022-04-14T09:20:30+02:00</time>
      </trkpt>
      <trkpt lat="44.34523" lon="4.81194">
        <ele>115.700195</ele>
        <time>2022-04-14T09:20:35+02:00</time>
      </trkpt>
      <trkpt lat="44.34528" lon="4.81225">
        <ele>115.299805</ele>
        <time>2022-04-14T09:20:40+02:00</time>
      </trkpt>
      <trkpt lat="44.34533" lon="4.81258">
        <ele>115.299805</ele>
        <time>2022-04-14T09:20:45+02:00</time>
      </trkpt>
      <trkpt lat="44.34542" lon="4.81289">
        <ele>115.40039</ele>
        <time>2022-04-14T09:20:50+02:00</time>
      </trkpt>
      <trkpt lat="44.34552" lon="4.81318">
        <ele>115.90039</ele>
        <time>2022-04-14T09:20:55+02:00</time>
      </trkpt>
      <trkpt lat="44.34566" lon="4.81347">
        <ele>116.40039</ele>
        <time>2022-04-14T09:21:00+02:00</time>
      </trkpt>
      <trkpt lat="44.34582" lon="4.81373">
        <ele>117</ele>
        <time>2022-04-14T09:21:05+02:00</time>
      </trkpt>
      <trkpt lat="44.34598" lon="4.81397">
        <ele>117.700195</ele>
        <time>2022-04-14T09:21:10+02:00</time>
      </trkpt>
      <trkpt lat="44.34613" lon="4.81421">
        <ele>117.799805</ele>
        <time>2022-04-14T09:21:15+02:00</time>
      </trkpt>
      <trkpt lat="44.34625" lon="4.81447">
        <ele>116.700195</ele>
        <time>2022-04-14T09:21:20+02:00</time>
      </trkpt>
      <trkpt lat="44.34633" lon="4.81477">
        <ele>116.100586</ele>
        <time>2022-04-14T09:21:25+02:00</time>
      </trkpt>
      <trkpt lat="44.34642" lon="4.81508">
        <ele>115.600586</ele>
        <time>2022-04-14T09:21:30+02:00</time>
      </trkpt>
      <trkpt lat="44.34646" lon="4.8154">
        <ele>115.600586</ele>
        <time>2022-04-14T09:21:35+02:00</time>
      </trkpt>
      <trkpt lat="44.34641" lon="4.81574">
        <ele>114.40039</ele>
        <time>2022-04-14T09:21:40+02:00</time>
      </trkpt>
      <trkpt lat="44.34635" lon="4.81604">
        <ele>114.200195</ele>
        <time>2022-04-14T09:21:45+02:00</time>
      </trkpt>
      <trkpt lat="44.34637" lon="4.81633">
        <ele>113.799805</ele>
        <time>2022-04-14T09:21:50+02:00</time>
      </trkpt>
      <trkpt lat="44.34647" lon="4.8166">
        <ele>114.600586</ele>
        <time>2022-04-14T09:21:55+02:00</time>
      </trkpt>
      <trkpt lat="44.34661" lon="4.81683">
        <ele>115.299805</ele>
        <time>2022-04-14T09:22:00+02:00</time>
      </trkpt>
      <trkpt lat="44.34676" lon="4.81706">
        <ele>116.5</ele>
        <time>2022-04-14T09:22:05+02:00</time>
      </trkpt>
      <trkpt lat="44.34692" lon="4.81733">
        <ele>117.5</ele>
        <time>2022-04-14T09:22:10+02:00</time>
      </trkpt>
      <trkpt lat="44.34702" lon="4.8176">
        <ele>117.600586</ele>
        <time>2022-04-14T09:22:15+02:00</time>
      </trkpt>
      <trkpt lat="44.34696" lon="4.81785">
        <ele>117.100586</ele>
        <time>2022-04-14T09:22:20+02:00</time>
      </trkpt>
      <trkpt lat="44.34676" lon="4.81804">
        <ele>114.40039</ele>
        <time>2022-04-14T09:22:25+02:00</time>
      </trkpt>
      <trkpt lat="44.34656" lon="4.81822">
        <ele>112.299805</ele>
        <time>2022-04-14T09:22:30+02:00</time>
      </trkpt>
      <trkpt lat="44.34635" lon="4.81839">
        <ele>111.40039</ele>
        <time>2022-04-14T09:22:35+02:00</time>
      </trkpt>
      <trkpt lat="44.34616" lon="4.81856">
        <ele>110.40039</ele>
        <time>2022-04-14T09:22:40+02:00</time>
      </trkpt>
      <trkpt lat="44.34597" lon="4.81876">
        <ele>111.100586</ele>
        <time>2022-04-14T09:22:45+02:00</time>
      </trkpt>
      <trkpt lat="44.34587" lon="4.81899">
        <ele>111.799805</ele>
        <time>2022-04-14T09:22:50+02:00</time>
      </trkpt>
      <trkpt lat="44.34585" lon="4.81923">
        <ele>115.600586</ele>
        <time>2022-04-14T09:22:55+02:00</time>
      </trkpt>
      <trkpt lat="44.3459" lon="4.81946">
        <ele>116</ele>
        <time>2022-04-14T09:23:00+02:00</time>
      </trkpt>
      <trkpt lat="44.34596" lon="4.81977">
        <ele>115.799805</ele>
        <time>2022-04-14T09:23:05+02:00</time>
      </trkpt>
      <trkpt lat="44.34602" lon="4.82011">
        <ele>115.100586</ele>
        <time>2022-04-14T09:23:10+02:00</time>
      </trkpt>
      <trkpt lat="44.34608" lon="4.82047">
        <ele>114.40039</ele>
        <time>2022-04-14T09:23:15+02:00</time>
      </trkpt>
      <trkpt lat="44.34619" lon="4.82084">
        <ele>113.100586</ele>
        <time>2022-04-14T09:23:20+02:00</time>
      </trkpt>
      <trkpt lat="44.34634" lon="4.82112">
        <ele>112.200195</ele>
        <time>2022-04-14T09:23:25+02:00</time>
      </trkpt>
      <trkpt lat="44.34618" lon="4.82137">
        <ele>111.799805</ele>
        <time>2022-04-14T09:23:30+02:00</time>
      </trkpt>
      <trkpt lat="44.34605" lon="4.82165">
        <ele>111.5</ele>
        <time>2022-04-14T09:23:35+02:00</time>
      </trkpt>
      <trkpt lat="44.34599" lon="4.82197">
        <ele>111.700195</ele>
        <time>2022-04-14T09:23:40+02:00</time>
      </trkpt>
      <trkpt lat="44.34593" lon="4.82225">
        <ele>112</ele>
        <time>2022-04-14T09:23:45+02:00</time>
      </trkpt>
      <trkpt lat="44.34588" lon="4.82254">
        <ele>112.299805</ele>
        <time>2022-04-14T09:23:50+02:00</time>
      </trkpt>
      <trkpt lat="44.34586" lon="4.82284">
        <ele>112.40039</ele>
        <time>2022-04-14T09:23:55+02:00</time>
      </trkpt>
      <trkpt lat="44.34583" lon="4.82315">
        <ele>112.5</ele>
        <time>2022-04-14T09:24:00+02:00</time>
      </trkpt>
      <trkpt lat="44.34582" lon="4.82346">
        <ele>112.600586</ele>
        <time>2022-04-14T09:24:05+02:00</time>
      </trkpt>
      <trkpt lat="44.3458" lon="4.82378">
        <ele>112.90039</ele>
        <time>2022-04-14T09:24:10+02:00</time>
      </trkpt>
      <trkpt lat="44.34579" lon="4.82405">
        <ele>113.299805</ele>
        <time>2022-04-14T09:24:15+02:00</time>
      </trkpt>
      <trkpt lat="44.34574" lon="4.82423">
        <ele>113.5</ele>
        <time>2022-04-14T09:24:20+02:00</time>
      </trkpt>
      <trkpt lat="44.34574" lon="4.82433">
        <ele>113.5</ele>
        <time>2022-04-14T09:24:25+02:00</time>
      </trkpt>
      <trkpt lat="44.34575" lon="4.82454">
        <ele>113.799805</ele>
        <time>2022-04-14T09:24:30+02:00</time>
      </trkpt>
      <trkpt lat="44.34573" lon="4.82477">
        <ele>114.200195</ele>
        <time>2022-04-14T09:24:35+02:00</time>
      </trkpt>
      <trkpt lat="44.34573" lon="4.82505">
        <ele>114.299805</ele>
        <time>2022-04-14T09:24:40+02:00</time>
      </trkpt>
      <trkpt lat="44.34574" lon="4.82534">
        <ele>113.90039</ele>
        <time>2022-04-14T09:24:45+02:00</time>
      </trkpt>
      <trkpt lat="44.34577" lon="4.82561">
        <ele>113.299805</ele>
        <time>2022-04-14T09:24:50+02:00</time>
      </trkpt>
      <trkpt lat="44.34577" lon="4.82591">
        <ele>113</ele>
        <time>2022-04-14T09:24:55+02:00</time>
      </trkpt>
      <trkpt lat="44.3458" lon="4.82622">
        <ele>112.600586</ele>
        <time>2022-04-14T09:25:00+02:00</time>
      </trkpt>
      <trkpt lat="44.34584" lon="4.82653">
        <ele>112.799805</ele>
        <time>2022-04-14T09:25:05+02:00</time>
      </trkpt>
      <trkpt lat="44.34588" lon="4.82684">
        <ele>112.40039</ele>
        <time>2022-04-14T09:25:10+02:00</time>
      </trkpt>
      <trkpt lat="44.34594" lon="4.82713">
        <ele>111.90039</ele>
        <time>2022-04-14T09:25:15+02:00</time>
      </trkpt>
      <trkpt lat="44.34602" lon="4.8274">
        <ele>112.200195</ele>
        <time>2022-04-14T09:25:20+02:00</time>
      </trkpt>
      <trkpt lat="44.34611" lon="4.82768">
        <ele>112.600586</ele>
        <time>2022-04-14T09:25:25+02:00</time>
      </trkpt>
      <trkpt lat="44.34621" lon="4.82795">
        <ele>113.40039</ele>
        <time>2022-04-14T09:25:30+02:00</time>
      </trkpt>
      <trkpt lat="44.34631" lon="4.82822">
        <ele>113.5</ele>
        <time>2022-04-14T09:25:35+02:00</time>
      </trkpt>
      <trkpt lat="44.34641" lon="4.82847">
        <ele>114.299805</ele>
        <time>2022-04-14T09:25:40+02:00</time>
      </trkpt>
      <trkpt lat="44.3465" lon="4.82871">
        <ele>115.200195</ele>
        <time>2022-04-14T09:25:45+02:00</time>
      </trkpt>
      <trkpt lat="44.34659" lon="4.82894">
        <ele>115.90039</ele>
        <time>2022-04-14T09:25:50+02:00</time>
      </trkpt>
      <trkpt lat="44.34667" lon="4.8292">
        <ele>115.40039</ele>
        <time>2022-04-14T09:25:55+02:00</time>
      </trkpt>
      <trkpt lat="44.34677" lon="4.82944">
        <ele>115.299805</ele>
        <time>2022-04-14T09:26:00+02:00</time>
      </trkpt>
      <trkpt lat="44.34686" lon="4.82968">
        <ele>115.200195</ele>
        <time>2022-04-14T09:26:05+02:00</time>
      </trkpt>
      <trkpt lat="44.34696" lon="4.82992">
        <ele>114.600586</ele>
        <time>2022-04-14T09:26:10+02:00</time>
      </trkpt>
      <trkpt lat="44.34706" lon="4.83019">
        <ele>114.90039</ele>
        <time>2022-04-14T09:26:15+02:00</time>
      </trkpt>
      <trkpt lat="44.34716" lon="4.83046">
        <ele>115.200195</ele>
        <time>2022-04-14T09:26:20+02:00</time>
      </trkpt>
      <trkpt lat="44.34726" lon="4.83072">
        <ele>116.5</ele>
        <time>2022-04-14T09:26:25+02:00</time>
      </trkpt>
      <trkpt lat="44.34736" lon="4.83098">
        <ele>117.90039</ele>
        <time>2022-04-14T09:26:30+02:00</time>
      </trkpt>
      <trkpt lat="44.34747" lon="4.83124">
        <ele>117.799805</ele>
        <time>2022-04-14T09:26:35+02:00</time>
      </trkpt>
      <trkpt lat="44.34759" lon="4.83147">
        <ele>117.799805</ele>
        <time>2022-04-14T09:26:40+02:00</time>
      </trkpt>
      <trkpt lat="44.34772" lon="4.83169">
        <ele>117.799805</ele>
        <time>2022-04-14T09:26:45+02:00</time>
      </trkpt>
      <trkpt lat="44.34782" lon="4.83192">
        <ele>117.700195</ele>
        <time>2022-04-14T09:26:50+02:00</time>
      </trkpt>
      <trkpt lat="44.34782" lon="4.8322">
        <ele>116.5</ele>
        <time>2022-04-14T09:26:55+02:00</time>
      </trkpt>
      <trkpt lat="44.3477" lon="4.83245">
        <ele>115.5</ele>
        <time>2022-04-14T09:27:00+02:00</time>
      </trkpt>
      <trkpt lat="44.34767" lon="4.83272">
        <ele>115</ele>
        <time>2022-04-14T09:27:05+02:00</time>
      </trkpt>
      <trkpt lat="44.3478" lon="4.8328">
        <ele>114.700195</ele>
        <time>2022-04-14T09:27:10+02:00</time>
      </trkpt>
      <trkpt lat="44.34795" lon="4.83298">
        <ele>114.5</ele>
        <time>2022-04-14T09:27:15+02:00</time>
      </trkpt>
      <trkpt lat="44.34804" lon="4.83319">
        <ele>114.700195</ele>
        <time>2022-04-14T09:27:20+02:00</time>
      </trkpt>
      <trkpt lat="44.34807" lon="4.83347">
        <ele>114.600586</ele>
        <time>2022-04-14T09:27:25+02:00</time>
      </trkpt>
      <trkpt lat="44.3481" lon="4.83373">
        <ele>114.5</ele>
        <time>2022-04-14T09:27:30+02:00</time>
      </trkpt>
      <trkpt lat="44.34816" lon="4.83395">
        <ele>114.5</ele>
        <time>2022-04-14T09:27:35+02:00</time>
      </trkpt>
      <trkpt lat="44.34825" lon="4.83414">
        <ele>114.600586</ele>
        <time>2022-04-14T09:27:40+02:00</time>
      </trkpt>
      <trkpt lat="44.34834" lon="4.83435">
        <ele>114.799805</ele>
        <time>2022-04-14T09:27:45+02:00</time>
      </trkpt>
      <trkpt lat="44.34842" lon="4.8346">
        <ele>115</ele>
        <time>2022-04-14T09:27:50+02:00</time>
      </trkpt>
      <trkpt lat="44.34847" lon="4.83487">
        <ele>115.100586</ele>
        <time>2022-04-14T09:27:55+02:00</time>
      </trkpt>
      <trkpt lat="44.34851" lon="4.83514">
        <ele>115.100586</ele>
        <time>2022-04-14T09:28:00+02:00</time>
      </trkpt>
      <trkpt lat="44.34856" lon="4.83543">
        <ele>115.600586</ele>
        <time>2022-04-14T09:28:05+02:00</time>
      </trkpt>
      <trkpt lat="44.34863" lon="4.83571">
        <ele>115.700195</ele>
        <time>2022-04-14T09:28:10+02:00</time>
      </trkpt>
      <trkpt lat="44.34868" lon="4.83598">
        <ele>116</ele>
        <time>2022-04-14T09:28:15+02:00</time>
      </trkpt>
      <trkpt lat="44.34872" lon="4.83625">
        <ele>116.40039</ele>
        <time>2022-04-14T09:28:20+02:00</time>
      </trkpt>
      <trkpt lat="44.34873" lon="4.83653">
        <ele>116.600586</ele>
        <time>2022-04-14T09:28:25+02:00</time>
      </trkpt>
      <trkpt lat="44.34874" lon="4.83679">
        <ele>117.100586</ele>
        <time>2022-04-14T09:28:30+02:00</time>
      </trkpt>
      <trkpt lat="44.34875" lon="4.83705">
        <ele>117.299805</ele>
        <time>2022-04-14T09:28:35+02:00</time>
      </trkpt>
      <trkpt lat="44.34876" lon="4.83728">
        <ele>117.700195</ele>
        <time>2022-04-14T09:28:40+02:00</time>
      </trkpt>
      <trkpt lat="44.34875" lon="4.83751">
        <ele>117.700195</ele>
        <time>2022-04-14T09:28:45+02:00</time>
      </trkpt>
      <trkpt lat="44.34867" lon="4.83761">
        <ele>117.799805</ele>
        <time>2022-04-14T09:28:50+02:00</time>
      </trkpt>
      <trkpt lat="44.34847" lon="4.83767">
        <ele>117.40039</ele>
        <time>2022-04-14T09:28:55+02:00</time>
      </trkpt>
      <trkpt lat="44.34827" lon="4.83772">
        <ele>117.299805</ele>
        <time>2022-04-14T09:29:00+02:00</time>
      </trkpt>
      <trkpt lat="44.34811" lon="4.83788">
        <ele>117.299805</ele>
        <time>2022-04-14T09:29:05+02:00</time>
      </trkpt>
      <trkpt lat="44.34795" lon="4.83805">
        <ele>117.40039</ele>
        <time>2022-04-14T09:29:10+02:00</time>
      </trkpt>
      <trkpt lat="44.34779" lon="4.83821">
        <ele>117.299805</ele>
        <time>2022-04-14T09:29:15+02:00</time>
      </trkpt>
      <trkpt lat="44.3476" lon="4.83834">
        <ele>117.299805</ele>
        <time>2022-04-14T09:29:20+02:00</time>
      </trkpt>
      <trkpt lat="44.34738" lon="4.8385">
        <ele>117.100586</ele>
        <time>2022-04-14T09:29:25+02:00</time>
      </trkpt>
      <trkpt lat="44.34718" lon="4.83874">
        <ele>116.90039</ele>
        <time>2022-04-14T09:29:30+02:00</time>
      </trkpt>
      <trkpt lat="44.34703" lon="4.83901">
        <ele>116.90039</ele>
        <time>2022-04-14T09:29:35+02:00</time>
      </trkpt>
      <trkpt lat="44.34689" lon="4.83925">
        <ele>117.600586</ele>
        <time>2022-04-14T09:29:40+02:00</time>
      </trkpt>
      <trkpt lat="44.34676" lon="4.83948">
        <ele>120.5</ele>
        <time>2022-04-14T09:29:45+02:00</time>
      </trkpt>
      <trkpt lat="44.34662" lon="4.83971">
        <ele>122.299805</ele>
        <time>2022-04-14T09:29:50+02:00</time>
      </trkpt>
      <trkpt lat="44.34649" lon="4.83993">
        <ele>123.799805</ele>
        <time>2022-04-14T09:29:55+02:00</time>
      </trkpt>
      <trkpt lat="44.34638" lon="4.84013">
        <ele>125.40039</ele>
        <time>2022-04-14T09:30:00+02:00</time>
      </trkpt>
      <trkpt lat="44.34634" lon="4.8403">
        <ele>126.600586</ele>
        <time>2022-04-14T09:30:05+02:00</time>
      </trkpt>
      <trkpt lat="44.34642" lon="4.84047">
        <ele>127.600586</ele>
        <time>2022-04-14T09:30:10+02:00</time>
      </trkpt>
      <trkpt lat="44.34649" lon="4.84065">
        <ele>128.40039</ele>
        <time>2022-04-14T09:30:15+02:00</time>
      </trkpt>
      <trkpt lat="44.3466" lon="4.84083">
        <ele>128.5</ele>
        <time>2022-04-14T09:30:20+02:00</time>
      </trkpt>
      <trkpt lat="44.34676" lon="4.84101">
        <ele>128.10059</ele>
        <time>2022-04-14T09:30:25+02:00</time>
      </trkpt>
      <trkpt lat="44.34692" lon="4.84119">
        <ele>127.600586</ele>
        <time>2022-04-14T09:30:30+02:00</time>
      </trkpt>
      <trkpt lat="44.34708" lon="4.84139">
        <ele>126.799805</ele>
        <time>2022-04-14T09:30:35+02:00</time>
      </trkpt>
      <trkpt lat="44.34724" lon="4.84158">
        <ele>126.700195</ele>
        <time>2022-04-14T09:30:40+02:00</time>
      </trkpt>
      <trkpt lat="44.34739" lon="4.84178">
        <ele>126.5</ele>
        <time>2022-04-14T09:30:45+02:00</time>
      </trkpt>
      <trkpt lat="44.34752" lon="4.84199">
        <ele>126.299805</ele>
        <time>2022-04-14T09:30:50+02:00</time>
      </trkpt>
      <trkpt lat="44.34762" lon="4.84222">
        <ele>126.200195</ele>
        <time>2022-04-14T09:30:55+02:00</time>
      </trkpt>
      <trkpt lat="44.34767" lon="4.84241">
        <ele>126.40039</ele>
        <time>2022-04-14T09:31:00+02:00</time>
      </trkpt>
      <trkpt lat="44.34772" lon="4.84264">
        <ele>126.799805</ele>
        <time>2022-04-14T09:31:05+02:00</time>
      </trkpt>
      <trkpt lat="44.34776" lon="4.84288">
        <ele>127</ele>
        <time>2022-04-14T09:31:10+02:00</time>
      </trkpt>
      <trkpt lat="44.34783" lon="4.84315">
        <ele>127.200195</ele>
        <time>2022-04-14T09:31:15+02:00</time>
      </trkpt>
      <trkpt lat="44.34795" lon="4.84343">
        <ele>127.40039</ele>
        <time>2022-04-14T09:31:20+02:00</time>
      </trkpt>
      <trkpt lat="44.34809" lon="4.84368">
        <ele>127.40039</ele>
        <time>2022-04-14T09:31:25+02:00</time>
      </trkpt>
      <trkpt lat="44.34826" lon="4.84384">
        <ele>127.600586</ele>
        <time>2022-04-14T09:31:30+02:00</time>
      </trkpt>
      <trkpt lat="44.34845" lon="4.84396">
        <ele>127.600586</ele>
        <time>2022-04-14T09:31:35+02:00</time>
      </trkpt>
      <trkpt lat="44.34865" lon="4.84408">
        <ele>127.40039</ele>
        <time>2022-04-14T09:31:40+02:00</time>
      </trkpt>
      <trkpt lat="44.34885" lon="4.84415">
        <ele>127.600586</ele>
        <time>2022-04-14T09:31:45+02:00</time>
      </trkpt>
      <trkpt lat="44.34908" lon="4.8442">
        <ele>127.5</ele>
        <time>2022-04-14T09:31:50+02:00</time>
      </trkpt>
      <trkpt lat="44.34931" lon="4.84435">
        <ele>127.799805</ele>
        <time>2022-04-14T09:31:55+02:00</time>
      </trkpt>
      <trkpt lat="44.3495" lon="4.84454">
        <ele>128</ele>
        <time>2022-04-14T09:32:00+02:00</time>
      </trkpt>
      <trkpt lat="44.34969" lon="4.84471">
        <ele>128.10059</ele>
        <time>2022-04-14T09:32:05+02:00</time>
      </trkpt>
      <trkpt lat="44.34986" lon="4.84487">
        <ele>128.2998</ele>
        <time>2022-04-14T09:32:10+02:00</time>
      </trkpt>
      <trkpt lat="44.35005" lon="4.84505">
        <ele>128.2998</ele>
        <time>2022-04-14T09:32:15+02:00</time>
      </trkpt>
      <trkpt lat="44.35024" lon="4.84524">
        <ele>128.40039</ele>
        <time>2022-04-14T09:32:20+02:00</time>
      </trkpt>
      <trkpt lat="44.35043" lon="4.84543">
        <ele>128.2998</ele>
        <time>2022-04-14T09:32:25+02:00</time>
      </trkpt>
      <trkpt lat="44.35062" lon="4.84563">
        <ele>128.2998</ele>
        <time>2022-04-14T09:32:30+02:00</time>
      </trkpt>
      <trkpt lat="44.3508" lon="4.84582">
        <ele>128.40039</ele>
        <time>2022-04-14T09:32:35+02:00</time>
      </trkpt>
      <trkpt lat="44.35097" lon="4.84599">
        <ele>128.5</ele>
        <time>2022-04-14T09:32:40+02:00</time>
      </trkpt>
      <trkpt lat="44.35115" lon="4.84617">
        <ele>128.7002</ele>
        <time>2022-04-14T09:32:45+02:00</time>
      </trkpt>
      <trkpt lat="44.35131" lon="4.84638">
        <ele>129.10059</ele>
        <time>2022-04-14T09:32:50+02:00</time>
      </trkpt>
      <trkpt lat="44.35146" lon="4.84661">
        <ele>129.40039</ele>
        <time>2022-04-14T09:32:55+02:00</time>
      </trkpt>
      <trkpt lat="44.35159" lon="4.84686">
        <ele>129.7998</ele>
        <time>2022-04-14T09:33:00+02:00</time>
      </trkpt>
      <trkpt lat="44.35174" lon="4.84707">
        <ele>130.7002</ele>
        <time>2022-04-14T09:33:05+02:00</time>
      </trkpt>
      <trkpt lat="44.3519" lon="4.84727">
        <ele>131</ele>
        <time>2022-04-14T09:33:10+02:00</time>
      </trkpt>
      <trkpt lat="44.35206" lon="4.84746">
        <ele>131.2998</ele>
        <time>2022-04-14T09:33:15+02:00</time>
      </trkpt>
      <trkpt lat="44.35223" lon="4.84766">
        <ele>131.5</ele>
        <time>2022-04-14T09:33:20+02:00</time>
      </trkpt>
      <trkpt lat="44.35239" lon="4.84786">
        <ele>131.7002</ele>
        <time>2022-04-14T09:33:25+02:00</time>
      </trkpt>
      <trkpt lat="44.35255" lon="4.84803">
        <ele>131.90039</ele>
        <time>2022-04-14T09:33:30+02:00</time>
      </trkpt>
      <trkpt lat="44.35265" lon="4.84823">
        <ele>132</ele>
        <time>2022-04-14T09:33:35+02:00</time>
      </trkpt>
      <trkpt lat="44.35264" lon="4.84847">
        <ele>132.40039</ele>
        <time>2022-04-14T09:33:40+02:00</time>
      </trkpt>
      <trkpt lat="44.35263" lon="4.84875">
        <ele>132.90039</ele>
        <time>2022-04-14T09:33:45+02:00</time>
      </trkpt>
      <trkpt lat="44.35261" lon="4.84904">
        <ele>133.10059</ele>
        <time>2022-04-14T09:33:50+02:00</time>
      </trkpt>
      <trkpt lat="44.35259" lon="4.84934">
        <ele>133.40039</ele>
        <time>2022-04-14T09:33:55+02:00</time>
      </trkpt>
      <trkpt lat="44.35256" lon="4.84965">
        <ele>133.40039</ele>
        <time>2022-04-14T09:34:00+02:00</time>
      </trkpt>
      <trkpt lat="44.35255" lon="4.84996">
        <ele>133.5</ele>
        <time>2022-04-14T09:34:05+02:00</time>
      </trkpt>
      <trkpt lat="44.35252" lon="4.85026">
        <ele>133.7002</ele>
        <time>2022-04-14T09:34:10+02:00</time>
      </trkpt>
      <trkpt lat="44.35246" lon="4.85057">
        <ele>134</ele>
        <time>2022-04-14T09:34:15+02:00</time>
      </trkpt>
      <trkpt lat="44.35241" lon="4.85087">
        <ele>134.10059</ele>
        <time>2022-04-14T09:34:20+02:00</time>
      </trkpt>
      <trkpt lat="44.35236" lon="4.85115">
        <ele>133.90039</ele>
        <time>2022-04-14T09:34:25+02:00</time>
      </trkpt>
      <trkpt lat="44.35231" lon="4.85141">
        <ele>132.60059</ele>
        <time>2022-04-14T09:34:30+02:00</time>
      </trkpt>
      <trkpt lat="44.35229" lon="4.85168">
        <ele>130.90039</ele>
        <time>2022-04-14T09:34:35+02:00</time>
      </trkpt>
      <trkpt lat="44.35222" lon="4.85193">
        <ele>130.10059</ele>
        <time>2022-04-14T09:34:40+02:00</time>
      </trkpt>
      <trkpt lat="44.35208" lon="4.85234">
        <ele>126.5</ele>
        <time>2022-04-14T09:34:45+02:00</time>
      </trkpt>
      <trkpt lat="44.3519" lon="4.85284">
        <ele>123.700195</ele>
        <time>2022-04-14T09:34:50+02:00</time>
      </trkpt>
      <trkpt lat="44.35178" lon="4.85319">
        <ele>122.299805</ele>
        <time>2022-04-14T09:34:55+02:00</time>
      </trkpt>
      <trkpt lat="44.35184" lon="4.85337">
        <ele>122.700195</ele>
        <time>2022-04-14T09:35:00+02:00</time>
      </trkpt>
      <trkpt lat="44.35201" lon="4.85353">
        <ele>123.100586</ele>
        <time>2022-04-14T09:35:05+02:00</time>
      </trkpt>
      <trkpt lat="44.35214" lon="4.85373">
        <ele>122.799805</ele>
        <time>2022-04-14T09:35:10+02:00</time>
      </trkpt>
      <trkpt lat="44.35224" lon="4.85398">
        <ele>122.299805</ele>
        <time>2022-04-14T09:35:15+02:00</time>
      </trkpt>
      <trkpt lat="44.35232" lon="4.85424">
        <ele>121.600586</ele>
        <time>2022-04-14T09:35:20+02:00</time>
      </trkpt>
      <trkpt lat="44.35238" lon="4.85453">
        <ele>121.100586</ele>
        <time>2022-04-14T09:35:25+02:00</time>
      </trkpt>
      <trkpt lat="44.35241" lon="4.85485">
        <ele>121.200195</ele>
        <time>2022-04-14T09:35:30+02:00</time>
      </trkpt>
      <trkpt lat="44.35245" lon="4.85516">
        <ele>121.200195</ele>
        <time>2022-04-14T09:35:35+02:00</time>
      </trkpt>
      <trkpt lat="44.3525" lon="4.85546">
        <ele>121.40039</ele>
        <time>2022-04-14T09:35:40+02:00</time>
      </trkpt>
      <trkpt lat="44.35255" lon="4.85576">
        <ele>121.5</ele>
        <time>2022-04-14T09:35:45+02:00</time>
      </trkpt>
      <trkpt lat="44.35259" lon="4.85603">
        <ele>122.100586</ele>
        <time>2022-04-14T09:35:50+02:00</time>
      </trkpt>
      <trkpt lat="44.35264" lon="4.85629">
        <ele>122.600586</ele>
        <time>2022-04-14T09:35:55+02:00</time>
      </trkpt>
      <trkpt lat="44.35261" lon="4.85655">
        <ele>123.700195</ele>
        <time>2022-04-14T09:36:00+02:00</time>
      </trkpt>
      <trkpt lat="44.35255" lon="4.85678">
        <ele>123.90039</ele>
        <time>2022-04-14T09:36:05+02:00</time>
      </trkpt>
      <trkpt lat="44.35251" lon="4.85704">
        <ele>124.600586</ele>
        <time>2022-04-14T09:36:10+02:00</time>
      </trkpt>
      <trkpt lat="44.35247" lon="4.85731">
        <ele>124.799805</ele>
        <time>2022-04-14T09:36:15+02:00</time>
      </trkpt>
      <trkpt lat="44.35245" lon="4.85759">
        <ele>124.600586</ele>
        <time>2022-04-14T09:36:20+02:00</time>
      </trkpt>
      <trkpt lat="44.35255" lon="4.85785">
        <ele>124.90039</ele>
        <time>2022-04-14T09:36:25+02:00</time>
      </trkpt>
      <trkpt lat="44.35266" lon="4.85807">
        <ele>124.5</ele>
        <time>2022-04-14T09:36:30+02:00</time>
      </trkpt>
      <trkpt lat="44.35278" lon="4.8583">
        <ele>124.40039</ele>
        <time>2022-04-14T09:36:35+02:00</time>
      </trkpt>
      <trkpt lat="44.35292" lon="4.85854">
        <ele>124.100586</ele>
        <time>2022-04-14T09:36:40+02:00</time>
      </trkpt>
      <trkpt lat="44.35309" lon="4.85875">
        <ele>124.799805</ele>
        <time>2022-04-14T09:36:45+02:00</time>
      </trkpt>
      <trkpt lat="44.35324" lon="4.85892">
        <ele>125.299805</ele>
        <time>2022-04-14T09:36:50+02:00</time>
      </trkpt>
      <trkpt lat="44.35338" lon="4.85908">
        <ele>126.40039</ele>
        <time>2022-04-14T09:36:55+02:00</time>
      </trkpt>
      <trkpt lat="44.35346" lon="4.85919">
        <ele>127.40039</ele>
        <time>2022-04-14T09:37:00+02:00</time>
      </trkpt>
      <trkpt lat="44.35357" lon="4.85927">
        <ele>128.5</ele>
        <time>2022-04-14T09:37:05+02:00</time>
      </trkpt>
      <trkpt lat="44.35368" lon="4.85939">
        <ele>129.2002</ele>
        <time>2022-04-14T09:37:10+02:00</time>
      </trkpt>
      <trkpt lat="44.35382" lon="4.85955">
        <ele>129.7002</ele>
        <time>2022-04-14T09:37:15+02:00</time>
      </trkpt>
      <trkpt lat="44.35395" lon="4.85971">
        <ele>130.2002</ele>
        <time>2022-04-14T09:37:20+02:00</time>
      </trkpt>
      <trkpt lat="44.35411" lon="4.85986">
        <ele>130.7998</ele>
        <time>2022-04-14T09:37:25+02:00</time>
      </trkpt>
      <trkpt lat="44.35427" lon="4.86">
        <ele>131.10059</ele>
        <time>2022-04-14T09:37:30+02:00</time>
      </trkpt>
      <trkpt lat="44.35445" lon="4.86014">
        <ele>131.90039</ele>
        <time>2022-04-14T09:37:35+02:00</time>
      </trkpt>
      <trkpt lat="44.35464" lon="4.86026">
        <ele>132</ele>
        <time>2022-04-14T09:37:40+02:00</time>
      </trkpt>
      <trkpt lat="44.3548" lon="4.86038">
        <ele>135</ele>
        <time>2022-04-14T09:37:45+02:00</time>
      </trkpt>
      <trkpt lat="44.35495" lon="4.86051">
        <ele>133.90039</ele>
        <time>2022-04-14T09:37:50+02:00</time>
      </trkpt>
      <trkpt lat="44.35512" lon="4.86063">
        <ele>132.10059</ele>
        <time>2022-04-14T09:37:55+02:00</time>
      </trkpt>
      <trkpt lat="44.35532" lon="4.86082">
        <ele>130</ele>
        <time>2022-04-14T09:38:00+02:00</time>
      </trkpt>
      <trkpt lat="44.35554" lon="4.86099">
        <ele>127.600586</ele>
        <time>2022-04-14T09:38:05+02:00</time>
      </trkpt>
      <trkpt lat="44.35575" lon="4.86111">
        <ele>125.600586</ele>
        <time>2022-04-14T09:38:10+02:00</time>
      </trkpt>
      <trkpt lat="44.35596" lon="4.86119">
        <ele>125.100586</ele>
        <time>2022-04-14T09:38:15+02:00</time>
      </trkpt>
      <trkpt lat="44.35618" lon="4.86124">
        <ele>125.799805</ele>
        <time>2022-04-14T09:38:20+02:00</time>
      </trkpt>
      <trkpt lat="44.35636" lon="4.86131">
        <ele>124.799805</ele>
        <time>2022-04-14T09:38:25+02:00</time>
      </trkpt>
      <trkpt lat="44.35658" lon="4.8614">
        <ele>126.100586</ele>
        <time>2022-04-14T09:38:30+02:00</time>
      </trkpt>
      <trkpt lat="44.3568" lon="4.8615">
        <ele>125.299805</ele>
        <time>2022-04-14T09:38:35+02:00</time>
      </trkpt>
      <trkpt lat="44.35699" lon="4.86153">
        <ele>125.700195</ele>
        <time>2022-04-14T09:38:40+02:00</time>
      </trkpt>
      <trkpt lat="44.35714" lon="4.86155">
        <ele>126.90039</ele>
        <time>2022-04-14T09:38:45+02:00</time>
      </trkpt>
      <trkpt lat="44.35726" lon="4.86156">
        <ele>127.600586</ele>
        <time>2022-04-14T09:38:50+02:00</time>
      </trkpt>
      <trkpt lat="44.35737" lon="4.8616">
        <ele>128.2002</ele>
        <time>2022-04-14T09:38:55+02:00</time>
      </trkpt>
      <trkpt lat="44.35748" lon="4.86167">
        <ele>125.90039</ele>
        <time>2022-04-14T09:39:00+02:00</time>
      </trkpt>
      <trkpt lat="44.3576" lon="4.86174">
        <ele>126.299805</ele>
        <time>2022-04-14T09:39:05+02:00</time>
      </trkpt>
      <trkpt lat="44.35767" lon="4.8619">
        <ele>124.700195</ele>
        <time>2022-04-14T09:39:10+02:00</time>
      </trkpt>
      <trkpt lat="44.35762" lon="4.86233">
        <ele>121.299805</ele>
        <time>2022-04-14T09:39:15+02:00</time>
      </trkpt>
      <trkpt lat="44.35755" lon="4.86281">
        <ele>120.700195</ele>
        <time>2022-04-14T09:39:20+02:00</time>
      </trkpt>
      <trkpt lat="44.35748" lon="4.86316">
        <ele>120.600586</ele>
        <time>2022-04-14T09:39:25+02:00</time>
      </trkpt>
      <trkpt lat="44.35739" lon="4.86364">
        <ele>120.600586</ele>
        <time>2022-04-14T09:39:30+02:00</time>
      </trkpt>
      <trkpt lat="44.35736" lon="4.864">
        <ele>120.600586</ele>
        <time>2022-04-14T09:39:35+02:00</time>
      </trkpt>
      <trkpt lat="44.35732" lon="4.86433">
        <ele>120.700195</ele>
        <time>2022-04-14T09:39:40+02:00</time>
      </trkpt>
      <trkpt lat="44.35727" lon="4.86463">
        <ele>120.700195</ele>
        <time>2022-04-14T09:39:45+02:00</time>
      </trkpt>
      <trkpt lat="44.35724" lon="4.86493">
        <ele>120.40039</ele>
        <time>2022-04-14T09:39:50+02:00</time>
      </trkpt>
      <trkpt lat="44.35719" lon="4.86525">
        <ele>120.100586</ele>
        <time>2022-04-14T09:39:55+02:00</time>
      </trkpt>
      <trkpt lat="44.35715" lon="4.86555">
        <ele>120</ele>
        <time>2022-04-14T09:40:00+02:00</time>
      </trkpt>
      <trkpt lat="44.35711" lon="4.86583">
        <ele>120.299805</ele>
        <time>2022-04-14T09:40:05+02:00</time>
      </trkpt>
      <trkpt lat="44.35705" lon="4.86605">
        <ele>121</ele>
        <time>2022-04-14T09:40:10+02:00</time>
      </trkpt>
      <trkpt lat="44.35698" lon="4.86626">
        <ele>123.5</ele>
        <time>2022-04-14T09:40:15+02:00</time>
      </trkpt>
      <trkpt lat="44.35692" lon="4.86652">
        <ele>124.5</ele>
        <time>2022-04-14T09:40:20+02:00</time>
      </trkpt>
      <trkpt lat="44.35688" lon="4.8668">
        <ele>126.5</ele>
        <time>2022-04-14T09:40:25+02:00</time>
      </trkpt>
      <trkpt lat="44.35689" lon="4.86705">
        <ele>127.299805</ele>
        <time>2022-04-14T09:40:30+02:00</time>
      </trkpt>
      <trkpt lat="44.3569" lon="4.86728">
        <ele>127.799805</ele>
        <time>2022-04-14T09:40:35+02:00</time>
      </trkpt>
      <trkpt lat="44.35692" lon="4.86747">
        <ele>128.7002</ele>
        <time>2022-04-14T09:40:40+02:00</time>
      </trkpt>
      <trkpt lat="44.35693" lon="4.86763">
        <ele>128.7002</ele>
        <time>2022-04-14T09:40:45+02:00</time>
      </trkpt>
      <trkpt lat="44.35688" lon="4.86768">
        <ele>129.2002</ele>
        <time>2022-04-14T09:40:50+02:00</time>
      </trkpt>
      <trkpt lat="44.35677" lon="4.86765">
        <ele>129.7002</ele>
        <time>2022-04-14T09:40:55+02:00</time>
      </trkpt>
      <trkpt lat="44.35663" lon="4.86765">
        <ele>130.5</ele>
        <time>2022-04-14T09:41:00+02:00</time>
      </trkpt>
      <trkpt lat="44.35649" lon="4.8677">
        <ele>131.90039</ele>
        <time>2022-04-14T09:41:05+02:00</time>
      </trkpt>
      <trkpt lat="44.35636" lon="4.86773">
        <ele>132.5</ele>
        <time>2022-04-14T09:41:10+02:00</time>
      </trkpt>
      <trkpt lat="44.35621" lon="4.86779">
        <ele>133</ele>
        <time>2022-04-14T09:41:15+02:00</time>
      </trkpt>
      <trkpt lat="44.35607" lon="4.86788">
        <ele>133.7998</ele>
        <time>2022-04-14T09:41:20+02:00</time>
      </trkpt>
      <trkpt lat="44.35593" lon="4.86799">
        <ele>134.10059</ele>
        <time>2022-04-14T09:41:25+02:00</time>
      </trkpt>
      <trkpt lat="44.35579" lon="4.86802">
        <ele>134.2002</ele>
        <time>2022-04-14T09:41:30+02:00</time>
      </trkpt>
      <trkpt lat="44.35563" lon="4.868">
        <ele>134.10059</ele>
        <time>2022-04-14T09:41:35+02:00</time>
      </trkpt>
      <trkpt lat="44.35552" lon="4.86816">
        <ele>134.10059</ele>
        <time>2022-04-14T09:41:40+02:00</time>
      </trkpt>
      <trkpt lat="44.35543" lon="4.86841">
        <ele>134.5</ele>
        <time>2022-04-14T09:41:45+02:00</time>
      </trkpt>
      <trkpt lat="44.35533" lon="4.86865">
        <ele>135</ele>
        <time>2022-04-14T09:41:50+02:00</time>
      </trkpt>
      <trkpt lat="44.35525" lon="4.8689">
        <ele>136.40039</ele>
        <time>2022-04-14T09:41:55+02:00</time>
      </trkpt>
      <trkpt lat="44.35516" lon="4.86913">
        <ele>136.90039</ele>
        <time>2022-04-14T09:42:00+02:00</time>
      </trkpt>
      <trkpt lat="44.3551" lon="4.86929">
        <ele>137.60059</ele>
        <time>2022-04-14T09:42:05+02:00</time>
      </trkpt>
      <trkpt lat="44.35513" lon="4.86935">
        <ele>137.90039</ele>
        <time>2022-04-14T09:42:10+02:00</time>
      </trkpt>
      <trkpt lat="44.35521" lon="4.86942">
        <ele>137.7002</ele>
        <time>2022-04-14T09:42:15+02:00</time>
      </trkpt>
      <trkpt lat="44.35533" lon="4.86953">
        <ele>138</ele>
        <time>2022-04-14T09:42:20+02:00</time>
      </trkpt>
      <trkpt lat="44.35546" lon="4.86962">
        <ele>137.7998</ele>
        <time>2022-04-14T09:42:25+02:00</time>
      </trkpt>
      <trkpt lat="44.35558" lon="4.86972">
        <ele>138.10059</ele>
        <time>2022-04-14T09:42:30+02:00</time>
      </trkpt>
      <trkpt lat="44.35571" lon="4.8698">
        <ele>138</ele>
        <time>2022-04-14T09:42:35+02:00</time>
      </trkpt>
      <trkpt lat="44.35581" lon="4.8699">
        <ele>138</ele>
        <time>2022-04-14T09:42:40+02:00</time>
      </trkpt>
      <trkpt lat="44.35589" lon="4.87006">
        <ele>137.7998</ele>
        <time>2022-04-14T09:42:45+02:00</time>
      </trkpt>
      <trkpt lat="44.35592" lon="4.87023">
        <ele>137.2998</ele>
        <time>2022-04-14T09:42:50+02:00</time>
      </trkpt>
      <trkpt lat="44.35594" lon="4.87043">
        <ele>136.60059</ele>
        <time>2022-04-14T09:42:55+02:00</time>
      </trkpt>
      <trkpt lat="44.35596" lon="4.87065">
        <ele>135.60059</ele>
        <time>2022-04-14T09:43:00+02:00</time>
      </trkpt>
      <trkpt lat="44.35603" lon="4.87083">
        <ele>134.7998</ele>
        <time>2022-04-14T09:43:05+02:00</time>
      </trkpt>
      <trkpt lat="44.35609" lon="4.87084">
        <ele>134.7998</ele>
        <time>2022-04-14T09:43:10+02:00</time>
      </trkpt>
      <trkpt lat="44.35619" lon="4.87075">
        <ele>134.90039</ele>
        <time>2022-04-14T09:43:15+02:00</time>
      </trkpt>
      <trkpt lat="44.35633" lon="4.87063">
        <ele>135.60059</ele>
        <time>2022-04-14T09:43:20+02:00</time>
      </trkpt>
      <trkpt lat="44.35646" lon="4.87051">
        <ele>136.2002</ele>
        <time>2022-04-14T09:43:25+02:00</time>
      </trkpt>
      <trkpt lat="44.35659" lon="4.87034">
        <ele>136.40039</ele>
        <time>2022-04-14T09:43:30+02:00</time>
      </trkpt>
      <trkpt lat="44.35673" lon="4.87014">
        <ele>136.5</ele>
        <time>2022-04-14T09:43:35+02:00</time>
      </trkpt>
      <trkpt lat="44.35687" lon="4.86997">
        <ele>136.2998</ele>
        <time>2022-04-14T09:43:40+02:00</time>
      </trkpt>
      <trkpt lat="44.357" lon="4.86984">
        <ele>135.90039</ele>
        <time>2022-04-14T09:43:45+02:00</time>
      </trkpt>
      <trkpt lat="44.35716" lon="4.86975">
        <ele>135.10059</ele>
        <time>2022-04-14T09:43:50+02:00</time>
      </trkpt>
      <trkpt lat="44.35731" lon="4.86966">
        <ele>134.60059</ele>
        <time>2022-04-14T09:43:55+02:00</time>
      </trkpt>
      <trkpt lat="44.35749" lon="4.86953">
        <ele>134</ele>
        <time>2022-04-14T09:44:00+02:00</time>
      </trkpt>
      <trkpt lat="44.3577" lon="4.86938">
        <ele>133.5</ele>
        <time>2022-04-14T09:44:05+02:00</time>
      </trkpt>
      <trkpt lat="44.35789" lon="4.86925">
        <ele>132.7002</ele>
        <time>2022-04-14T09:44:10+02:00</time>
      </trkpt>
      <trkpt lat="44.35806" lon="4.86914">
        <ele>132.10059</ele>
        <time>2022-04-14T09:44:15+02:00</time>
      </trkpt>
      <trkpt lat="44.35824" lon="4.86904">
        <ele>131.7998</ele>
        <time>2022-04-14T09:44:20+02:00</time>
      </trkpt>
      <trkpt lat="44.35844" lon="4.86894">
        <ele>131.5</ele>
        <time>2022-04-14T09:44:25+02:00</time>
      </trkpt>
      <trkpt lat="44.35862" lon="4.86888">
        <ele>132.10059</ele>
        <time>2022-04-14T09:44:30+02:00</time>
      </trkpt>
      <trkpt lat="44.35883" lon="4.86877">
        <ele>131.90039</ele>
        <time>2022-04-14T09:44:35+02:00</time>
      </trkpt>
      <trkpt lat="44.35906" lon="4.86867">
        <ele>132.5</ele>
        <time>2022-04-14T09:44:40+02:00</time>
      </trkpt>
      <trkpt lat="44.35935" lon="4.86852">
        <ele>132.10059</ele>
        <time>2022-04-14T09:44:45+02:00</time>
      </trkpt>
      <trkpt lat="44.35969" lon="4.86836">
        <ele>130.7002</ele>
        <time>2022-04-14T09:44:50+02:00</time>
      </trkpt>
      <trkpt lat="44.35988" lon="4.86826">
        <ele>128.90039</ele>
        <time>2022-04-14T09:44:55+02:00</time>
      </trkpt>
      <trkpt lat="44.35997" lon="4.86822">
        <ele>128.90039</ele>
        <time>2022-04-14T09:45:00+02:00</time>
      </trkpt>
      <trkpt lat="44.36005" lon="4.8681">
        <ele>127.299805</ele>
        <time>2022-04-14T09:45:05+02:00</time>
      </trkpt>
      <trkpt lat="44.36013" lon="4.86792">
        <ele>125.700195</ele>
        <time>2022-04-14T09:45:10+02:00</time>
      </trkpt>
      <trkpt lat="44.36019" lon="4.8677">
        <ele>124.700195</ele>
        <time>2022-04-14T09:45:15+02:00</time>
      </trkpt>
      <trkpt lat="44.36025" lon="4.86747">
        <ele>124.200195</ele>
        <time>2022-04-14T09:45:20+02:00</time>
      </trkpt>
      <trkpt lat="44.36031" lon="4.86723">
        <ele>124.5</ele>
        <time>2022-04-14T09:45:25+02:00</time>
      </trkpt>
      <trkpt lat="44.36037" lon="4.867">
        <ele>124.600586</ele>
        <time>2022-04-14T09:45:30+02:00</time>
      </trkpt>
      <trkpt lat="44.36043" lon="4.86677">
        <ele>124.5</ele>
        <time>2022-04-14T09:45:35+02:00</time>
      </trkpt>
      <trkpt lat="44.36049" lon="4.86657">
        <ele>124.200195</ele>
        <time>2022-04-14T09:45:40+02:00</time>
      </trkpt>
      <trkpt lat="44.36055" lon="4.86637">
        <ele>123.90039</ele>
        <time>2022-04-14T09:45:45+02:00</time>
      </trkpt>
      <trkpt lat="44.36062" lon="4.86616">
        <ele>123.700195</ele>
        <time>2022-04-14T09:45:50+02:00</time>
      </trkpt>
      <trkpt lat="44.36069" lon="4.86595">
        <ele>123.600586</ele>
        <time>2022-04-14T09:45:55+02:00</time>
      </trkpt>
      <trkpt lat="44.36073" lon="4.86594">
        <ele>123.600586</ele>
        <time>2022-04-14T09:46:00+02:00</time>
      </trkpt>
      <trkpt lat="44.36083" lon="4.866">
        <ele>123.700195</ele>
        <time>2022-04-14T09:46:05+02:00</time>
      </trkpt>
      <trkpt lat="44.36099" lon="4.86609">
        <ele>124.200195</ele>
        <time>2022-04-14T09:46:10+02:00</time>
      </trkpt>
      <trkpt lat="44.36113" lon="4.86617">
        <ele>124.40039</ele>
        <time>2022-04-14T09:46:15+02:00</time>
      </trkpt>
      <trkpt lat="44.36114" lon="4.86616">
        <ele>124.40039</ele>
        <time>2022-04-14T09:46:20+02:00</time>
      </trkpt>
      <trkpt lat="44.36117" lon="4.86619">
        <ele>124.40039</ele>
        <time>2022-04-14T09:46:25+02:00</time>
      </trkpt>
      <trkpt lat="44.3613" lon="4.86627">
        <ele>125.40039</ele>
        <time>2022-04-14T09:46:30+02:00</time>
      </trkpt>
      <trkpt lat="44.36147" lon="4.86636">
        <ele>125.90039</ele>
        <time>2022-04-14T09:46:35+02:00</time>
      </trkpt>
      <trkpt lat="44.36164" lon="4.86645">
        <ele>126.299805</ele>
        <time>2022-04-14T09:46:40+02:00</time>
      </trkpt>
      <trkpt lat="44.3618" lon="4.86654">
        <ele>127.200195</ele>
        <time>2022-04-14T09:46:45+02:00</time>
      </trkpt>
      <trkpt lat="44.36198" lon="4.86664">
        <ele>127.40039</ele>
        <time>2022-04-14T09:46:50+02:00</time>
      </trkpt>
      <trkpt lat="44.36216" lon="4.86674">
        <ele>128.2998</ele>
        <time>2022-04-14T09:46:55+02:00</time>
      </trkpt>
      <trkpt lat="44.36229" lon="4.86683">
        <ele>128.7002</ele>
        <time>2022-04-14T09:47:00+02:00</time>
      </trkpt>
      <trkpt lat="44.36242" lon="4.86678">
        <ele>129.10059</ele>
        <time>2022-04-14T09:47:05+02:00</time>
      </trkpt>
      <trkpt lat="44.36253" lon="4.8666">
        <ele>129.90039</ele>
        <time>2022-04-14T09:47:10+02:00</time>
      </trkpt>
      <trkpt lat="44.36256" lon="4.86643">
        <ele>130.2002</ele>
        <time>2022-04-14T09:47:15+02:00</time>
      </trkpt>
      <trkpt lat="44.36258" lon="4.86637">
        <ele>130.2002</ele>
        <time>2022-04-14T09:47:20+02:00</time>
      </trkpt>
      <trkpt lat="44.36257" lon="4.86622">
        <ele>130.40039</ele>
        <time>2022-04-14T09:47:25+02:00</time>
      </trkpt>
      <trkpt lat="44.36252" lon="4.86598">
        <ele>130.7002</ele>
        <time>2022-04-14T09:47:30+02:00</time>
      </trkpt>
      <trkpt lat="44.36245" lon="4.86571">
        <ele>130.5</ele>
        <time>2022-04-14T09:47:35+02:00</time>
      </trkpt>
      <trkpt lat="44.36238" lon="4.86543">
        <ele>129.90039</ele>
        <time>2022-04-14T09:47:40+02:00</time>
      </trkpt>
      <trkpt lat="44.36232" lon="4.86517">
        <ele>130.10059</ele>
        <time>2022-04-14T09:47:45+02:00</time>
      </trkpt>
      <trkpt lat="44.36228" lon="4.86497">
        <ele>130.5</ele>
        <time>2022-04-14T09:47:50+02:00</time>
      </trkpt>
      <trkpt lat="44.36237" lon="4.86496">
        <ele>131.60059</ele>
        <time>2022-04-14T09:47:55+02:00</time>
      </trkpt>
      <trkpt lat="44.3625" lon="4.86501">
        <ele>132.60059</ele>
        <time>2022-04-14T09:48:00+02:00</time>
      </trkpt>
      <trkpt lat="44.36265" lon="4.86509">
        <ele>133.7998</ele>
        <time>2022-04-14T09:48:05+02:00</time>
      </trkpt>
      <trkpt lat="44.3628" lon="4.86517">
        <ele>134.2002</ele>
        <time>2022-04-14T09:48:10+02:00</time>
      </trkpt>
      <trkpt lat="44.36295" lon="4.86526">
        <ele>134.7002</ele>
        <time>2022-04-14T09:48:15+02:00</time>
      </trkpt>
      <trkpt lat="44.36308" lon="4.86536">
        <ele>135.90039</ele>
        <time>2022-04-14T09:48:20+02:00</time>
      </trkpt>
      <trkpt lat="44.3632" lon="4.86545">
        <ele>136.60059</ele>
        <time>2022-04-14T09:48:25+02:00</time>
      </trkpt>
      <trkpt lat="44.3633" lon="4.86555">
        <ele>136.7002</ele>
        <time>2022-04-14T09:48:30+02:00</time>
      </trkpt>
      <trkpt lat="44.36344" lon="4.86563">
        <ele>137.2002</ele>
        <time>2022-04-14T09:48:35+02:00</time>
      </trkpt>
      <trkpt lat="44.36359" lon="4.86572">
        <ele>137.7998</ele>
        <time>2022-04-14T09:48:40+02:00</time>
      </trkpt>
      <trkpt lat="44.36372" lon="4.86581">
        <ele>138.10059</ele>
        <time>2022-04-14T09:48:45+02:00</time>
      </trkpt>
      <trkpt lat="44.36386" lon="4.86586">
        <ele>138.40039</ele>
        <time>2022-04-14T09:48:50+02:00</time>
      </trkpt>
      <trkpt lat="44.36398" lon="4.86597">
        <ele>138.60059</ele>
        <time>2022-04-14T09:48:55+02:00</time>
      </trkpt>
      <trkpt lat="44.36414" lon="4.86608">
        <ele>138.7998</ele>
        <time>2022-04-14T09:49:00+02:00</time>
      </trkpt>
      <trkpt lat="44.36429" lon="4.86619">
        <ele>138.7998</ele>
        <time>2022-04-14T09:49:05+02:00</time>
      </trkpt>
      <trkpt lat="44.36444" lon="4.86631">
        <ele>139.10059</ele>
        <time>2022-04-14T09:49:10+02:00</time>
      </trkpt>
      <trkpt lat="44.3646" lon="4.86642">
        <ele>139.2002</ele>
        <time>2022-04-14T09:49:15+02:00</time>
      </trkpt>
      <trkpt lat="44.36479" lon="4.86651">
        <ele>140</ele>
        <time>2022-04-14T09:49:20+02:00</time>
      </trkpt>
      <trkpt lat="44.36496" lon="4.86658">
        <ele>140.5</ele>
        <time>2022-04-14T09:49:25+02:00</time>
      </trkpt>
      <trkpt lat="44.36514" lon="4.86662">
        <ele>141.5</ele>
        <time>2022-04-14T09:49:30+02:00</time>
      </trkpt>
      <trkpt lat="44.36535" lon="4.86665">
        <ele>143.40039</ele>
        <time>2022-04-14T09:49:35+02:00</time>
      </trkpt>
      <trkpt lat="44.36551" lon="4.8667">
        <ele>144.2998</ele>
        <time>2022-04-14T09:49:40+02:00</time>
      </trkpt>
      <trkpt lat="44.36567" lon="4.86684">
        <ele>145.2998</ele>
        <time>2022-04-14T09:49:45+02:00</time>
      </trkpt>
      <trkpt lat="44.36578" lon="4.86696">
        <ele>145.7002</ele>
        <time>2022-04-14T09:49:50+02:00</time>
      </trkpt>
      <trkpt lat="44.366" lon="4.867">
        <ele>146.40039</ele>
        <time>2022-04-14T09:49:55+02:00</time>
      </trkpt>
      <trkpt lat="44.36617" lon="4.86697">
        <ele>147</ele>
        <time>2022-04-14T09:50:00+02:00</time>
      </trkpt>
      <trkpt lat="44.36634" lon="4.86701">
        <ele>147.60059</ele>
        <time>2022-04-14T09:50:05+02:00</time>
      </trkpt>
      <trkpt lat="44.36648" lon="4.86707">
        <ele>148</ele>
        <time>2022-04-14T09:50:10+02:00</time>
      </trkpt>
      <trkpt lat="44.36658" lon="4.86713">
        <ele>148.5</ele>
        <time>2022-04-14T09:50:15+02:00</time>
      </trkpt>
      <trkpt lat="44.36671" lon="4.86716">
        <ele>149</ele>
        <time>2022-04-14T09:50:20+02:00</time>
      </trkpt>
      <trkpt lat="44.36685" lon="4.86723">
        <ele>149.5</ele>
        <time>2022-04-14T09:50:25+02:00</time>
      </trkpt>
      <trkpt lat="44.36698" lon="4.86731">
        <ele>149.90039</ele>
        <time>2022-04-14T09:50:30+02:00</time>
      </trkpt>
      <trkpt lat="44.36711" lon="4.86737">
        <ele>150.2998</ele>
        <time>2022-04-14T09:50:35+02:00</time>
      </trkpt>
      <trkpt lat="44.36725" lon="4.86743">
        <ele>150.90039</ele>
        <time>2022-04-14T09:50:40+02:00</time>
      </trkpt>
      <trkpt lat="44.36735" lon="4.8675">
        <ele>150.90039</ele>
        <time>2022-04-14T09:50:45+02:00</time>
      </trkpt>
      <trkpt lat="44.36745" lon="4.86758">
        <ele>151.10059</ele>
        <time>2022-04-14T09:50:50+02:00</time>
      </trkpt>
      <trkpt lat="44.36761" lon="4.86765">
        <ele>151.40039</ele>
        <time>2022-04-14T09:50:55+02:00</time>
      </trkpt>
      <trkpt lat="44.3678" lon="4.86771">
        <ele>152</ele>
        <time>2022-04-14T09:51:00+02:00</time>
      </trkpt>
      <trkpt lat="44.368" lon="4.86777">
        <ele>152.40039</ele>
        <time>2022-04-14T09:51:05+02:00</time>
      </trkpt>
      <trkpt lat="44.36819" lon="4.86782">
        <ele>152.7998</ele>
        <time>2022-04-14T09:51:10+02:00</time>
      </trkpt>
      <trkpt lat="44.36838" lon="4.86788">
        <ele>153.2002</ele>
        <time>2022-04-14T09:51:15+02:00</time>
      </trkpt>
      <trkpt lat="44.36854" lon="4.86791">
        <ele>153.60059</ele>
        <time>2022-04-14T09:51:20+02:00</time>
      </trkpt>
      <trkpt lat="44.36862" lon="4.86795">
        <ele>153.7002</ele>
        <time>2022-04-14T09:51:25+02:00</time>
      </trkpt>
      <trkpt lat="44.36863" lon="4.86796">
        <ele>153.7002</ele>
        <time>2022-04-14T09:51:30+02:00</time>
      </trkpt>
      <trkpt lat="44.36863" lon="4.86797">
        <ele>153.7002</ele>
        <time>2022-04-14T09:51:35+02:00</time>
      </trkpt>
      <trkpt lat="44.36864" lon="4.86797">
        <ele>153.7002</ele>
        <time>2022-04-14T09:51:40+02:00</time>
      </trkpt>
      <trkpt lat="44.36864" lon="4.86809">
        <ele>153.90039</ele>
        <time>2022-04-14T09:51:45+02:00</time>
      </trkpt>
      <trkpt lat="44.36864" lon="4.86829">
        <ele>154.2002</ele>
        <time>2022-04-14T09:51:50+02:00</time>
      </trkpt>
      <trkpt lat="44.36864" lon="4.86853">
        <ele>154.40039</ele>
        <time>2022-04-14T09:51:55+02:00</time>
      </trkpt>
      <trkpt lat="44.36863" lon="4.86877">
        <ele>154.5</ele>
        <time>2022-04-14T09:52:00+02:00</time>
      </trkpt>
      <trkpt lat="44.36861" lon="4.86903">
        <ele>154.7002</ele>
        <time>2022-04-14T09:52:05+02:00</time>
      </trkpt>
      <trkpt lat="44.36859" lon="4.86929">
        <ele>155.10059</ele>
        <time>2022-04-14T09:52:10+02:00</time>
      </trkpt>
      <trkpt lat="44.36857" lon="4.86956">
        <ele>155.60059</ele>
        <time>2022-04-14T09:52:15+02:00</time>
      </trkpt>
      <trkpt lat="44.36855" lon="4.86982">
        <ele>156.2002</ele>
        <time>2022-04-14T09:52:20+02:00</time>
      </trkpt>
      <trkpt lat="44.36855" lon="4.87008">
        <ele>156.7002</ele>
        <time>2022-04-14T09:52:25+02:00</time>
      </trkpt>
      <trkpt lat="44.36854" lon="4.87033">
        <ele>156.7998</ele>
        <time>2022-04-14T09:52:30+02:00</time>
      </trkpt>
      <trkpt lat="44.36853" lon="4.87058">
        <ele>157.10059</ele>
        <time>2022-04-14T09:52:35+02:00</time>
      </trkpt>
      <trkpt lat="44.36851" lon="4.87084">
        <ele>157.2998</ele>
        <time>2022-04-14T09:52:40+02:00</time>
      </trkpt>
      <trkpt lat="44.36849" lon="4.8711">
        <ele>157.60059</ele>
        <time>2022-04-14T09:52:45+02:00</time>
      </trkpt>
      <trkpt lat="44.36846" lon="4.87136">
        <ele>158.2002</ele>
        <time>2022-04-14T09:52:50+02:00</time>
      </trkpt>
      <trkpt lat="44.36844" lon="4.87162">
        <ele>158.5</ele>
        <time>2022-04-14T09:52:55+02:00</time>
      </trkpt>
      <trkpt lat="44.36843" lon="4.8719">
        <ele>158.5</ele>
        <time>2022-04-14T09:53:00+02:00</time>
      </trkpt>
      <trkpt lat="44.3684" lon="4.87217">
        <ele>158.40039</ele>
        <time>2022-04-14T09:53:05+02:00</time>
      </trkpt>
      <trkpt lat="44.36838" lon="4.87243">
        <ele>158.2002</ele>
        <time>2022-04-14T09:53:10+02:00</time>
      </trkpt>
      <trkpt lat="44.36835" lon="4.87263">
        <ele>158.10059</ele>
        <time>2022-04-14T09:53:15+02:00</time>
      </trkpt>
      <trkpt lat="44.3683" lon="4.87286">
        <ele>158.10059</ele>
        <time>2022-04-14T09:53:20+02:00</time>
      </trkpt>
      <trkpt lat="44.3683" lon="4.87293">
        <ele>158</ele>
        <time>2022-04-14T09:53:25+02:00</time>
      </trkpt>
      <trkpt lat="44.36832" lon="4.87304">
        <ele>158</ele>
        <time>2022-04-14T09:53:30+02:00</time>
      </trkpt>
      <trkpt lat="44.36836" lon="4.87314">
        <ele>158</ele>
        <time>2022-04-14T09:53:35+02:00</time>
      </trkpt>
      <trkpt lat="44.36838" lon="4.87321">
        <ele>158</ele>
        <time>2022-04-14T09:53:40+02:00</time>
      </trkpt>
      <trkpt lat="44.36837" lon="4.8732">
        <ele>158</ele>
        <time>2022-04-14T09:53:45+02:00</time>
      </trkpt>
      <trkpt lat="44.36841" lon="4.87319">
        <ele>157.90039</ele>
        <time>2022-04-14T09:53:50+02:00</time>
      </trkpt>
      <trkpt lat="44.36843" lon="4.8732">
        <ele>157.90039</ele>
        <time>2022-04-14T09:53:55+02:00</time>
      </trkpt>
      <trkpt lat="44.36853" lon="4.87328">
        <ele>157.7998</ele>
        <time>2022-04-14T09:54:00+02:00</time>
      </trkpt>
      <trkpt lat="44.36855" lon="4.8733">
        <ele>157.7998</ele>
        <time>2022-04-14T09:54:05+02:00</time>
      </trkpt>
      <trkpt lat="44.36847" lon="4.87324">
        <ele>157.90039</ele>
        <time>2022-04-14T09:54:10+02:00</time>
      </trkpt>
      <trkpt lat="44.36837" lon="4.87325">
        <ele>158</ele>
        <time>2022-04-14T09:54:15+02:00</time>
      </trkpt>
      <trkpt lat="44.36836" lon="4.8734">
        <ele>158</ele>
        <time>2022-04-14T09:54:20+02:00</time>
      </trkpt>
      <trkpt lat="44.36833" lon="4.87357">
        <ele>158.10059</ele>
        <time>2022-04-14T09:54:25+02:00</time>
      </trkpt>
      <trkpt lat="44.36829" lon="4.87376">
        <ele>158.2002</ele>
        <time>2022-04-14T09:54:30+02:00</time>
      </trkpt>
      <trkpt lat="44.36827" lon="4.87394">
        <ele>158.2002</ele>
        <time>2022-04-14T09:54:35+02:00</time>
      </trkpt>
      <trkpt lat="44.36824" lon="4.87415">
        <ele>158.2998</ele>
        <time>2022-04-14T09:54:40+02:00</time>
      </trkpt>
      <trkpt lat="44.36821" lon="4.87438">
        <ele>158.2998</ele>
        <time>2022-04-14T09:54:45+02:00</time>
      </trkpt>
      <trkpt lat="44.36818" lon="4.87462">
        <ele>158.2998</ele>
        <time>2022-04-14T09:54:50+02:00</time>
      </trkpt>
      <trkpt lat="44.36815" lon="4.87482">
        <ele>158.2002</ele>
        <time>2022-04-14T09:54:55+02:00</time>
      </trkpt>
      <trkpt lat="44.3681" lon="4.87506">
        <ele>157.90039</ele>
        <time>2022-04-14T09:55:00+02:00</time>
      </trkpt>
      <trkpt lat="44.36805" lon="4.87535">
        <ele>157.60059</ele>
        <time>2022-04-14T09:55:05+02:00</time>
      </trkpt>
      <trkpt lat="44.36803" lon="4.87559">
        <ele>156.90039</ele>
        <time>2022-04-14T09:55:10+02:00</time>
      </trkpt>
      <trkpt lat="44.368" lon="4.87579">
        <ele>156</ele>
        <time>2022-04-14T09:55:15+02:00</time>
      </trkpt>
      <trkpt lat="44.36784" lon="4.87587">
        <ele>155.60059</ele>
        <time>2022-04-14T09:55:20+02:00</time>
      </trkpt>
      <trkpt lat="44.36769" lon="4.87608">
        <ele>154.2002</ele>
        <time>2022-04-14T09:55:25+02:00</time>
      </trkpt>
      <trkpt lat="44.36756" lon="4.87634">
        <ele>152.90039</ele>
        <time>2022-04-14T09:55:30+02:00</time>
      </trkpt>
      <trkpt lat="44.36746" lon="4.87655">
        <ele>151.7998</ele>
        <time>2022-04-14T09:55:35+02:00</time>
      </trkpt>
      <trkpt lat="44.36739" lon="4.87672">
        <ele>150.90039</ele>
        <time>2022-04-14T09:55:40+02:00</time>
      </trkpt>
      <trkpt lat="44.36722" lon="4.87704">
        <ele>148.7998</ele>
        <time>2022-04-14T09:55:45+02:00</time>
      </trkpt>
      <trkpt lat="44.36714" lon="4.8772">
        <ele>148.10059</ele>
        <time>2022-04-14T09:55:51+02:00</time>
      </trkpt>
      <trkpt lat="44.36704" lon="4.8774">
        <ele>147.40039</ele>
        <time>2022-04-14T09:55:56+02:00</time>
      </trkpt>
      <trkpt lat="44.36694" lon="4.87761">
        <ele>147</ele>
        <time>2022-04-14T09:56:01+02:00</time>
      </trkpt>
      <trkpt lat="44.36684" lon="4.87784">
        <ele>146.7998</ele>
        <time>2022-04-14T09:56:06+02:00</time>
      </trkpt>
      <trkpt lat="44.36673" lon="4.87809">
        <ele>146.60059</ele>
        <time>2022-04-14T09:56:11+02:00</time>
      </trkpt>
      <trkpt lat="44.36659" lon="4.87835">
        <ele>146.2002</ele>
        <time>2022-04-14T09:56:16+02:00</time>
      </trkpt>
      <trkpt lat="44.36647" lon="4.87858">
        <ele>145.7002</ele>
        <time>2022-04-14T09:56:21+02:00</time>
      </trkpt>
      <trkpt lat="44.36637" lon="4.87879">
        <ele>145.2002</ele>
        <time>2022-04-14T09:56:26+02:00</time>
      </trkpt>
      <trkpt lat="44.36632" lon="4.87892">
        <ele>145.10059</ele>
        <time>2022-04-14T09:56:31+02:00</time>
      </trkpt>
      <trkpt lat="44.36633" lon="4.87901">
        <ele>145</ele>
        <time>2022-04-14T09:56:36+02:00</time>
      </trkpt>
      <trkpt lat="44.36642" lon="4.8791">
        <ele>144.7002</ele>
        <time>2022-04-14T09:56:41+02:00</time>
      </trkpt>
      <trkpt lat="44.36644" lon="4.87928">
        <ele>144.2998</ele>
        <time>2022-04-14T09:56:46+02:00</time>
      </trkpt>
      <trkpt lat="44.36639" lon="4.8795">
        <ele>143.60059</ele>
        <time>2022-04-14T09:56:51+02:00</time>
      </trkpt>
      <trkpt lat="44.36636" lon="4.87968">
        <ele>143</ele>
        <time>2022-04-14T09:56:56+02:00</time>
      </trkpt>
      <trkpt lat="44.3663" lon="4.87997">
        <ele>142.10059</ele>
        <time>2022-04-14T09:57:01+02:00</time>
      </trkpt>
      <trkpt lat="44.36625" lon="4.88019">
        <ele>141.2002</ele>
        <time>2022-04-14T09:57:06+02:00</time>
      </trkpt>
      <trkpt lat="44.36624" lon="4.88027">
        <ele>140.90039</ele>
        <time>2022-04-14T09:57:11+02:00</time>
      </trkpt>
      <trkpt lat="44.36627" lon="4.88031">
        <ele>140.90039</ele>
        <time>2022-04-14T09:57:17+02:00</time>
      </trkpt>
      <trkpt lat="44.36638" lon="4.88034">
        <ele>140.5</ele>
        <time>2022-04-14T09:57:23+02:00</time>
      </trkpt>
      <trkpt lat="44.36653" lon="4.88037">
        <ele>140.60059</ele>
        <time>2022-04-14T09:57:28+02:00</time>
      </trkpt>
      <trkpt lat="44.36671" lon="4.88042">
        <ele>140.7998</ele>
        <time>2022-04-14T09:57:33+02:00</time>
      </trkpt>
      <trkpt lat="44.36693" lon="4.88045">
        <ele>140.90039</ele>
        <time>2022-04-14T09:57:38+02:00</time>
      </trkpt>
      <trkpt lat="44.36711" lon="4.88048">
        <ele>141.5</ele>
        <time>2022-04-14T09:57:44+02:00</time>
      </trkpt>
      <trkpt lat="44.36729" lon="4.88051">
        <ele>141.90039</ele>
        <time>2022-04-14T09:57:49+02:00</time>
      </trkpt>
      <trkpt lat="44.36748" lon="4.88054">
        <ele>142.40039</ele>
        <time>2022-04-14T09:57:54+02:00</time>
      </trkpt>
      <trkpt lat="44.36766" lon="4.88057">
        <ele>142.90039</ele>
        <time>2022-04-14T09:58:00+02:00</time>
      </trkpt>
      <trkpt lat="44.36784" lon="4.88059">
        <ele>143.2002</ele>
        <time>2022-04-14T09:58:05+02:00</time>
      </trkpt>
      <trkpt lat="44.36801" lon="4.8806">
        <ele>143</ele>
        <time>2022-04-14T09:58:10+02:00</time>
      </trkpt>
      <trkpt lat="44.36819" lon="4.88061">
        <ele>143.40039</ele>
        <time>2022-04-14T09:58:15+02:00</time>
      </trkpt>
      <trkpt lat="44.36839" lon="4.88063">
        <ele>144.10059</ele>
        <time>2022-04-14T09:58:21+02:00</time>
      </trkpt>
      <trkpt lat="44.36857" lon="4.88065">
        <ele>144.90039</ele>
        <time>2022-04-14T09:58:26+02:00</time>
      </trkpt>
      <trkpt lat="44.36868" lon="4.88066">
        <ele>145.60059</ele>
        <time>2022-04-14T09:58:31+02:00</time>
      </trkpt>
      <trkpt lat="44.36874" lon="4.88066">
        <ele>146</ele>
        <time>2022-04-14T09:58:36+02:00</time>
      </trkpt>
      <trkpt lat="44.3688" lon="4.88049">
        <ele>148.2002</ele>
        <time>2022-04-14T09:58:41+02:00</time>
      </trkpt>
      <trkpt lat="44.36883" lon="4.88026">
        <ele>149.7998</ele>
        <time>2022-04-14T09:58:46+02:00</time>
      </trkpt>
      <trkpt lat="44.36885" lon="4.88015">
        <ele>151.60059</ele>
        <time>2022-04-14T09:58:51+02:00</time>
      </trkpt>
      <trkpt lat="44.36884" lon="4.88033">
        <ele>150.2998</ele>
        <time>2022-04-14T09:58:56+02:00</time>
      </trkpt>
      <trkpt lat="44.36883" lon="4.88055">
        <ele>147.2998</ele>
        <time>2022-04-14T09:59:01+02:00</time>
      </trkpt>
      <trkpt lat="44.3689" lon="4.88067">
        <ele>146.7002</ele>
        <time>2022-04-14T09:59:06+02:00</time>
      </trkpt>
      <trkpt lat="44.36901" lon="4.88071">
        <ele>146.5</ele>
        <time>2022-04-14T09:59:11+02:00</time>
      </trkpt>
      <trkpt lat="44.36915" lon="4.88078">
        <ele>147.2002</ele>
        <time>2022-04-14T09:59:16+02:00</time>
      </trkpt>
      <trkpt lat="44.36929" lon="4.88086">
        <ele>148.2998</ele>
        <time>2022-04-14T09:59:21+02:00</time>
      </trkpt>
      <trkpt lat="44.36939" lon="4.88093">
        <ele>149.90039</ele>
        <time>2022-04-14T09:59:26+02:00</time>
      </trkpt>
      <trkpt lat="44.36953" lon="4.88096">
        <ele>151.40039</ele>
        <time>2022-04-14T09:59:31+02:00</time>
      </trkpt>
      <trkpt lat="44.36968" lon="4.88098">
        <ele>152.60059</ele>
        <time>2022-04-14T09:59:36+02:00</time>
      </trkpt>
      <trkpt lat="44.36982" lon="4.88102">
        <ele>153.5</ele>
        <time>2022-04-14T09:59:41+02:00</time>
      </trkpt>
      <trkpt lat="44.36996" lon="4.88105">
        <ele>153.40039</ele>
        <time>2022-04-14T09:59:46+02:00</time>
      </trkpt>
      <trkpt lat="44.37008" lon="4.88108">
        <ele>153.10059</ele>
        <time>2022-04-14T09:59:51+02:00</time>
      </trkpt>
      <trkpt lat="44.37025" lon="4.8811">
        <ele>152.7998</ele>
        <time>2022-04-14T09:59:56+02:00</time>
      </trkpt>
      <trkpt lat="44.37036" lon="4.88112">
        <ele>151.2002</ele>
        <time>2022-04-14T10:00:01+02:00</time>
      </trkpt>
      <trkpt lat="44.37048" lon="4.88114">
        <ele>151</ele>
        <time>2022-04-14T10:00:06+02:00</time>
      </trkpt>
      <trkpt lat="44.37061" lon="4.88115">
        <ele>151</ele>
        <time>2022-04-14T10:00:11+02:00</time>
      </trkpt>
      <trkpt lat="44.37071" lon="4.88114">
        <ele>151.10059</ele>
        <time>2022-04-14T10:00:16+02:00</time>
      </trkpt>
      <trkpt lat="44.3708" lon="4.88115">
        <ele>151.2998</ele>
        <time>2022-04-14T10:00:21+02:00</time>
      </trkpt>
      <trkpt lat="44.37091" lon="4.88118">
        <ele>151.90039</ele>
        <time>2022-04-14T10:00:26+02:00</time>
      </trkpt>
      <trkpt lat="44.37099" lon="4.8812">
        <ele>151.5</ele>
        <time>2022-04-14T10:00:31+02:00</time>
      </trkpt>
      <trkpt lat="44.37111" lon="4.88124">
        <ele>152</ele>
        <time>2022-04-14T10:00:36+02:00</time>
      </trkpt>
      <trkpt lat="44.3712" lon="4.88126">
        <ele>153.10059</ele>
        <time>2022-04-14T10:00:41+02:00</time>
      </trkpt>
      <trkpt lat="44.37131" lon="4.88126">
        <ele>154.2998</ele>
        <time>2022-04-14T10:00:46+02:00</time>
      </trkpt>
      <trkpt lat="44.37141" lon="4.88126">
        <ele>155</ele>
        <time>2022-04-14T10:00:51+02:00</time>
      </trkpt>
      <trkpt lat="44.37139" lon="4.88128">
        <ele>153.7002</ele>
        <time>2022-04-14T10:00:56+02:00</time>
      </trkpt>
      <trkpt lat="44.37131" lon="4.8813">
        <ele>153</ele>
        <time>2022-04-14T10:01:01+02:00</time>
      </trkpt>
      <trkpt lat="44.37116" lon="4.88132">
        <ele>151.2002</ele>
        <time>2022-04-14T10:01:06+02:00</time>
      </trkpt>
      <trkpt lat="44.371" lon="4.88128">
        <ele>150.10059</ele>
        <time>2022-04-14T10:01:11+02:00</time>
      </trkpt>
      <trkpt lat="44.37088" lon="4.88126">
        <ele>150.5</ele>
        <time>2022-04-14T10:01:16+02:00</time>
      </trkpt>
      <trkpt lat="44.37084" lon="4.88124">
        <ele>150.10059</ele>
        <time>2022-04-14T10:01:21+02:00</time>
      </trkpt>
      <trkpt lat="44.37092" lon="4.88132">
        <ele>149.2998</ele>
        <time>2022-04-14T10:01:26+02:00</time>
      </trkpt>
      <trkpt lat="44.37103" lon="4.88139">
        <ele>148.90039</ele>
        <time>2022-04-14T10:01:31+02:00</time>
      </trkpt>
      <trkpt lat="44.37116" lon="4.88146">
        <ele>148.5</ele>
        <time>2022-04-14T10:01:36+02:00</time>
      </trkpt>
      <trkpt lat="44.37127" lon="4.88155">
        <ele>148.5</ele>
        <time>2022-04-14T10:01:41+02:00</time>
      </trkpt>
      <trkpt lat="44.37137" lon="4.88162">
        <ele>150.10059</ele>
        <time>2022-04-14T10:01:46+02:00</time>
      </trkpt>
      <trkpt lat="44.37149" lon="4.88158">
        <ele>151.7998</ele>
        <time>2022-04-14T10:01:51+02:00</time>
      </trkpt>
      <trkpt lat="44.37166" lon="4.88163">
        <ele>152.40039</ele>
        <time>2022-04-14T10:01:56+02:00</time>
      </trkpt>
      <trkpt lat="44.37183" lon="4.8817">
        <ele>154.7998</ele>
        <time>2022-04-14T10:02:01+02:00</time>
      </trkpt>
      <trkpt lat="44.37197" lon="4.88178">
        <ele>155</ele>
        <time>2022-04-14T10:02:06+02:00</time>
      </trkpt>
      <trkpt lat="44.37218" lon="4.88188">
        <ele>153</ele>
        <time>2022-04-14T10:02:11+02:00</time>
      </trkpt>
      <trkpt lat="44.37227" lon="4.88191">
        <ele>151.2998</ele>
        <time>2022-04-14T10:02:16+02:00</time>
      </trkpt>
      <trkpt lat="44.37235" lon="4.88193">
        <ele>151.60059</ele>
        <time>2022-04-14T10:02:21+02:00</time>
      </trkpt>
      <trkpt lat="44.37249" lon="4.88203">
        <ele>150.5</ele>
        <time>2022-04-14T10:02:26+02:00</time>
      </trkpt>
      <trkpt lat="44.37262" lon="4.88208">
        <ele>148.40039</ele>
        <time>2022-04-14T10:02:31+02:00</time>
      </trkpt>
      <trkpt lat="44.37275" lon="4.88222">
        <ele>146.2998</ele>
        <time>2022-04-14T10:02:36+02:00</time>
      </trkpt>
      <trkpt lat="44.37279" lon="4.88241">
        <ele>142.2002</ele>
        <time>2022-04-14T10:02:41+02:00</time>
      </trkpt>
      <trkpt lat="44.37288" lon="4.88257">
        <ele>140.10059</ele>
        <time>2022-04-14T10:02:46+02:00</time>
      </trkpt>
      <trkpt lat="44.37296" lon="4.88267">
        <ele>139.2998</ele>
        <time>2022-04-14T10:02:51+02:00</time>
      </trkpt>
      <trkpt lat="44.37308" lon="4.88277">
        <ele>138.90039</ele>
        <time>2022-04-14T10:02:56+02:00</time>
      </trkpt>
      <trkpt lat="44.37324" lon="4.88287">
        <ele>138.60059</ele>
        <time>2022-04-14T10:03:01+02:00</time>
      </trkpt>
      <trkpt lat="44.37339" lon="4.88295">
        <ele>138.60059</ele>
        <time>2022-04-14T10:03:06+02:00</time>
      </trkpt>
      <trkpt lat="44.37358" lon="4.883">
        <ele>138.2998</ele>
        <time>2022-04-14T10:03:11+02:00</time>
      </trkpt>
      <trkpt lat="44.37376" lon="4.88305">
        <ele>138.40039</ele>
        <time>2022-04-14T10:03:16+02:00</time>
      </trkpt>
      <trkpt lat="44.37389" lon="4.88309">
        <ele>137.7998</ele>
        <time>2022-04-14T10:03:21+02:00</time>
      </trkpt>
      <trkpt lat="44.37407" lon="4.8831">
        <ele>137.7002</ele>
        <time>2022-04-14T10:03:26+02:00</time>
      </trkpt>
      <trkpt lat="44.37427" lon="4.88309">
        <ele>137.7002</ele>
        <time>2022-04-14T10:03:31+02:00</time>
      </trkpt>
      <trkpt lat="44.37444" lon="4.88306">
        <ele>138</ele>
        <time>2022-04-14T10:03:36+02:00</time>
      </trkpt>
      <trkpt lat="44.37458" lon="4.88299">
        <ele>139</ele>
        <time>2022-04-14T10:03:41+02:00</time>
      </trkpt>
      <trkpt lat="44.37468" lon="4.88296">
        <ele>138.90039</ele>
        <time>2022-04-14T10:03:46+02:00</time>
      </trkpt>
      <trkpt lat="44.37475" lon="4.88296">
        <ele>138.90039</ele>
        <time>2022-04-14T10:03:51+02:00</time>
      </trkpt>
      <trkpt lat="44.37482" lon="4.88296">
        <ele>138.7998</ele>
        <time>2022-04-14T10:03:56+02:00</time>
      </trkpt>
      <trkpt lat="44.37493" lon="4.88301">
        <ele>137.7998</ele>
        <time>2022-04-14T10:04:01+02:00</time>
      </trkpt>
      <trkpt lat="44.37501" lon="4.88305">
        <ele>137.7998</ele>
        <time>2022-04-14T10:04:06+02:00</time>
      </trkpt>
      <trkpt lat="44.37513" lon="4.8831">
        <ele>137.40039</ele>
        <time>2022-04-14T10:04:11+02:00</time>
      </trkpt>
      <trkpt lat="44.37525" lon="4.8831">
        <ele>137.2998</ele>
        <time>2022-04-14T10:04:16+02:00</time>
      </trkpt>
      <trkpt lat="44.3754" lon="4.88311">
        <ele>137</ele>
        <time>2022-04-14T10:04:21+02:00</time>
      </trkpt>
      <trkpt lat="44.3755" lon="4.88311">
        <ele>137.5</ele>
        <time>2022-04-14T10:04:26+02:00</time>
      </trkpt>
      <trkpt lat="44.37561" lon="4.88313">
        <ele>138.90039</ele>
        <time>2022-04-14T10:04:31+02:00</time>
      </trkpt>
      <trkpt lat="44.37575" lon="4.88317">
        <ele>138.2002</ele>
        <time>2022-04-14T10:04:36+02:00</time>
      </trkpt>
      <trkpt lat="44.37585" lon="4.88321">
        <ele>138.10059</ele>
        <time>2022-04-14T10:04:41+02:00</time>
      </trkpt>
      <trkpt lat="44.37596" lon="4.88325">
        <ele>138.10059</ele>
        <time>2022-04-14T10:04:46+02:00</time>
      </trkpt>
      <trkpt lat="44.37603" lon="4.88324">
        <ele>138.10059</ele>
        <time>2022-04-14T10:04:51+02:00</time>
      </trkpt>
      <trkpt lat="44.37606" lon="4.88323">
        <ele>138.10059</ele>
        <time>2022-04-14T10:04:56+02:00</time>
      </trkpt>
      <trkpt lat="44.37603" lon="4.88321">
        <ele>138.10059</ele>
        <time>2022-04-14T10:05:01+02:00</time>
      </trkpt>
      <trkpt lat="44.376" lon="4.88319">
        <ele>138.10059</ele>
        <time>2022-04-14T10:05:06+02:00</time>
      </trkpt>
      <trkpt lat="44.37597" lon="4.88317">
        <ele>138.10059</ele>
        <time>2022-04-14T10:05:11+02:00</time>
      </trkpt>
      <trkpt lat="44.37589" lon="4.88314">
        <ele>139.40039</ele>
        <time>2022-04-14T10:05:16+02:00</time>
      </trkpt>
      <trkpt lat="44.37577" lon="4.88311">
        <ele>139.40039</ele>
        <time>2022-04-14T10:05:21+02:00</time>
      </trkpt>
      <trkpt lat="44.37566" lon="4.88307">
        <ele>140.7002</ele>
        <time>2022-04-14T10:05:26+02:00</time>
      </trkpt>
      <trkpt lat="44.3755" lon="4.88303">
        <ele>138</ele>
        <time>2022-04-14T10:05:31+02:00</time>
      </trkpt>
      <trkpt lat="44.37535" lon="4.88298">
        <ele>138.40039</ele>
        <time>2022-04-14T10:05:36+02:00</time>
      </trkpt>
      <trkpt lat="44.37517" lon="4.88299">
        <ele>138.40039</ele>
        <time>2022-04-14T10:05:41+02:00</time>
      </trkpt>
      <trkpt lat="44.37495" lon="4.88298">
        <ele>138.7002</ele>
        <time>2022-04-14T10:05:46+02:00</time>
      </trkpt>
      <trkpt lat="44.37476" lon="4.88305">
        <ele>137.7998</ele>
        <time>2022-04-14T10:05:51+02:00</time>
      </trkpt>
      <trkpt lat="44.3746" lon="4.88311">
        <ele>137.60059</ele>
        <time>2022-04-14T10:05:56+02:00</time>
      </trkpt>
      <trkpt lat="44.37438" lon="4.88316">
        <ele>137.60059</ele>
        <time>2022-04-14T10:06:01+02:00</time>
      </trkpt>
      <trkpt lat="44.37413" lon="4.88313">
        <ele>137.7002</ele>
        <time>2022-04-14T10:06:06+02:00</time>
      </trkpt>
      <trkpt lat="44.3739" lon="4.88305">
        <ele>138.2998</ele>
        <time>2022-04-14T10:06:11+02:00</time>
      </trkpt>
      <trkpt lat="44.37368" lon="4.88299">
        <ele>139</ele>
        <time>2022-04-14T10:06:16+02:00</time>
      </trkpt>
      <trkpt lat="44.37348" lon="4.88292">
        <ele>138.7002</ele>
        <time>2022-04-14T10:06:21+02:00</time>
      </trkpt>
      <trkpt lat="44.37333" lon="4.88285">
        <ele>139</ele>
        <time>2022-04-14T10:06:26+02:00</time>
      </trkpt>
      <trkpt lat="44.37318" lon="4.88277">
        <ele>139.10059</ele>
        <time>2022-04-14T10:06:31+02:00</time>
      </trkpt>
      <trkpt lat="44.37301" lon="4.88267">
        <ele>139.40039</ele>
        <time>2022-04-14T10:06:36+02:00</time>
      </trkpt>
      <trkpt lat="44.37294" lon="4.88246">
        <ele>142</ele>
        <time>2022-04-14T10:06:41+02:00</time>
      </trkpt>
      <trkpt lat="44.3729" lon="4.8823">
        <ele>144.2998</ele>
        <time>2022-04-14T10:06:46+02:00</time>
      </trkpt>
      <trkpt lat="44.37276" lon="4.88221">
        <ele>146.2998</ele>
        <time>2022-04-14T10:06:51+02:00</time>
      </trkpt>
      <trkpt lat="44.37268" lon="4.88212">
        <ele>148.10059</ele>
        <time>2022-04-14T10:06:56+02:00</time>
      </trkpt>
      <trkpt lat="44.3726" lon="4.88205">
        <ele>150</ele>
        <time>2022-04-14T10:07:01+02:00</time>
      </trkpt>
      <trkpt lat="44.37248" lon="4.88201">
        <ele>150.5</ele>
        <time>2022-04-14T10:07:06+02:00</time>
      </trkpt>
      <trkpt lat="44.37238" lon="4.88198">
        <ele>150.2002</ele>
        <time>2022-04-14T10:07:11+02:00</time>
      </trkpt>
      <trkpt lat="44.37225" lon="4.8819">
        <ele>151.2998</ele>
        <time>2022-04-14T10:07:16+02:00</time>
      </trkpt>
      <trkpt lat="44.37214" lon="4.88183">
        <ele>153.10059</ele>
        <time>2022-04-14T10:07:21+02:00</time>
      </trkpt>
      <trkpt lat="44.372" lon="4.88177">
        <ele>155</ele>
        <time>2022-04-14T10:07:26+02:00</time>
      </trkpt>
      <trkpt lat="44.37186" lon="4.88166">
        <ele>155.40039</ele>
        <time>2022-04-14T10:07:31+02:00</time>
      </trkpt>
      <trkpt lat="44.37172" lon="4.88159">
        <ele>154.2002</ele>
        <time>2022-04-14T10:07:36+02:00</time>
      </trkpt>
      <trkpt lat="44.37162" lon="4.88162">
        <ele>153.40039</ele>
        <time>2022-04-14T10:07:41+02:00</time>
      </trkpt>
      <trkpt lat="44.37152" lon="4.88164">
        <ele>150.7002</ele>
        <time>2022-04-14T10:07:46+02:00</time>
      </trkpt>
      <trkpt lat="44.37144" lon="4.88158">
        <ele>150.90039</ele>
        <time>2022-04-14T10:07:51+02:00</time>
      </trkpt>
      <trkpt lat="44.37132" lon="4.88151">
        <ele>150.5</ele>
        <time>2022-04-14T10:07:56+02:00</time>
      </trkpt>
      <trkpt lat="44.37113" lon="4.88144">
        <ele>149.7998</ele>
        <time>2022-04-14T10:08:01+02:00</time>
      </trkpt>
      <trkpt lat="44.37098" lon="4.88136">
        <ele>149.7002</ele>
        <time>2022-04-14T10:08:06+02:00</time>
      </trkpt>
      <trkpt lat="44.37087" lon="4.88129">
        <ele>149.2998</ele>
        <time>2022-04-14T10:08:11+02:00</time>
      </trkpt>
      <trkpt lat="44.37087" lon="4.88119">
        <ele>151.90039</ele>
        <time>2022-04-14T10:08:16+02:00</time>
      </trkpt>
      <trkpt lat="44.3709" lon="4.88119">
        <ele>151.90039</ele>
        <time>2022-04-14T10:08:21+02:00</time>
      </trkpt>
      <trkpt lat="44.37098" lon="4.8812">
        <ele>151</ele>
        <time>2022-04-14T10:08:26+02:00</time>
      </trkpt>
      <trkpt lat="44.37107" lon="4.88122">
        <ele>152</ele>
        <time>2022-04-14T10:08:31+02:00</time>
      </trkpt>
      <trkpt lat="44.37117" lon="4.88125">
        <ele>152.5</ele>
        <time>2022-04-14T10:08:36+02:00</time>
      </trkpt>
      <trkpt lat="44.37127" lon="4.88125">
        <ele>153.60059</ele>
        <time>2022-04-14T10:08:41+02:00</time>
      </trkpt>
      <trkpt lat="44.37133" lon="4.88125">
        <ele>154.2998</ele>
        <time>2022-04-14T10:08:46+02:00</time>
      </trkpt>
      <trkpt lat="44.37141" lon="4.88128">
        <ele>153.7002</ele>
        <time>2022-04-14T10:08:51+02:00</time>
      </trkpt>
      <trkpt lat="44.37154" lon="4.88128">
        <ele>155.10059</ele>
        <time>2022-04-14T10:08:56+02:00</time>
      </trkpt>
      <trkpt lat="44.37163" lon="4.88131">
        <ele>156.60059</ele>
        <time>2022-04-14T10:09:01+02:00</time>
      </trkpt>
      <trkpt lat="44.37174" lon="4.88133">
        <ele>157.90039</ele>
        <time>2022-04-14T10:09:06+02:00</time>
      </trkpt>
      <trkpt lat="44.37186" lon="4.88136">
        <ele>159.2002</ele>
        <time>2022-04-14T10:09:11+02:00</time>
      </trkpt>
      <trkpt lat="44.37197" lon="4.88135">
        <ele>159.60059</ele>
        <time>2022-04-14T10:09:16+02:00</time>
      </trkpt>
      <trkpt lat="44.37209" lon="4.88139">
        <ele>158.90039</ele>
        <time>2022-04-14T10:09:21+02:00</time>
      </trkpt>
      <trkpt lat="44.37219" lon="4.88141">
        <ele>158.7002</ele>
        <time>2022-04-14T10:09:26+02:00</time>
      </trkpt>
      <trkpt lat="44.37233" lon="4.88145">
        <ele>158.7002</ele>
        <time>2022-04-14T10:09:31+02:00</time>
      </trkpt>
      <trkpt lat="44.37245" lon="4.8815">
        <ele>157.7002</ele>
        <time>2022-04-14T10:09:36+02:00</time>
      </trkpt>
      <trkpt lat="44.37258" lon="4.88156">
        <ele>156.5</ele>
        <time>2022-04-14T10:09:41+02:00</time>
      </trkpt>
      <trkpt lat="44.3727" lon="4.88161">
        <ele>156.40039</ele>
        <time>2022-04-14T10:09:46+02:00</time>
      </trkpt>
      <trkpt lat="44.37282" lon="4.88165">
        <ele>154.7002</ele>
        <time>2022-04-14T10:09:51+02:00</time>
      </trkpt>
      <trkpt lat="44.37298" lon="4.88172">
        <ele>153</ele>
        <time>2022-04-14T10:09:56+02:00</time>
      </trkpt>
      <trkpt lat="44.37318" lon="4.88182">
        <ele>152.10059</ele>
        <time>2022-04-14T10:10:01+02:00</time>
      </trkpt>
      <trkpt lat="44.37334" lon="4.88188">
        <ele>152</ele>
        <time>2022-04-14T10:10:06+02:00</time>
      </trkpt>
      <trkpt lat="44.37347" lon="4.88192">
        <ele>152.90039</ele>
        <time>2022-04-14T10:10:11+02:00</time>
      </trkpt>
      <trkpt lat="44.37359" lon="4.88198">
        <ele>152.2998</ele>
        <time>2022-04-14T10:10:16+02:00</time>
      </trkpt>
      <trkpt lat="44.37373" lon="4.88202">
        <ele>152.7998</ele>
        <time>2022-04-14T10:10:21+02:00</time>
      </trkpt>
      <trkpt lat="44.37386" lon="4.88203">
        <ele>153.40039</ele>
        <time>2022-04-14T10:10:26+02:00</time>
      </trkpt>
      <trkpt lat="44.37401" lon="4.88213">
        <ele>153</ele>
        <time>2022-04-14T10:10:31+02:00</time>
      </trkpt>
      <trkpt lat="44.37412" lon="4.8822">
        <ele>151.90039</ele>
        <time>2022-04-14T10:10:36+02:00</time>
      </trkpt>
      <trkpt lat="44.37426" lon="4.88223">
        <ele>151.40039</ele>
        <time>2022-04-14T10:10:41+02:00</time>
      </trkpt>
      <trkpt lat="44.37439" lon="4.88226">
        <ele>151.90039</ele>
        <time>2022-04-14T10:10:46+02:00</time>
      </trkpt>
      <trkpt lat="44.37453" lon="4.88231">
        <ele>151.10059</ele>
        <time>2022-04-14T10:10:51+02:00</time>
      </trkpt>
      <trkpt lat="44.37463" lon="4.88231">
        <ele>151.7002</ele>
        <time>2022-04-14T10:10:56+02:00</time>
      </trkpt>
      <trkpt lat="44.37477" lon="4.88235">
        <ele>152.2998</ele>
        <time>2022-04-14T10:11:01+02:00</time>
      </trkpt>
      <trkpt lat="44.37488" lon="4.88246">
        <ele>151.2998</ele>
        <time>2022-04-14T10:11:06+02:00</time>
      </trkpt>
      <trkpt lat="44.375" lon="4.88253">
        <ele>149.40039</ele>
        <time>2022-04-14T10:11:11+02:00</time>
      </trkpt>
      <trkpt lat="44.37511" lon="4.88255">
        <ele>149.40039</ele>
        <time>2022-04-14T10:11:16+02:00</time>
      </trkpt>
      <trkpt lat="44.37527" lon="4.88262">
        <ele>147.2002</ele>
        <time>2022-04-14T10:11:21+02:00</time>
      </trkpt>
      <trkpt lat="44.37546" lon="4.88269">
        <ele>145.60059</ele>
        <time>2022-04-14T10:11:26+02:00</time>
      </trkpt>
      <trkpt lat="44.37561" lon="4.8827">
        <ele>146.7998</ele>
        <time>2022-04-14T10:11:31+02:00</time>
      </trkpt>
      <trkpt lat="44.3757" lon="4.88276">
        <ele>145.60059</ele>
        <time>2022-04-14T10:11:36+02:00</time>
      </trkpt>
      <trkpt lat="44.37577" lon="4.88282">
        <ele>146.10059</ele>
        <time>2022-04-14T10:11:41+02:00</time>
      </trkpt>
      <trkpt lat="44.37585" lon="4.88287">
        <ele>144.90039</ele>
        <time>2022-04-14T10:11:46+02:00</time>
      </trkpt>
      <trkpt lat="44.37594" lon="4.88289">
        <ele>145.2998</ele>
        <time>2022-04-14T10:11:51+02:00</time>
      </trkpt>
      <trkpt lat="44.37603" lon="4.88297">
        <ele>144.2002</ele>
        <time>2022-04-14T10:11:56+02:00</time>
      </trkpt>
      <trkpt lat="44.3761" lon="4.88304">
        <ele>142.7002</ele>
        <time>2022-04-14T10:12:01+02:00</time>
      </trkpt>
      <trkpt lat="44.37615" lon="4.88307">
        <ele>143.5</ele>
        <time>2022-04-14T10:12:06+02:00</time>
      </trkpt>
      <trkpt lat="44.37625" lon="4.88313">
        <ele>142.60059</ele>
        <time>2022-04-14T10:12:11+02:00</time>
      </trkpt>
      <trkpt lat="44.37635" lon="4.88328">
        <ele>142.60059</ele>
        <time>2022-04-14T10:12:16+02:00</time>
      </trkpt>
      <trkpt lat="44.37645" lon="4.88343">
        <ele>142.2002</ele>
        <time>2022-04-14T10:12:21+02:00</time>
      </trkpt>
      <trkpt lat="44.37655" lon="4.8836">
        <ele>141.7998</ele>
        <time>2022-04-14T10:12:26+02:00</time>
      </trkpt>
      <trkpt lat="44.37668" lon="4.88366">
        <ele>143.40039</ele>
        <time>2022-04-14T10:12:31+02:00</time>
      </trkpt>
      <trkpt lat="44.37676" lon="4.88373">
        <ele>144.40039</ele>
        <time>2022-04-14T10:12:36+02:00</time>
      </trkpt>
      <trkpt lat="44.37684" lon="4.88379">
        <ele>144.60059</ele>
        <time>2022-04-14T10:12:41+02:00</time>
      </trkpt>
      <trkpt lat="44.37694" lon="4.88385">
        <ele>146.10059</ele>
        <time>2022-04-14T10:12:46+02:00</time>
      </trkpt>
      <trkpt lat="44.37703" lon="4.88381">
        <ele>146.7998</ele>
        <time>2022-04-14T10:12:51+02:00</time>
      </trkpt>
      <trkpt lat="44.37714" lon="4.88387">
        <ele>147.2998</ele>
        <time>2022-04-14T10:12:56+02:00</time>
      </trkpt>
      <trkpt lat="44.37718" lon="4.88398">
        <ele>146.7998</ele>
        <time>2022-04-14T10:13:01+02:00</time>
      </trkpt>
      <trkpt lat="44.37726" lon="4.88405">
        <ele>147.40039</ele>
        <time>2022-04-14T10:13:06+02:00</time>
      </trkpt>
      <trkpt lat="44.37734" lon="4.88413">
        <ele>147.40039</ele>
        <time>2022-04-14T10:13:11+02:00</time>
      </trkpt>
      <trkpt lat="44.37744" lon="4.8843">
        <ele>147.2002</ele>
        <time>2022-04-14T10:13:16+02:00</time>
      </trkpt>
      <trkpt lat="44.3775" lon="4.88443">
        <ele>147.40039</ele>
        <time>2022-04-14T10:13:21+02:00</time>
      </trkpt>
      <trkpt lat="44.37757" lon="4.8845">
        <ele>147.5</ele>
        <time>2022-04-14T10:13:26+02:00</time>
      </trkpt>
      <trkpt lat="44.37767" lon="4.88455">
        <ele>147.40039</ele>
        <time>2022-04-14T10:13:31+02:00</time>
      </trkpt>
      <trkpt lat="44.37777" lon="4.88467">
        <ele>147</ele>
        <time>2022-04-14T10:13:36+02:00</time>
      </trkpt>
      <trkpt lat="44.37778" lon="4.88477">
        <ele>146.40039</ele>
        <time>2022-04-14T10:13:41+02:00</time>
      </trkpt>
      <trkpt lat="44.37781" lon="4.88489">
        <ele>144.60059</ele>
        <time>2022-04-14T10:13:46+02:00</time>
      </trkpt>
      <trkpt lat="44.37786" lon="4.8849">
        <ele>144.40039</ele>
        <time>2022-04-14T10:13:51+02:00</time>
      </trkpt>
      <trkpt lat="44.37797" lon="4.88498">
        <ele>143.5</ele>
        <time>2022-04-14T10:13:56+02:00</time>
      </trkpt>
      <trkpt lat="44.37809" lon="4.88503">
        <ele>143.2002</ele>
        <time>2022-04-14T10:14:01+02:00</time>
      </trkpt>
      <trkpt lat="44.37821" lon="4.88505">
        <ele>142.7998</ele>
        <time>2022-04-14T10:14:06+02:00</time>
      </trkpt>
      <trkpt lat="44.37834" lon="4.88504">
        <ele>142.10059</ele>
        <time>2022-04-14T10:14:11+02:00</time>
      </trkpt>
      <trkpt lat="44.37855" lon="4.88506">
        <ele>141.2998</ele>
        <time>2022-04-14T10:14:16+02:00</time>
      </trkpt>
      <trkpt lat="44.3787" lon="4.88507">
        <ele>141.90039</ele>
        <time>2022-04-14T10:14:21+02:00</time>
      </trkpt>
      <trkpt lat="44.37889" lon="4.88506">
        <ele>142</ele>
        <time>2022-04-14T10:14:26+02:00</time>
      </trkpt>
      <trkpt lat="44.37905" lon="4.88507">
        <ele>142</ele>
        <time>2022-04-14T10:14:31+02:00</time>
      </trkpt>
      <trkpt lat="44.37916" lon="4.88509">
        <ele>142</ele>
        <time>2022-04-14T10:14:36+02:00</time>
      </trkpt>
      <trkpt lat="44.37919" lon="4.88509">
        <ele>142</ele>
        <time>2022-04-14T10:14:41+02:00</time>
      </trkpt>
      <trkpt lat="44.37928" lon="4.88497">
        <ele>142</ele>
        <time>2022-04-14T10:14:46+02:00</time>
      </trkpt>
      <trkpt lat="44.37939" lon="4.88498">
        <ele>142</ele>
        <time>2022-04-14T10:14:51+02:00</time>
      </trkpt>
      <trkpt lat="44.37949" lon="4.88495">
        <ele>142.10059</ele>
        <time>2022-04-14T10:14:56+02:00</time>
      </trkpt>
      <trkpt lat="44.37959" lon="4.88496">
        <ele>142.10059</ele>
        <time>2022-04-14T10:15:01+02:00</time>
      </trkpt>
      <trkpt lat="44.37966" lon="4.88495">
        <ele>142.2002</ele>
        <time>2022-04-14T10:15:06+02:00</time>
      </trkpt>
      <trkpt lat="44.37981" lon="4.88494">
        <ele>142.40039</ele>
        <time>2022-04-14T10:15:11+02:00</time>
      </trkpt>
      <trkpt lat="44.37993" lon="4.88493">
        <ele>142.60059</ele>
        <time>2022-04-14T10:15:16+02:00</time>
      </trkpt>
      <trkpt lat="44.3801" lon="4.88494">
        <ele>142.90039</ele>
        <time>2022-04-14T10:15:21+02:00</time>
      </trkpt>
      <trkpt lat="44.38022" lon="4.88498">
        <ele>143.2998</ele>
        <time>2022-04-14T10:15:26+02:00</time>
      </trkpt>
      <trkpt lat="44.3803" lon="4.88499">
        <ele>143.40039</ele>
        <time>2022-04-14T10:15:32+02:00</time>
      </trkpt>
      <trkpt lat="44.38038" lon="4.88493">
        <ele>143.2998</ele>
        <time>2022-04-14T10:15:37+02:00</time>
      </trkpt>
      <trkpt lat="44.38045" lon="4.88493">
        <ele>143.40039</ele>
        <time>2022-04-14T10:15:42+02:00</time>
      </trkpt>
      <trkpt lat="44.38048" lon="4.88493">
        <ele>143.40039</ele>
        <time>2022-04-14T10:15:47+02:00</time>
      </trkpt>
      <trkpt lat="44.38053" lon="4.88493">
        <ele>143.5</ele>
        <time>2022-04-14T10:15:52+02:00</time>
      </trkpt>
      <trkpt lat="44.38057" lon="4.88493">
        <ele>143.40039</ele>
        <time>2022-04-14T10:15:57+02:00</time>
      </trkpt>
      <trkpt lat="44.38053" lon="4.88493">
        <ele>143.5</ele>
        <time>2022-04-14T10:16:02+02:00</time>
      </trkpt>
      <trkpt lat="44.38049" lon="4.88492">
        <ele>143.40039</ele>
        <time>2022-04-14T10:16:08+02:00</time>
      </trkpt>
      <trkpt lat="44.38052" lon="4.88492">
        <ele>143.5</ele>
        <time>2022-04-14T10:16:13+02:00</time>
      </trkpt>
      <trkpt lat="44.38055" lon="4.88493">
        <ele>143.5</ele>
        <time>2022-04-14T10:16:18+02:00</time>
      </trkpt>
      <trkpt lat="44.3806" lon="4.88492">
        <ele>143.40039</ele>
        <time>2022-04-14T10:16:23+02:00</time>
      </trkpt>
      <trkpt lat="44.38066" lon="4.88492">
        <ele>143.40039</ele>
        <time>2022-04-14T10:16:28+02:00</time>
      </trkpt>
      <trkpt lat="44.38069" lon="4.88492">
        <ele>143.60059</ele>
        <time>2022-04-14T10:16:33+02:00</time>
      </trkpt>
      <trkpt lat="44.38072" lon="4.88491">
        <ele>143.60059</ele>
        <time>2022-04-14T10:16:38+02:00</time>
      </trkpt>
      <trkpt lat="44.38077" lon="4.885">
        <ele>144.2998</ele>
        <time>2022-04-14T10:16:43+02:00</time>
      </trkpt>
      <trkpt lat="44.38084" lon="4.88501">
        <ele>144.7998</ele>
        <time>2022-04-14T10:16:48+02:00</time>
      </trkpt>
      <trkpt lat="44.38094" lon="4.88503">
        <ele>146.10059</ele>
        <time>2022-04-14T10:16:53+02:00</time>
      </trkpt>
      <trkpt lat="44.38099" lon="4.88511">
        <ele>146.7998</ele>
        <time>2022-04-14T10:16:58+02:00</time>
      </trkpt>
      <trkpt lat="44.38106" lon="4.88515">
        <ele>146.90039</ele>
        <time>2022-04-14T10:17:03+02:00</time>
      </trkpt>
      <trkpt lat="44.3811" lon="4.88519">
        <ele>146.90039</ele>
        <time>2022-04-14T10:17:08+02:00</time>
      </trkpt>
      <trkpt lat="44.38117" lon="4.88524">
        <ele>147.10059</ele>
        <time>2022-04-14T10:17:13+02:00</time>
      </trkpt>
      <trkpt lat="44.38128" lon="4.88528">
        <ele>148.10059</ele>
        <time>2022-04-14T10:17:18+02:00</time>
      </trkpt>
      <trkpt lat="44.38139" lon="4.88531">
        <ele>151.60059</ele>
        <time>2022-04-14T10:17:23+02:00</time>
      </trkpt>
      <trkpt lat="44.3815" lon="4.88537">
        <ele>153.7998</ele>
        <time>2022-04-14T10:17:28+02:00</time>
      </trkpt>
      <trkpt lat="44.3816" lon="4.88539">
        <ele>154.90039</ele>
        <time>2022-04-14T10:17:33+02:00</time>
      </trkpt>
      <trkpt lat="44.38175" lon="4.88543">
        <ele>156</ele>
        <time>2022-04-14T10:17:38+02:00</time>
      </trkpt>
      <trkpt lat="44.38185" lon="4.88546">
        <ele>156.2002</ele>
        <time>2022-04-14T10:17:43+02:00</time>
      </trkpt>
      <trkpt lat="44.38199" lon="4.88554">
        <ele>156.7002</ele>
        <time>2022-04-14T10:17:48+02:00</time>
      </trkpt>
      <trkpt lat="44.38216" lon="4.88557">
        <ele>157.2998</ele>
        <time>2022-04-14T10:17:53+02:00</time>
      </trkpt>
      <trkpt lat="44.38236" lon="4.88563">
        <ele>158.10059</ele>
        <time>2022-04-14T10:17:58+02:00</time>
      </trkpt>
      <trkpt lat="44.38254" lon="4.88555">
        <ele>158.2002</ele>
        <time>2022-04-14T10:18:03+02:00</time>
      </trkpt>
      <trkpt lat="44.38262" lon="4.88549">
        <ele>158.2002</ele>
        <time>2022-04-14T10:18:08+02:00</time>
      </trkpt>
      <trkpt lat="44.38277" lon="4.88548">
        <ele>157.7002</ele>
        <time>2022-04-14T10:18:13+02:00</time>
      </trkpt>
      <trkpt lat="44.38296" lon="4.88548">
        <ele>157.40039</ele>
        <time>2022-04-14T10:18:18+02:00</time>
      </trkpt>
      <trkpt lat="44.38313" lon="4.88548">
        <ele>157.2002</ele>
        <time>2022-04-14T10:18:23+02:00</time>
      </trkpt>
      <trkpt lat="44.38334" lon="4.8855">
        <ele>157.7002</ele>
        <time>2022-04-14T10:18:28+02:00</time>
      </trkpt>
      <trkpt lat="44.38346" lon="4.88552">
        <ele>157.90039</ele>
        <time>2022-04-14T10:18:33+02:00</time>
      </trkpt>
      <trkpt lat="44.38361" lon="4.88554">
        <ele>158.2002</ele>
        <time>2022-04-14T10:18:38+02:00</time>
      </trkpt>
      <trkpt lat="44.38379" lon="4.88555">
        <ele>158.7998</ele>
        <time>2022-04-14T10:18:43+02:00</time>
      </trkpt>
      <trkpt lat="44.38401" lon="4.88556">
        <ele>160.7002</ele>
        <time>2022-04-14T10:18:48+02:00</time>
      </trkpt>
      <trkpt lat="44.38417" lon="4.88558">
        <ele>162.2998</ele>
        <time>2022-04-14T10:18:53+02:00</time>
      </trkpt>
      <trkpt lat="44.38434" lon="4.8856">
        <ele>163.2998</ele>
        <time>2022-04-14T10:18:58+02:00</time>
      </trkpt>
      <trkpt lat="44.38448" lon="4.8856">
        <ele>163.7998</ele>
        <time>2022-04-14T10:19:03+02:00</time>
      </trkpt>
      <trkpt lat="44.38459" lon="4.88554">
        <ele>164</ele>
        <time>2022-04-14T10:19:08+02:00</time>
      </trkpt>
      <trkpt lat="44.38474" lon="4.88544">
        <ele>164.2998</ele>
        <time>2022-04-14T10:19:13+02:00</time>
      </trkpt>
      <trkpt lat="44.38485" lon="4.88546">
        <ele>164.5</ele>
        <time>2022-04-14T10:19:18+02:00</time>
      </trkpt>
      <trkpt lat="44.38495" lon="4.88552">
        <ele>165.2002</ele>
        <time>2022-04-14T10:19:23+02:00</time>
      </trkpt>
      <trkpt lat="44.38504" lon="4.88558">
        <ele>165.90039</ele>
        <time>2022-04-14T10:19:28+02:00</time>
      </trkpt>
      <trkpt lat="44.38516" lon="4.88559">
        <ele>166.2998</ele>
        <time>2022-04-14T10:19:33+02:00</time>
      </trkpt>
      <trkpt lat="44.38532" lon="4.88558">
        <ele>166.7998</ele>
        <time>2022-04-14T10:19:38+02:00</time>
      </trkpt>
      <trkpt lat="44.38544" lon="4.88555">
        <ele>167.2998</ele>
        <time>2022-04-14T10:19:43+02:00</time>
      </trkpt>
      <trkpt lat="44.38559" lon="4.88555">
        <ele>167.90039</ele>
        <time>2022-04-14T10:19:48+02:00</time>
      </trkpt>
      <trkpt lat="44.38572" lon="4.88554">
        <ele>168.40039</ele>
        <time>2022-04-14T10:19:53+02:00</time>
      </trkpt>
      <trkpt lat="44.38588" lon="4.88553">
        <ele>168.60059</ele>
        <time>2022-04-14T10:19:58+02:00</time>
      </trkpt>
      <trkpt lat="44.38601" lon="4.88554">
        <ele>168.7002</ele>
        <time>2022-04-14T10:20:03+02:00</time>
      </trkpt>
      <trkpt lat="44.38607" lon="4.88553">
        <ele>168.7998</ele>
        <time>2022-04-14T10:20:08+02:00</time>
      </trkpt>
      <trkpt lat="44.38626" lon="4.88555">
        <ele>169</ele>
        <time>2022-04-14T10:20:13+02:00</time>
      </trkpt>
      <trkpt lat="44.38646" lon="4.88555">
        <ele>168.7002</ele>
        <time>2022-04-14T10:20:18+02:00</time>
      </trkpt>
      <trkpt lat="44.3866" lon="4.88555">
        <ele>168.10059</ele>
        <time>2022-04-14T10:20:23+02:00</time>
      </trkpt>
      <trkpt lat="44.38675" lon="4.88554">
        <ele>167.40039</ele>
        <time>2022-04-14T10:20:28+02:00</time>
      </trkpt>
      <trkpt lat="44.38689" lon="4.88556">
        <ele>166.40039</ele>
        <time>2022-04-14T10:20:33+02:00</time>
      </trkpt>
      <trkpt lat="44.38701" lon="4.88558">
        <ele>166.7002</ele>
        <time>2022-04-14T10:20:38+02:00</time>
      </trkpt>
      <trkpt lat="44.38715" lon="4.88563">
        <ele>166.60059</ele>
        <time>2022-04-14T10:20:43+02:00</time>
      </trkpt>
      <trkpt lat="44.38727" lon="4.88569">
        <ele>167.2998</ele>
        <time>2022-04-14T10:20:48+02:00</time>
      </trkpt>
      <trkpt lat="44.38736" lon="4.88579">
        <ele>168.10059</ele>
        <time>2022-04-14T10:20:53+02:00</time>
      </trkpt>
      <trkpt lat="44.38746" lon="4.88589">
        <ele>168.7998</ele>
        <time>2022-04-14T10:20:58+02:00</time>
      </trkpt>
      <trkpt lat="44.38754" lon="4.88596">
        <ele>169.40039</ele>
        <time>2022-04-14T10:21:03+02:00</time>
      </trkpt>
      <trkpt lat="44.38764" lon="4.88603">
        <ele>169.60059</ele>
        <time>2022-04-14T10:21:08+02:00</time>
      </trkpt>
      <trkpt lat="44.38776" lon="4.88611">
        <ele>169.40039</ele>
        <time>2022-04-14T10:21:13+02:00</time>
      </trkpt>
      <trkpt lat="44.3879" lon="4.8862">
        <ele>169</ele>
        <time>2022-04-14T10:21:18+02:00</time>
      </trkpt>
      <trkpt lat="44.38807" lon="4.88629">
        <ele>168.2002</ele>
        <time>2022-04-14T10:21:23+02:00</time>
      </trkpt>
      <trkpt lat="44.38824" lon="4.88641">
        <ele>167.2998</ele>
        <time>2022-04-14T10:21:28+02:00</time>
      </trkpt>
      <trkpt lat="44.38842" lon="4.88655">
        <ele>166.40039</ele>
        <time>2022-04-14T10:21:33+02:00</time>
      </trkpt>
      <trkpt lat="44.38863" lon="4.88669">
        <ele>165.7002</ele>
        <time>2022-04-14T10:21:38+02:00</time>
      </trkpt>
      <trkpt lat="44.38883" lon="4.88679">
        <ele>165.10059</ele>
        <time>2022-04-14T10:21:43+02:00</time>
      </trkpt>
      <trkpt lat="44.38897" lon="4.88684">
        <ele>164.7998</ele>
        <time>2022-04-14T10:21:48+02:00</time>
      </trkpt>
      <trkpt lat="44.38915" lon="4.88691">
        <ele>164.2002</ele>
        <time>2022-04-14T10:21:53+02:00</time>
      </trkpt>
      <trkpt lat="44.38933" lon="4.88699">
        <ele>163.7002</ele>
        <time>2022-04-14T10:21:58+02:00</time>
      </trkpt>
      <trkpt lat="44.38947" lon="4.88704">
        <ele>163.2998</ele>
        <time>2022-04-14T10:22:03+02:00</time>
      </trkpt>
      <trkpt lat="44.38956" lon="4.88708">
        <ele>163.2002</ele>
        <time>2022-04-14T10:22:08+02:00</time>
      </trkpt>
      <trkpt lat="44.38959" lon="4.88706">
        <ele>163.10059</ele>
        <time>2022-04-14T10:22:13+02:00</time>
      </trkpt>
      <trkpt lat="44.38952" lon="4.8871">
        <ele>163.2002</ele>
        <time>2022-04-14T10:22:18+02:00</time>
      </trkpt>
      <trkpt lat="44.38946" lon="4.88727">
        <ele>163.10059</ele>
        <time>2022-04-14T10:22:23+02:00</time>
      </trkpt>
      <trkpt lat="44.38942" lon="4.88741">
        <ele>162.7998</ele>
        <time>2022-04-14T10:22:28+02:00</time>
      </trkpt>
      <trkpt lat="44.38945" lon="4.88754">
        <ele>162.60059</ele>
        <time>2022-04-14T10:22:33+02:00</time>
      </trkpt>
      <trkpt lat="44.38953" lon="4.88759">
        <ele>162.2998</ele>
        <time>2022-04-14T10:22:38+02:00</time>
      </trkpt>
      <trkpt lat="44.38963" lon="4.88769">
        <ele>162</ele>
        <time>2022-04-14T10:22:43+02:00</time>
      </trkpt>
      <trkpt lat="44.38975" lon="4.88781">
        <ele>161.5</ele>
        <time>2022-04-14T10:22:48+02:00</time>
      </trkpt>
      <trkpt lat="44.38988" lon="4.88796">
        <ele>161.10059</ele>
        <time>2022-04-14T10:22:53+02:00</time>
      </trkpt>
      <trkpt lat="44.39003" lon="4.88807">
        <ele>160.7002</ele>
        <time>2022-04-14T10:22:58+02:00</time>
      </trkpt>
      <trkpt lat="44.39019" lon="4.88811">
        <ele>160.7002</ele>
        <time>2022-04-14T10:23:03+02:00</time>
      </trkpt>
      <trkpt lat="44.39037" lon="4.88817">
        <ele>160.7998</ele>
        <time>2022-04-14T10:23:08+02:00</time>
      </trkpt>
      <trkpt lat="44.39054" lon="4.88826">
        <ele>161</ele>
        <time>2022-04-14T10:23:13+02:00</time>
      </trkpt>
      <trkpt lat="44.39062" lon="4.88835">
        <ele>161.2002</ele>
        <time>2022-04-14T10:23:18+02:00</time>
      </trkpt>
      <trkpt lat="44.39068" lon="4.88846">
        <ele>161.2002</ele>
        <time>2022-04-14T10:23:23+02:00</time>
      </trkpt>
      <trkpt lat="44.39072" lon="4.88862">
        <ele>161.2002</ele>
        <time>2022-04-14T10:23:28+02:00</time>
      </trkpt>
      <trkpt lat="44.39076" lon="4.88884">
        <ele>161.10059</ele>
        <time>2022-04-14T10:23:33+02:00</time>
      </trkpt>
      <trkpt lat="44.39081" lon="4.88907">
        <ele>160.90039</ele>
        <time>2022-04-14T10:23:38+02:00</time>
      </trkpt>
      <trkpt lat="44.39088" lon="4.8893">
        <ele>159.7002</ele>
        <time>2022-04-14T10:23:43+02:00</time>
      </trkpt>
      <trkpt lat="44.39097" lon="4.88947">
        <ele>158.60059</ele>
        <time>2022-04-14T10:23:48+02:00</time>
      </trkpt>
      <trkpt lat="44.3911" lon="4.8896">
        <ele>157.7998</ele>
        <time>2022-04-14T10:23:53+02:00</time>
      </trkpt>
      <trkpt lat="44.39127" lon="4.88976">
        <ele>156.7002</ele>
        <time>2022-04-14T10:23:58+02:00</time>
      </trkpt>
      <trkpt lat="44.39151" lon="4.88996">
        <ele>155.10059</ele>
        <time>2022-04-14T10:24:03+02:00</time>
      </trkpt>
      <trkpt lat="44.39161" lon="4.89013">
        <ele>154.2998</ele>
        <time>2022-04-14T10:24:08+02:00</time>
      </trkpt>
      <trkpt lat="44.39162" lon="4.89017">
        <ele>154.2998</ele>
        <time>2022-04-14T10:24:13+02:00</time>
      </trkpt>
      <trkpt lat="44.39162" lon="4.89016">
        <ele>154.2998</ele>
        <time>2022-04-14T10:24:18+02:00</time>
      </trkpt>
      <trkpt lat="44.3916" lon="4.89002">
        <ele>154.90039</ele>
        <time>2022-04-14T10:24:23+02:00</time>
      </trkpt>
      <trkpt lat="44.39164" lon="4.88997">
        <ele>154.7998</ele>
        <time>2022-04-14T10:24:28+02:00</time>
      </trkpt>
      <trkpt lat="44.39172" lon="4.8899">
        <ele>154.90039</ele>
        <time>2022-04-14T10:24:33+02:00</time>
      </trkpt>
      <trkpt lat="44.39181" lon="4.8898">
        <ele>155.2998</ele>
        <time>2022-04-14T10:24:38+02:00</time>
      </trkpt>
      <trkpt lat="44.39192" lon="4.8897">
        <ele>155.7002</ele>
        <time>2022-04-14T10:24:43+02:00</time>
      </trkpt>
      <trkpt lat="44.39203" lon="4.88959">
        <ele>157</ele>
        <time>2022-04-14T10:24:48+02:00</time>
      </trkpt>
      <trkpt lat="44.39216" lon="4.88947">
        <ele>157.2998</ele>
        <time>2022-04-14T10:24:53+02:00</time>
      </trkpt>
      <trkpt lat="44.39225" lon="4.88939">
        <ele>157.7998</ele>
        <time>2022-04-14T10:24:58+02:00</time>
      </trkpt>
      <trkpt lat="44.39236" lon="4.88929">
        <ele>158</ele>
        <time>2022-04-14T10:25:03+02:00</time>
      </trkpt>
      <trkpt lat="44.39244" lon="4.88915">
        <ele>158.90039</ele>
        <time>2022-04-14T10:25:08+02:00</time>
      </trkpt>
      <trkpt lat="44.39247" lon="4.88902">
        <ele>159.2002</ele>
        <time>2022-04-14T10:25:13+02:00</time>
      </trkpt>
      <trkpt lat="44.39248" lon="4.88893">
        <ele>159.40039</ele>
        <time>2022-04-14T10:25:18+02:00</time>
      </trkpt>
      <trkpt lat="44.39243" lon="4.88884">
        <ele>159.60059</ele>
        <time>2022-04-14T10:25:23+02:00</time>
      </trkpt>
      <trkpt lat="44.39235" lon="4.88873">
        <ele>159.7998</ele>
        <time>2022-04-14T10:25:28+02:00</time>
      </trkpt>
      <trkpt lat="44.39227" lon="4.88862">
        <ele>160.2998</ele>
        <time>2022-04-14T10:25:33+02:00</time>
      </trkpt>
      <trkpt lat="44.39226" lon="4.88856">
        <ele>160.2998</ele>
        <time>2022-04-14T10:25:38+02:00</time>
      </trkpt>
      <trkpt lat="44.39232" lon="4.88839">
        <ele>160.2002</ele>
        <time>2022-04-14T10:25:44+02:00</time>
      </trkpt>
      <trkpt lat="44.39239" lon="4.88822">
        <ele>159.7998</ele>
        <time>2022-04-14T10:25:49+02:00</time>
      </trkpt>
      <trkpt lat="44.39246" lon="4.88806">
        <ele>159.2998</ele>
        <time>2022-04-14T10:25:54+02:00</time>
      </trkpt>
      <trkpt lat="44.39249" lon="4.8878">
        <ele>158.2998</ele>
        <time>2022-04-14T10:25:59+02:00</time>
      </trkpt>
      <trkpt lat="44.3925" lon="4.88757">
        <ele>158</ele>
        <time>2022-04-14T10:26:05+02:00</time>
      </trkpt>
      <trkpt lat="44.39253" lon="4.88737">
        <ele>158</ele>
        <time>2022-04-14T10:26:10+02:00</time>
      </trkpt>
      <trkpt lat="44.39256" lon="4.88722">
        <ele>158.2998</ele>
        <time>2022-04-14T10:26:15+02:00</time>
      </trkpt>
      <trkpt lat="44.39254" lon="4.88714">
        <ele>158.7002</ele>
        <time>2022-04-14T10:26:21+02:00</time>
      </trkpt>
      <trkpt lat="44.39248" lon="4.88708">
        <ele>158.7998</ele>
        <time>2022-04-14T10:26:26+02:00</time>
      </trkpt>
      <trkpt lat="44.39235" lon="4.88696">
        <ele>158.7998</ele>
        <time>2022-04-14T10:26:31+02:00</time>
      </trkpt>
      <trkpt lat="44.39223" lon="4.88685">
        <ele>159.60059</ele>
        <time>2022-04-14T10:26:36+02:00</time>
      </trkpt>
      <trkpt lat="44.39209" lon="4.88675">
        <ele>159.90039</ele>
        <time>2022-04-14T10:26:42+02:00</time>
      </trkpt>
      <trkpt lat="44.39192" lon="4.88664">
        <ele>160.2002</ele>
        <time>2022-04-14T10:26:47+02:00</time>
      </trkpt>
      <trkpt lat="44.39178" lon="4.88656">
        <ele>160.2002</ele>
        <time>2022-04-14T10:26:52+02:00</time>
      </trkpt>
      <trkpt lat="44.39163" lon="4.88648">
        <ele>160.2998</ele>
        <time>2022-04-14T10:26:58+02:00</time>
      </trkpt>
      <trkpt lat="44.39147" lon="4.88641">
        <ele>160</ele>
        <time>2022-04-14T10:27:03+02:00</time>
      </trkpt>
      <trkpt lat="44.39127" lon="4.88632">
        <ele>159.7998</ele>
        <time>2022-04-14T10:27:09+02:00</time>
      </trkpt>
      <trkpt lat="44.39112" lon="4.88625">
        <ele>159.90039</ele>
        <time>2022-04-14T10:27:14+02:00</time>
      </trkpt>
      <trkpt lat="44.39097" lon="4.88616">
        <ele>160.2002</ele>
        <time>2022-04-14T10:27:19+02:00</time>
      </trkpt>
      <trkpt lat="44.39095" lon="4.88608">
        <ele>160.7002</ele>
        <time>2022-04-14T10:27:25+02:00</time>
      </trkpt>
      <trkpt lat="44.391" lon="4.886">
        <ele>160.7002</ele>
        <time>2022-04-14T10:27:30+02:00</time>
      </trkpt>
      <trkpt lat="44.39104" lon="4.88598">
        <ele>161.10059</ele>
        <time>2022-04-14T10:27:35+02:00</time>
      </trkpt>
      <trkpt lat="44.39111" lon="4.88594">
        <ele>161.2998</ele>
        <time>2022-04-14T10:27:40+02:00</time>
      </trkpt>
      <trkpt lat="44.39121" lon="4.88589">
        <ele>162</ele>
        <time>2022-04-14T10:27:45+02:00</time>
      </trkpt>
      <trkpt lat="44.39131" lon="4.88583">
        <ele>162.40039</ele>
        <time>2022-04-14T10:27:50+02:00</time>
      </trkpt>
      <trkpt lat="44.39139" lon="4.88578">
        <ele>163.2002</ele>
        <time>2022-04-14T10:27:55+02:00</time>
      </trkpt>
      <trkpt lat="44.39149" lon="4.88572">
        <ele>164.2998</ele>
        <time>2022-04-14T10:28:00+02:00</time>
      </trkpt>
      <trkpt lat="44.39159" lon="4.88566">
        <ele>164.5</ele>
        <time>2022-04-14T10:28:05+02:00</time>
      </trkpt>
      <trkpt lat="44.39169" lon="4.88559">
        <ele>165.2998</ele>
        <time>2022-04-14T10:28:10+02:00</time>
      </trkpt>
      <trkpt lat="44.39178" lon="4.88552">
        <ele>166</ele>
        <time>2022-04-14T10:28:15+02:00</time>
      </trkpt>
      <trkpt lat="44.39188" lon="4.88545">
        <ele>167</ele>
        <time>2022-04-14T10:28:20+02:00</time>
      </trkpt>
      <trkpt lat="44.39196" lon="4.88537">
        <ele>168</ele>
        <time>2022-04-14T10:28:25+02:00</time>
      </trkpt>
      <trkpt lat="44.39205" lon="4.88529">
        <ele>169.10059</ele>
        <time>2022-04-14T10:28:30+02:00</time>
      </trkpt>
      <trkpt lat="44.39213" lon="4.88519">
        <ele>170</ele>
        <time>2022-04-14T10:28:35+02:00</time>
      </trkpt>
      <trkpt lat="44.39223" lon="4.8851">
        <ele>171.10059</ele>
        <time>2022-04-14T10:28:40+02:00</time>
      </trkpt>
      <trkpt lat="44.39231" lon="4.88501">
        <ele>172.10059</ele>
        <time>2022-04-14T10:28:45+02:00</time>
      </trkpt>
      <trkpt lat="44.39239" lon="4.88493">
        <ele>173.10059</ele>
        <time>2022-04-14T10:28:50+02:00</time>
      </trkpt>
      <trkpt lat="44.39251" lon="4.88484">
        <ele>174.10059</ele>
        <time>2022-04-14T10:28:55+02:00</time>
      </trkpt>
      <trkpt lat="44.39268" lon="4.88475">
        <ele>174.7998</ele>
        <time>2022-04-14T10:29:00+02:00</time>
      </trkpt>
      <trkpt lat="44.39284" lon="4.8847">
        <ele>175.5</ele>
        <time>2022-04-14T10:29:05+02:00</time>
      </trkpt>
      <trkpt lat="44.39299" lon="4.88465">
        <ele>175.7002</ele>
        <time>2022-04-14T10:29:10+02:00</time>
      </trkpt>
      <trkpt lat="44.39312" lon="4.88458">
        <ele>176.2998</ele>
        <time>2022-04-14T10:29:15+02:00</time>
      </trkpt>
      <trkpt lat="44.39324" lon="4.88451">
        <ele>176.90039</ele>
        <time>2022-04-14T10:29:20+02:00</time>
      </trkpt>
      <trkpt lat="44.39336" lon="4.88443">
        <ele>177.7002</ele>
        <time>2022-04-14T10:29:25+02:00</time>
      </trkpt>
      <trkpt lat="44.39346" lon="4.88434">
        <ele>178.60059</ele>
        <time>2022-04-14T10:29:30+02:00</time>
      </trkpt>
      <trkpt lat="44.39351" lon="4.88429">
        <ele>178.7998</ele>
        <time>2022-04-14T10:29:35+02:00</time>
      </trkpt>
      <trkpt lat="44.39353" lon="4.8842">
        <ele>179.60059</ele>
        <time>2022-04-14T10:29:40+02:00</time>
      </trkpt>
      <trkpt lat="44.3936" lon="4.88407">
        <ele>181.60059</ele>
        <time>2022-04-14T10:29:45+02:00</time>
      </trkpt>
      <trkpt lat="44.39375" lon="4.88399">
        <ele>182.60059</ele>
        <time>2022-04-14T10:29:50+02:00</time>
      </trkpt>
      <trkpt lat="44.3939" lon="4.8839">
        <ele>183.60059</ele>
        <time>2022-04-14T10:29:55+02:00</time>
      </trkpt>
      <trkpt lat="44.39406" lon="4.88383">
        <ele>184.60059</ele>
        <time>2022-04-14T10:30:00+02:00</time>
      </trkpt>
      <trkpt lat="44.39421" lon="4.88379">
        <ele>184.60059</ele>
        <time>2022-04-14T10:30:05+02:00</time>
      </trkpt>
      <trkpt lat="44.39434" lon="4.88377">
        <ele>184.60059</ele>
        <time>2022-04-14T10:30:10+02:00</time>
      </trkpt>
      <trkpt lat="44.3945" lon="4.88377">
        <ele>185.5</ele>
        <time>2022-04-14T10:30:15+02:00</time>
      </trkpt>
      <trkpt lat="44.39467" lon="4.88376">
        <ele>185.2002</ele>
        <time>2022-04-14T10:30:20+02:00</time>
      </trkpt>
      <trkpt lat="44.39483" lon="4.88376">
        <ele>185.10059</ele>
        <time>2022-04-14T10:30:25+02:00</time>
      </trkpt>
      <trkpt lat="44.395" lon="4.88375">
        <ele>185.2998</ele>
        <time>2022-04-14T10:30:30+02:00</time>
      </trkpt>
      <trkpt lat="44.39518" lon="4.88373">
        <ele>185.7998</ele>
        <time>2022-04-14T10:30:35+02:00</time>
      </trkpt>
      <trkpt lat="44.39536" lon="4.88371">
        <ele>185.90039</ele>
        <time>2022-04-14T10:30:40+02:00</time>
      </trkpt>
      <trkpt lat="44.39556" lon="4.88366">
        <ele>186.2002</ele>
        <time>2022-04-14T10:30:45+02:00</time>
      </trkpt>
      <trkpt lat="44.39577" lon="4.88361">
        <ele>184.7998</ele>
        <time>2022-04-14T10:30:50+02:00</time>
      </trkpt>
      <trkpt lat="44.39596" lon="4.88357">
        <ele>183.7002</ele>
        <time>2022-04-14T10:30:55+02:00</time>
      </trkpt>
      <trkpt lat="44.3961" lon="4.88353">
        <ele>182.7002</ele>
        <time>2022-04-14T10:31:00+02:00</time>
      </trkpt>
      <trkpt lat="44.39619" lon="4.88345">
        <ele>183.10059</ele>
        <time>2022-04-14T10:31:05+02:00</time>
      </trkpt>
      <trkpt lat="44.39623" lon="4.88333">
        <ele>183.90039</ele>
        <time>2022-04-14T10:31:10+02:00</time>
      </trkpt>
      <trkpt lat="44.39621" lon="4.88319">
        <ele>184.5</ele>
        <time>2022-04-14T10:31:15+02:00</time>
      </trkpt>
      <trkpt lat="44.39619" lon="4.88305">
        <ele>186.10059</ele>
        <time>2022-04-14T10:31:20+02:00</time>
      </trkpt>
      <trkpt lat="44.39619" lon="4.88288">
        <ele>186.7002</ele>
        <time>2022-04-14T10:31:25+02:00</time>
      </trkpt>
      <trkpt lat="44.39627" lon="4.88276">
        <ele>185.2002</ele>
        <time>2022-04-14T10:31:30+02:00</time>
      </trkpt>
      <trkpt lat="44.39634" lon="4.88262">
        <ele>184.90039</ele>
        <time>2022-04-14T10:31:35+02:00</time>
      </trkpt>
      <trkpt lat="44.39634" lon="4.88246">
        <ele>185.40039</ele>
        <time>2022-04-14T10:31:40+02:00</time>
      </trkpt>
      <trkpt lat="44.39633" lon="4.88237">
        <ele>185.5</ele>
        <time>2022-04-14T10:31:45+02:00</time>
      </trkpt>
      <trkpt lat="44.39619" lon="4.8823">
        <ele>186.5</ele>
        <time>2022-04-14T10:31:50+02:00</time>
      </trkpt>
      <trkpt lat="44.39605" lon="4.88216">
        <ele>187.2998</ele>
        <time>2022-04-14T10:31:55+02:00</time>
      </trkpt>
      <trkpt lat="44.39591" lon="4.88203">
        <ele>187.60059</ele>
        <time>2022-04-14T10:32:00+02:00</time>
      </trkpt>
      <trkpt lat="44.39579" lon="4.88187">
        <ele>187.7002</ele>
        <time>2022-04-14T10:32:05+02:00</time>
      </trkpt>
      <trkpt lat="44.3959" lon="4.88163">
        <ele>183.7002</ele>
        <time>2022-04-14T10:32:10+02:00</time>
      </trkpt>
      <trkpt lat="44.39606" lon="4.88133">
        <ele>179.10059</ele>
        <time>2022-04-14T10:32:15+02:00</time>
      </trkpt>
      <trkpt lat="44.39619" lon="4.8811">
        <ele>177.60059</ele>
        <time>2022-04-14T10:32:20+02:00</time>
      </trkpt>
      <trkpt lat="44.39621" lon="4.88105">
        <ele>177.90039</ele>
        <time>2022-04-14T10:32:25+02:00</time>
      </trkpt>
      <trkpt lat="44.39621" lon="4.88104">
        <ele>177.90039</ele>
        <time>2022-04-14T10:32:30+02:00</time>
      </trkpt>
      <trkpt lat="44.39625" lon="4.88088">
        <ele>177.10059</ele>
        <time>2022-04-14T10:32:35+02:00</time>
      </trkpt>
      <trkpt lat="44.3963" lon="4.88058">
        <ele>176.10059</ele>
        <time>2022-04-14T10:32:40+02:00</time>
      </trkpt>
      <trkpt lat="44.39636" lon="4.88023">
        <ele>175.40039</ele>
        <time>2022-04-14T10:32:45+02:00</time>
      </trkpt>
      <trkpt lat="44.39639" lon="4.87992">
        <ele>175.2998</ele>
        <time>2022-04-14T10:32:50+02:00</time>
      </trkpt>
      <trkpt lat="44.39638" lon="4.8797">
        <ele>175.5</ele>
        <time>2022-04-14T10:32:55+02:00</time>
      </trkpt>
      <trkpt lat="44.39635" lon="4.87944">
        <ele>175.90039</ele>
        <time>2022-04-14T10:33:00+02:00</time>
      </trkpt>
      <trkpt lat="44.39629" lon="4.87917">
        <ele>175.90039</ele>
        <time>2022-04-14T10:33:05+02:00</time>
      </trkpt>
      <trkpt lat="44.39623" lon="4.87893">
        <ele>175.7002</ele>
        <time>2022-04-14T10:33:10+02:00</time>
      </trkpt>
      <trkpt lat="44.39618" lon="4.87871">
        <ele>175.5</ele>
        <time>2022-04-14T10:33:15+02:00</time>
      </trkpt>
      <trkpt lat="44.39616" lon="4.8785">
        <ele>175.40039</ele>
        <time>2022-04-14T10:33:20+02:00</time>
      </trkpt>
      <trkpt lat="44.39622" lon="4.87831">
        <ele>175.60059</ele>
        <time>2022-04-14T10:33:25+02:00</time>
      </trkpt>
      <trkpt lat="44.39628" lon="4.87813">
        <ele>175.60059</ele>
        <time>2022-04-14T10:33:30+02:00</time>
      </trkpt>
      <trkpt lat="44.3963" lon="4.878">
        <ele>175.2002</ele>
        <time>2022-04-14T10:33:35+02:00</time>
      </trkpt>
      <trkpt lat="44.39625" lon="4.87793">
        <ele>175</ele>
        <time>2022-04-14T10:33:40+02:00</time>
      </trkpt>
      <trkpt lat="44.39616" lon="4.87792">
        <ele>174.7002</ele>
        <time>2022-04-14T10:33:45+02:00</time>
      </trkpt>
      <trkpt lat="44.3961" lon="4.8779">
        <ele>174.60059</ele>
        <time>2022-04-14T10:33:50+02:00</time>
      </trkpt>
      <trkpt lat="44.3961" lon="4.87795">
        <ele>174.60059</ele>
        <time>2022-04-14T10:33:55+02:00</time>
      </trkpt>
      <trkpt lat="44.39617" lon="4.87794">
        <ele>174.7998</ele>
        <time>2022-04-14T10:34:00+02:00</time>
      </trkpt>
      <trkpt lat="44.39622" lon="4.87799">
        <ele>175</ele>
        <time>2022-04-14T10:34:06+02:00</time>
      </trkpt>
      <trkpt lat="44.39629" lon="4.87788">
        <ele>175.10059</ele>
        <time>2022-04-14T10:34:11+02:00</time>
      </trkpt>
      <trkpt lat="44.3964" lon="4.87778">
        <ele>175.2998</ele>
        <time>2022-04-14T10:34:16+02:00</time>
      </trkpt>
      <trkpt lat="44.39652" lon="4.87764">
        <ele>175.2002</ele>
        <time>2022-04-14T10:34:21+02:00</time>
      </trkpt>
      <trkpt lat="44.39667" lon="4.87752">
        <ele>175.2002</ele>
        <time>2022-04-14T10:34:26+02:00</time>
      </trkpt>
      <trkpt lat="44.39675" lon="4.87732">
        <ele>174.60059</ele>
        <time>2022-04-14T10:34:31+02:00</time>
      </trkpt>
      <trkpt lat="44.39675" lon="4.87709">
        <ele>174.10059</ele>
        <time>2022-04-14T10:34:36+02:00</time>
      </trkpt>
      <trkpt lat="44.39677" lon="4.87684">
        <ele>174</ele>
        <time>2022-04-14T10:34:41+02:00</time>
      </trkpt>
      <trkpt lat="44.39684" lon="4.87661">
        <ele>174.2002</ele>
        <time>2022-04-14T10:34:46+02:00</time>
      </trkpt>
      <trkpt lat="44.3969" lon="4.87637">
        <ele>174.5</ele>
        <time>2022-04-14T10:34:51+02:00</time>
      </trkpt>
      <trkpt lat="44.39694" lon="4.87615">
        <ele>174.7998</ele>
        <time>2022-04-14T10:34:56+02:00</time>
      </trkpt>
      <trkpt lat="44.39696" lon="4.87593">
        <ele>175.2002</ele>
        <time>2022-04-14T10:35:01+02:00</time>
      </trkpt>
      <trkpt lat="44.397" lon="4.87578">
        <ele>175.7002</ele>
        <time>2022-04-14T10:35:06+02:00</time>
      </trkpt>
      <trkpt lat="44.3971" lon="4.87569">
        <ele>176</ele>
        <time>2022-04-14T10:35:11+02:00</time>
      </trkpt>
      <trkpt lat="44.39724" lon="4.87566">
        <ele>176.10059</ele>
        <time>2022-04-14T10:35:16+02:00</time>
      </trkpt>
      <trkpt lat="44.39742" lon="4.87563">
        <ele>176.40039</ele>
        <time>2022-04-14T10:35:21+02:00</time>
      </trkpt>
      <trkpt lat="44.39763" lon="4.87563">
        <ele>176.90039</ele>
        <time>2022-04-14T10:35:26+02:00</time>
      </trkpt>
      <trkpt lat="44.39783" lon="4.87564">
        <ele>177.40039</ele>
        <time>2022-04-14T10:35:31+02:00</time>
      </trkpt>
      <trkpt lat="44.39801" lon="4.87565">
        <ele>177.90039</ele>
        <time>2022-04-14T10:35:36+02:00</time>
      </trkpt>
      <trkpt lat="44.3982" lon="4.87569">
        <ele>178.40039</ele>
        <time>2022-04-14T10:35:41+02:00</time>
      </trkpt>
      <trkpt lat="44.3984" lon="4.87574">
        <ele>178.60059</ele>
        <time>2022-04-14T10:35:46+02:00</time>
      </trkpt>
      <trkpt lat="44.39857" lon="4.87575">
        <ele>178.7998</ele>
        <time>2022-04-14T10:35:51+02:00</time>
      </trkpt>
      <trkpt lat="44.3987" lon="4.87573">
        <ele>179</ele>
        <time>2022-04-14T10:35:56+02:00</time>
      </trkpt>
      <trkpt lat="44.39878" lon="4.87559">
        <ele>179.5</ele>
        <time>2022-04-14T10:36:01+02:00</time>
      </trkpt>
      <trkpt lat="44.39884" lon="4.87536">
        <ele>180.10059</ele>
        <time>2022-04-14T10:36:06+02:00</time>
      </trkpt>
      <trkpt lat="44.39892" lon="4.87511">
        <ele>181</ele>
        <time>2022-04-14T10:36:11+02:00</time>
      </trkpt>
      <trkpt lat="44.39901" lon="4.87487">
        <ele>182</ele>
        <time>2022-04-14T10:36:16+02:00</time>
      </trkpt>
      <trkpt lat="44.39913" lon="4.87466">
        <ele>183.2002</ele>
        <time>2022-04-14T10:36:21+02:00</time>
      </trkpt>
      <trkpt lat="44.39925" lon="4.87449">
        <ele>183.7998</ele>
        <time>2022-04-14T10:36:26+02:00</time>
      </trkpt>
      <trkpt lat="44.39936" lon="4.87433">
        <ele>184.10059</ele>
        <time>2022-04-14T10:36:31+02:00</time>
      </trkpt>
      <trkpt lat="44.39944" lon="4.87425">
        <ele>184.2998</ele>
        <time>2022-04-14T10:36:36+02:00</time>
      </trkpt>
      <trkpt lat="44.3995" lon="4.87427">
        <ele>184.2998</ele>
        <time>2022-04-14T10:36:41+02:00</time>
      </trkpt>
      <trkpt lat="44.39964" lon="4.87422">
        <ele>184.5</ele>
        <time>2022-04-14T10:36:46+02:00</time>
      </trkpt>
      <trkpt lat="44.39979" lon="4.87422">
        <ele>184.40039</ele>
        <time>2022-04-14T10:36:51+02:00</time>
      </trkpt>
      <trkpt lat="44.39999" lon="4.87424">
        <ele>184.2998</ele>
        <time>2022-04-14T10:36:56+02:00</time>
      </trkpt>
      <trkpt lat="44.4002" lon="4.87431">
        <ele>183.90039</ele>
        <time>2022-04-14T10:37:01+02:00</time>
      </trkpt>
      <trkpt lat="44.40042" lon="4.87435">
        <ele>183.2998</ele>
        <time>2022-04-14T10:37:06+02:00</time>
      </trkpt>
      <trkpt lat="44.40063" lon="4.8744">
        <ele>182.90039</ele>
        <time>2022-04-14T10:37:11+02:00</time>
      </trkpt>
      <trkpt lat="44.40083" lon="4.87439">
        <ele>182.7002</ele>
        <time>2022-04-14T10:37:16+02:00</time>
      </trkpt>
      <trkpt lat="44.40105" lon="4.87439">
        <ele>182.5</ele>
        <time>2022-04-14T10:37:21+02:00</time>
      </trkpt>
      <trkpt lat="44.40126" lon="4.87432">
        <ele>182.7998</ele>
        <time>2022-04-14T10:37:26+02:00</time>
      </trkpt>
      <trkpt lat="44.40143" lon="4.8743">
        <ele>182.7998</ele>
        <time>2022-04-14T10:37:31+02:00</time>
      </trkpt>
      <trkpt lat="44.40149" lon="4.8744">
        <ele>182.5</ele>
        <time>2022-04-14T10:37:36+02:00</time>
      </trkpt>
      <trkpt lat="44.40149" lon="4.87465">
        <ele>181.7998</ele>
        <time>2022-04-14T10:37:41+02:00</time>
      </trkpt>
      <trkpt lat="44.40151" lon="4.87497">
        <ele>181.10059</ele>
        <time>2022-04-14T10:37:46+02:00</time>
      </trkpt>
      <trkpt lat="44.40153" lon="4.87527">
        <ele>180.40039</ele>
        <time>2022-04-14T10:37:51+02:00</time>
      </trkpt>
      <trkpt lat="44.40159" lon="4.87544">
        <ele>180.2998</ele>
        <time>2022-04-14T10:37:56+02:00</time>
      </trkpt>
      <trkpt lat="44.40176" lon="4.87537">
        <ele>180.10059</ele>
        <time>2022-04-14T10:38:01+02:00</time>
      </trkpt>
      <trkpt lat="44.40197" lon="4.87531">
        <ele>180</ele>
        <time>2022-04-14T10:38:06+02:00</time>
      </trkpt>
      <trkpt lat="44.4022" lon="4.87525">
        <ele>180.10059</ele>
        <time>2022-04-14T10:38:11+02:00</time>
      </trkpt>
      <trkpt lat="44.40242" lon="4.87519">
        <ele>179.90039</ele>
        <time>2022-04-14T10:38:16+02:00</time>
      </trkpt>
      <trkpt lat="44.4026" lon="4.87519">
        <ele>179.90039</ele>
        <time>2022-04-14T10:38:21+02:00</time>
      </trkpt>
      <trkpt lat="44.40277" lon="4.8752">
        <ele>180</ele>
        <time>2022-04-14T10:38:26+02:00</time>
      </trkpt>
      <trkpt lat="44.40293" lon="4.87522">
        <ele>180.10059</ele>
        <time>2022-04-14T10:38:31+02:00</time>
      </trkpt>
      <trkpt lat="44.4031" lon="4.87524">
        <ele>180.2002</ele>
        <time>2022-04-14T10:38:36+02:00</time>
      </trkpt>
      <trkpt lat="44.40328" lon="4.87525">
        <ele>180.2998</ele>
        <time>2022-04-14T10:38:41+02:00</time>
      </trkpt>
      <trkpt lat="44.40346" lon="4.87525">
        <ele>180.40039</ele>
        <time>2022-04-14T10:38:46+02:00</time>
      </trkpt>
      <trkpt lat="44.40365" lon="4.87526">
        <ele>180.5</ele>
        <time>2022-04-14T10:38:51+02:00</time>
      </trkpt>
      <trkpt lat="44.40384" lon="4.87527">
        <ele>180.60059</ele>
        <time>2022-04-14T10:38:56+02:00</time>
      </trkpt>
      <trkpt lat="44.40404" lon="4.87529">
        <ele>180.7002</ele>
        <time>2022-04-14T10:39:01+02:00</time>
      </trkpt>
      <trkpt lat="44.40424" lon="4.87529">
        <ele>180.7002</ele>
        <time>2022-04-14T10:39:06+02:00</time>
      </trkpt>
      <trkpt lat="44.40443" lon="4.8753">
        <ele>180.60059</ele>
        <time>2022-04-14T10:39:11+02:00</time>
      </trkpt>
      <trkpt lat="44.40464" lon="4.8753">
        <ele>180.5</ele>
        <time>2022-04-14T10:39:16+02:00</time>
      </trkpt>
      <trkpt lat="44.40484" lon="4.87531">
        <ele>180.5</ele>
        <time>2022-04-14T10:39:21+02:00</time>
      </trkpt>
      <trkpt lat="44.40502" lon="4.87531">
        <ele>180.5</ele>
        <time>2022-04-14T10:39:26+02:00</time>
      </trkpt>
      <trkpt lat="44.40515" lon="4.87548">
        <ele>180.60059</ele>
        <time>2022-04-14T10:39:31+02:00</time>
      </trkpt>
      <trkpt lat="44.4052" lon="4.87574">
        <ele>180.60059</ele>
        <time>2022-04-14T10:39:36+02:00</time>
      </trkpt>
      <trkpt lat="44.4053" lon="4.87596">
        <ele>180.60059</ele>
        <time>2022-04-14T10:39:41+02:00</time>
      </trkpt>
      <trkpt lat="44.40549" lon="4.87599">
        <ele>180.90039</ele>
        <time>2022-04-14T10:39:46+02:00</time>
      </trkpt>
      <trkpt lat="44.40569" lon="4.876">
        <ele>181.10059</ele>
        <time>2022-04-14T10:39:51+02:00</time>
      </trkpt>
      <trkpt lat="44.40589" lon="4.87602">
        <ele>181.2998</ele>
        <time>2022-04-14T10:39:56+02:00</time>
      </trkpt>
      <trkpt lat="44.40609" lon="4.87604">
        <ele>181.60059</ele>
        <time>2022-04-14T10:40:01+02:00</time>
      </trkpt>
      <trkpt lat="44.4063" lon="4.87606">
        <ele>181.7998</ele>
        <time>2022-04-14T10:40:06+02:00</time>
      </trkpt>
      <trkpt lat="44.40649" lon="4.87608">
        <ele>181.90039</ele>
        <time>2022-04-14T10:40:11+02:00</time>
      </trkpt>
      <trkpt lat="44.4066" lon="4.87617">
        <ele>182.10059</ele>
        <time>2022-04-14T10:40:16+02:00</time>
      </trkpt>
      <trkpt lat="44.40663" lon="4.87638">
        <ele>182.40039</ele>
        <time>2022-04-14T10:40:21+02:00</time>
      </trkpt>
      <trkpt lat="44.40663" lon="4.87663">
        <ele>182.7998</ele>
        <time>2022-04-14T10:40:26+02:00</time>
      </trkpt>
      <trkpt lat="44.40662" lon="4.87688">
        <ele>183</ele>
        <time>2022-04-14T10:40:31+02:00</time>
      </trkpt>
      <trkpt lat="44.40657" lon="4.87715">
        <ele>183.2002</ele>
        <time>2022-04-14T10:40:36+02:00</time>
      </trkpt>
      <trkpt lat="44.40652" lon="4.87744">
        <ele>183.2998</ele>
        <time>2022-04-14T10:40:41+02:00</time>
      </trkpt>
      <trkpt lat="44.40647" lon="4.87773">
        <ele>183.5</ele>
        <time>2022-04-14T10:40:46+02:00</time>
      </trkpt>
      <trkpt lat="44.40643" lon="4.87801">
        <ele>183.7002</ele>
        <time>2022-04-14T10:40:51+02:00</time>
      </trkpt>
      <trkpt lat="44.40642" lon="4.87828">
        <ele>183.90039</ele>
        <time>2022-04-14T10:40:56+02:00</time>
      </trkpt>
      <trkpt lat="44.40642" lon="4.87854">
        <ele>184.2998</ele>
        <time>2022-04-14T10:41:01+02:00</time>
      </trkpt>
      <trkpt lat="44.40644" lon="4.8788">
        <ele>184.7002</ele>
        <time>2022-04-14T10:41:06+02:00</time>
      </trkpt>
      <trkpt lat="44.40643" lon="4.87905">
        <ele>185.40039</ele>
        <time>2022-04-14T10:41:11+02:00</time>
      </trkpt>
      <trkpt lat="44.40638" lon="4.87926">
        <ele>185.90039</ele>
        <time>2022-04-14T10:41:16+02:00</time>
      </trkpt>
      <trkpt lat="44.40633" lon="4.87947">
        <ele>186.60059</ele>
        <time>2022-04-14T10:41:21+02:00</time>
      </trkpt>
      <trkpt lat="44.40626" lon="4.87967">
        <ele>187.2002</ele>
        <time>2022-04-14T10:41:26+02:00</time>
      </trkpt>
      <trkpt lat="44.4062" lon="4.87987">
        <ele>187.2998</ele>
        <time>2022-04-14T10:41:31+02:00</time>
      </trkpt>
      <trkpt lat="44.40614" lon="4.8801">
        <ele>187.5</ele>
        <time>2022-04-14T10:41:36+02:00</time>
      </trkpt>
      <trkpt lat="44.40607" lon="4.88034">
        <ele>187.90039</ele>
        <time>2022-04-14T10:41:41+02:00</time>
      </trkpt>
      <trkpt lat="44.40602" lon="4.88059">
        <ele>188.2998</ele>
        <time>2022-04-14T10:41:46+02:00</time>
      </trkpt>
      <trkpt lat="44.40598" lon="4.88088">
        <ele>189.5</ele>
        <time>2022-04-14T10:41:51+02:00</time>
      </trkpt>
      <trkpt lat="44.40597" lon="4.88119">
        <ele>190.2002</ele>
        <time>2022-04-14T10:41:56+02:00</time>
      </trkpt>
      <trkpt lat="44.40597" lon="4.88149">
        <ele>190.60059</ele>
        <time>2022-04-14T10:42:01+02:00</time>
      </trkpt>
      <trkpt lat="44.40597" lon="4.88179">
        <ele>190.90039</ele>
        <time>2022-04-14T10:42:06+02:00</time>
      </trkpt>
      <trkpt lat="44.40597" lon="4.88207">
        <ele>190.7998</ele>
        <time>2022-04-14T10:42:11+02:00</time>
      </trkpt>
      <trkpt lat="44.40596" lon="4.88224">
        <ele>190.7998</ele>
        <time>2022-04-14T10:42:16+02:00</time>
      </trkpt>
      <trkpt lat="44.40596" lon="4.88228">
        <ele>190.7998</ele>
        <time>2022-04-14T10:42:21+02:00</time>
      </trkpt>
      <trkpt lat="44.40602" lon="4.88246">
        <ele>190.7002</ele>
        <time>2022-04-14T10:42:26+02:00</time>
      </trkpt>
      <trkpt lat="44.40603" lon="4.8827">
        <ele>190.60059</ele>
        <time>2022-04-14T10:42:31+02:00</time>
      </trkpt>
      <trkpt lat="44.40604" lon="4.88293">
        <ele>190.5</ele>
        <time>2022-04-14T10:42:36+02:00</time>
      </trkpt>
      <trkpt lat="44.40605" lon="4.88315">
        <ele>190.40039</ele>
        <time>2022-04-14T10:42:41+02:00</time>
      </trkpt>
      <trkpt lat="44.40604" lon="4.88341">
        <ele>190.2998</ele>
        <time>2022-04-14T10:42:46+02:00</time>
      </trkpt>
      <trkpt lat="44.40601" lon="4.88371">
        <ele>190.2998</ele>
        <time>2022-04-14T10:42:51+02:00</time>
      </trkpt>
      <trkpt lat="44.40598" lon="4.88401">
        <ele>190.2998</ele>
        <time>2022-04-14T10:42:56+02:00</time>
      </trkpt>
      <trkpt lat="44.40594" lon="4.88433">
        <ele>189</ele>
        <time>2022-04-14T10:43:01+02:00</time>
      </trkpt>
      <trkpt lat="44.40591" lon="4.88477">
        <ele>187.40039</ele>
        <time>2022-04-14T10:43:07+02:00</time>
      </trkpt>
      <trkpt lat="44.40588" lon="4.88517">
        <ele>187.10059</ele>
        <time>2022-04-14T10:43:12+02:00</time>
      </trkpt>
      <trkpt lat="44.40585" lon="4.88553">
        <ele>186.7002</ele>
        <time>2022-04-14T10:43:17+02:00</time>
      </trkpt>
      <trkpt lat="44.40582" lon="4.88588">
        <ele>186.40039</ele>
        <time>2022-04-14T10:43:22+02:00</time>
      </trkpt>
      <trkpt lat="44.4058" lon="4.88623">
        <ele>186.40039</ele>
        <time>2022-04-14T10:43:27+02:00</time>
      </trkpt>
      <trkpt lat="44.40577" lon="4.88659">
        <ele>186.40039</ele>
        <time>2022-04-14T10:43:32+02:00</time>
      </trkpt>
      <trkpt lat="44.40574" lon="4.88693">
        <ele>186.2998</ele>
        <time>2022-04-14T10:43:37+02:00</time>
      </trkpt>
      <trkpt lat="44.4057" lon="4.88733">
        <ele>186.2002</ele>
        <time>2022-04-14T10:43:43+02:00</time>
      </trkpt>
      <trkpt lat="44.40569" lon="4.88764">
        <ele>186.40039</ele>
        <time>2022-04-14T10:43:48+02:00</time>
      </trkpt>
      <trkpt lat="44.40567" lon="4.88795">
        <ele>186.5</ele>
        <time>2022-04-14T10:43:53+02:00</time>
      </trkpt>
      <trkpt lat="44.40564" lon="4.88827">
        <ele>186.90039</ele>
        <time>2022-04-14T10:43:58+02:00</time>
      </trkpt>
      <trkpt lat="44.40561" lon="4.8886">
        <ele>187.2002</ele>
        <time>2022-04-14T10:44:03+02:00</time>
      </trkpt>
      <trkpt lat="44.40556" lon="4.88895">
        <ele>187.40039</ele>
        <time>2022-04-14T10:44:08+02:00</time>
      </trkpt>
      <trkpt lat="44.40551" lon="4.88928">
        <ele>187.2998</ele>
        <time>2022-04-14T10:44:13+02:00</time>
      </trkpt>
      <trkpt lat="44.40546" lon="4.88961">
        <ele>187.2002</ele>
        <time>2022-04-14T10:44:18+02:00</time>
      </trkpt>
      <trkpt lat="44.40539" lon="4.88995">
        <ele>187</ele>
        <time>2022-04-14T10:44:23+02:00</time>
      </trkpt>
      <trkpt lat="44.40531" lon="4.89027">
        <ele>186.60059</ele>
        <time>2022-04-14T10:44:28+02:00</time>
      </trkpt>
      <trkpt lat="44.40526" lon="4.89056">
        <ele>185.40039</ele>
        <time>2022-04-14T10:44:33+02:00</time>
      </trkpt>
      <trkpt lat="44.40525" lon="4.89076">
        <ele>184.7998</ele>
        <time>2022-04-14T10:44:38+02:00</time>
      </trkpt>
      <trkpt lat="44.40526" lon="4.89089">
        <ele>184.40039</ele>
        <time>2022-04-14T10:44:43+02:00</time>
      </trkpt>
      <trkpt lat="44.40531" lon="4.89107">
        <ele>183.5</ele>
        <time>2022-04-14T10:44:48+02:00</time>
      </trkpt>
      <trkpt lat="44.40538" lon="4.89127">
        <ele>183.2002</ele>
        <time>2022-04-14T10:44:53+02:00</time>
      </trkpt>
      <trkpt lat="44.40544" lon="4.89146">
        <ele>182.90039</ele>
        <time>2022-04-14T10:44:58+02:00</time>
      </trkpt>
      <trkpt lat="44.40549" lon="4.89169">
        <ele>183</ele>
        <time>2022-04-14T10:45:03+02:00</time>
      </trkpt>
      <trkpt lat="44.40553" lon="4.89195">
        <ele>183.5</ele>
        <time>2022-04-14T10:45:08+02:00</time>
      </trkpt>
      <trkpt lat="44.40555" lon="4.89223">
        <ele>184</ele>
        <time>2022-04-14T10:45:13+02:00</time>
      </trkpt>
      <trkpt lat="44.40556" lon="4.89241">
        <ele>184.7998</ele>
        <time>2022-04-14T10:45:18+02:00</time>
      </trkpt>
      <trkpt lat="44.40564" lon="4.89245">
        <ele>185.40039</ele>
        <time>2022-04-14T10:45:23+02:00</time>
      </trkpt>
      <trkpt lat="44.40581" lon="4.89246">
        <ele>186.10059</ele>
        <time>2022-04-14T10:45:28+02:00</time>
      </trkpt>
      <trkpt lat="44.40599" lon="4.8925">
        <ele>186.5</ele>
        <time>2022-04-14T10:45:33+02:00</time>
      </trkpt>
      <trkpt lat="44.40617" lon="4.89259">
        <ele>187.2998</ele>
        <time>2022-04-14T10:45:38+02:00</time>
      </trkpt>
      <trkpt lat="44.40636" lon="4.89271">
        <ele>188.40039</ele>
        <time>2022-04-14T10:45:43+02:00</time>
      </trkpt>
      <trkpt lat="44.40654" lon="4.89284">
        <ele>188.7002</ele>
        <time>2022-04-14T10:45:48+02:00</time>
      </trkpt>
      <trkpt lat="44.40669" lon="4.89295">
        <ele>188.7998</ele>
        <time>2022-04-14T10:45:53+02:00</time>
      </trkpt>
      <trkpt lat="44.40685" lon="4.89309">
        <ele>189.10059</ele>
        <time>2022-04-14T10:45:59+02:00</time>
      </trkpt>
      <trkpt lat="44.407" lon="4.89325">
        <ele>189.2998</ele>
        <time>2022-04-14T10:46:04+02:00</time>
      </trkpt>
      <trkpt lat="44.40714" lon="4.89343">
        <ele>189.90039</ele>
        <time>2022-04-14T10:46:09+02:00</time>
      </trkpt>
      <trkpt lat="44.40733" lon="4.89363">
        <ele>190.60059</ele>
        <time>2022-04-14T10:46:15+02:00</time>
      </trkpt>
      <trkpt lat="44.40748" lon="4.89375">
        <ele>191.2998</ele>
        <time>2022-04-14T10:46:20+02:00</time>
      </trkpt>
      <trkpt lat="44.40763" lon="4.89386">
        <ele>191.40039</ele>
        <time>2022-04-14T10:46:25+02:00</time>
      </trkpt>
      <trkpt lat="44.4078" lon="4.89399">
        <ele>191.5</ele>
        <time>2022-04-14T10:46:30+02:00</time>
      </trkpt>
      <trkpt lat="44.40796" lon="4.8941">
        <ele>191.40039</ele>
        <time>2022-04-14T10:46:35+02:00</time>
      </trkpt>
      <trkpt lat="44.40811" lon="4.8942">
        <ele>191</ele>
        <time>2022-04-14T10:46:40+02:00</time>
      </trkpt>
      <trkpt lat="44.40829" lon="4.89427">
        <ele>190.7002</ele>
        <time>2022-04-14T10:46:45+02:00</time>
      </trkpt>
      <trkpt lat="44.40846" lon="4.89434">
        <ele>190.7998</ele>
        <time>2022-04-14T10:46:50+02:00</time>
      </trkpt>
      <trkpt lat="44.40851" lon="4.89453">
        <ele>191.5</ele>
        <time>2022-04-14T10:46:55+02:00</time>
      </trkpt>
      <trkpt lat="44.40851" lon="4.89478">
        <ele>192.7998</ele>
        <time>2022-04-14T10:47:00+02:00</time>
      </trkpt>
      <trkpt lat="44.40851" lon="4.89503">
        <ele>193.7998</ele>
        <time>2022-04-14T10:47:05+02:00</time>
      </trkpt>
      <trkpt lat="44.4085" lon="4.8953">
        <ele>194.60059</ele>
        <time>2022-04-14T10:47:10+02:00</time>
      </trkpt>
      <trkpt lat="44.40851" lon="4.89554">
        <ele>195.10059</ele>
        <time>2022-04-14T10:47:15+02:00</time>
      </trkpt>
      <trkpt lat="44.40858" lon="4.89575">
        <ele>195.2002</ele>
        <time>2022-04-14T10:47:20+02:00</time>
      </trkpt>
      <trkpt lat="44.40871" lon="4.89593">
        <ele>194.90039</ele>
        <time>2022-04-14T10:47:25+02:00</time>
      </trkpt>
      <trkpt lat="44.40885" lon="4.89614">
        <ele>194</ele>
        <time>2022-04-14T10:47:30+02:00</time>
      </trkpt>
      <trkpt lat="44.40901" lon="4.89638">
        <ele>193.2998</ele>
        <time>2022-04-14T10:47:35+02:00</time>
      </trkpt>
      <trkpt lat="44.40915" lon="4.8966">
        <ele>192.5</ele>
        <time>2022-04-14T10:47:40+02:00</time>
      </trkpt>
      <trkpt lat="44.40921" lon="4.89675">
        <ele>192.10059</ele>
        <time>2022-04-14T10:47:45+02:00</time>
      </trkpt>
      <trkpt lat="44.40927" lon="4.89682">
        <ele>191.7998</ele>
        <time>2022-04-14T10:47:50+02:00</time>
      </trkpt>
      <trkpt lat="44.40939" lon="4.89699">
        <ele>191.2002</ele>
        <time>2022-04-14T10:47:55+02:00</time>
      </trkpt>
      <trkpt lat="44.40954" lon="4.8972">
        <ele>190.2998</ele>
        <time>2022-04-14T10:48:00+02:00</time>
      </trkpt>
      <trkpt lat="44.40971" lon="4.89744">
        <ele>188.60059</ele>
        <time>2022-04-14T10:48:05+02:00</time>
      </trkpt>
      <trkpt lat="44.40987" lon="4.89768">
        <ele>187.2998</ele>
        <time>2022-04-14T10:48:10+02:00</time>
      </trkpt>
      <trkpt lat="44.41005" lon="4.89798">
        <ele>186.5</ele>
        <time>2022-04-14T10:48:15+02:00</time>
      </trkpt>
      <trkpt lat="44.41024" lon="4.89827">
        <ele>186.10059</ele>
        <time>2022-04-14T10:48:20+02:00</time>
      </trkpt>
      <trkpt lat="44.41042" lon="4.89856">
        <ele>186.2998</ele>
        <time>2022-04-14T10:48:25+02:00</time>
      </trkpt>
      <trkpt lat="44.41058" lon="4.89878">
        <ele>186.40039</ele>
        <time>2022-04-14T10:48:30+02:00</time>
      </trkpt>
      <trkpt lat="44.41068" lon="4.89893">
        <ele>186.10059</ele>
        <time>2022-04-14T10:48:36+02:00</time>
      </trkpt>
      <trkpt lat="44.41068" lon="4.89901">
        <ele>185.90039</ele>
        <time>2022-04-14T10:48:41+02:00</time>
      </trkpt>
      <trkpt lat="44.41066" lon="4.89912">
        <ele>185.7998</ele>
        <time>2022-04-14T10:48:46+02:00</time>
      </trkpt>
      <trkpt lat="44.41062" lon="4.89931">
        <ele>185.7998</ele>
        <time>2022-04-14T10:48:51+02:00</time>
      </trkpt>
      <trkpt lat="44.41059" lon="4.89957">
        <ele>186.60059</ele>
        <time>2022-04-14T10:48:56+02:00</time>
      </trkpt>
      <trkpt lat="44.41054" lon="4.89984">
        <ele>188.5</ele>
        <time>2022-04-14T10:49:01+02:00</time>
      </trkpt>
      <trkpt lat="44.41049" lon="4.90011">
        <ele>190.7002</ele>
        <time>2022-04-14T10:49:06+02:00</time>
      </trkpt>
      <trkpt lat="44.41044" lon="4.90037">
        <ele>193.60059</ele>
        <time>2022-04-14T10:49:11+02:00</time>
      </trkpt>
      <trkpt lat="44.4104" lon="4.9006">
        <ele>196.40039</ele>
        <time>2022-04-14T10:49:16+02:00</time>
      </trkpt>
      <trkpt lat="44.41042" lon="4.90076">
        <ele>197.40039</ele>
        <time>2022-04-14T10:49:21+02:00</time>
      </trkpt>
      <trkpt lat="44.4105" lon="4.90084">
        <ele>197.10059</ele>
        <time>2022-04-14T10:49:26+02:00</time>
      </trkpt>
      <trkpt lat="44.41058" lon="4.90092">
        <ele>197.40039</ele>
        <time>2022-04-14T10:49:31+02:00</time>
      </trkpt>
      <trkpt lat="44.41068" lon="4.90104">
        <ele>198.2998</ele>
        <time>2022-04-14T10:49:36+02:00</time>
      </trkpt>
      <trkpt lat="44.41078" lon="4.90111">
        <ele>198.7002</ele>
        <time>2022-04-14T10:49:41+02:00</time>
      </trkpt>
      <trkpt lat="44.4109" lon="4.90113">
        <ele>198.90039</ele>
        <time>2022-04-14T10:49:46+02:00</time>
      </trkpt>
      <trkpt lat="44.41107" lon="4.90118">
        <ele>199.40039</ele>
        <time>2022-04-14T10:49:51+02:00</time>
      </trkpt>
      <trkpt lat="44.41126" lon="4.90119">
        <ele>199.7002</ele>
        <time>2022-04-14T10:49:56+02:00</time>
      </trkpt>
      <trkpt lat="44.41149" lon="4.90117">
        <ele>200.5</ele>
        <time>2022-04-14T10:50:01+02:00</time>
      </trkpt>
      <trkpt lat="44.41172" lon="4.9012">
        <ele>201.2998</ele>
        <time>2022-04-14T10:50:07+02:00</time>
      </trkpt>
      <trkpt lat="44.41186" lon="4.90122">
        <ele>201.2998</ele>
        <time>2022-04-14T10:50:12+02:00</time>
      </trkpt>
      <trkpt lat="44.41193" lon="4.90123">
        <ele>201.2998</ele>
        <time>2022-04-14T10:50:17+02:00</time>
      </trkpt>
      <trkpt lat="44.41193" lon="4.90122">
        <ele>201.2998</ele>
        <time>2022-04-14T10:50:22+02:00</time>
      </trkpt>
      <trkpt lat="44.41188" lon="4.90121">
        <ele>201.2998</ele>
        <time>2022-04-14T10:50:27+02:00</time>
      </trkpt>
      <trkpt lat="44.41176" lon="4.90122">
        <ele>201.2998</ele>
        <time>2022-04-14T10:50:32+02:00</time>
      </trkpt>
      <trkpt lat="44.41161" lon="4.9012">
        <ele>201.2998</ele>
        <time>2022-04-14T10:50:37+02:00</time>
      </trkpt>
      <trkpt lat="44.41146" lon="4.90122">
        <ele>200.7998</ele>
        <time>2022-04-14T10:50:42+02:00</time>
      </trkpt>
      <trkpt lat="44.41131" lon="4.90123">
        <ele>200.40039</ele>
        <time>2022-04-14T10:50:47+02:00</time>
      </trkpt>
      <trkpt lat="44.41115" lon="4.90119">
        <ele>199.60059</ele>
        <time>2022-04-14T10:50:52+02:00</time>
      </trkpt>
      <trkpt lat="44.41105" lon="4.90117">
        <ele>199.40039</ele>
        <time>2022-04-14T10:50:57+02:00</time>
      </trkpt>
      <trkpt lat="44.41093" lon="4.90124">
        <ele>199.60059</ele>
        <time>2022-04-14T10:51:02+02:00</time>
      </trkpt>
      <trkpt lat="44.41085" lon="4.90142">
        <ele>199.7998</ele>
        <time>2022-04-14T10:51:07+02:00</time>
      </trkpt>
      <trkpt lat="44.4108" lon="4.90162">
        <ele>200.2002</ele>
        <time>2022-04-14T10:51:12+02:00</time>
      </trkpt>
      <trkpt lat="44.41074" lon="4.90185">
        <ele>200.2998</ele>
        <time>2022-04-14T10:51:17+02:00</time>
      </trkpt>
      <trkpt lat="44.41069" lon="4.90207">
        <ele>200.90039</ele>
        <time>2022-04-14T10:51:22+02:00</time>
      </trkpt>
      <trkpt lat="44.41064" lon="4.90232">
        <ele>201.5</ele>
        <time>2022-04-14T10:51:27+02:00</time>
      </trkpt>
      <trkpt lat="44.41058" lon="4.90264">
        <ele>201.7002</ele>
        <time>2022-04-14T10:51:32+02:00</time>
      </trkpt>
      <trkpt lat="44.41052" lon="4.90298">
        <ele>201.2998</ele>
        <time>2022-04-14T10:51:37+02:00</time>
      </trkpt>
      <trkpt lat="44.41044" lon="4.90331">
        <ele>201.10059</ele>
        <time>2022-04-14T10:51:42+02:00</time>
      </trkpt>
      <trkpt lat="44.41038" lon="4.90357">
        <ele>201.2002</ele>
        <time>2022-04-14T10:51:47+02:00</time>
      </trkpt>
      <trkpt lat="44.41034" lon="4.90379">
        <ele>201.40039</ele>
        <time>2022-04-14T10:51:52+02:00</time>
      </trkpt>
      <trkpt lat="44.41028" lon="4.90405">
        <ele>201.60059</ele>
        <time>2022-04-14T10:51:57+02:00</time>
      </trkpt>
      <trkpt lat="44.41023" lon="4.90433">
        <ele>201.5</ele>
        <time>2022-04-14T10:52:02+02:00</time>
      </trkpt>
      <trkpt lat="44.41018" lon="4.90462">
        <ele>201.2998</ele>
        <time>2022-04-14T10:52:07+02:00</time>
      </trkpt>
      <trkpt lat="44.41012" lon="4.90495">
        <ele>200.7998</ele>
        <time>2022-04-14T10:52:12+02:00</time>
      </trkpt>
      <trkpt lat="44.41006" lon="4.90525">
        <ele>200.40039</ele>
        <time>2022-04-14T10:52:17+02:00</time>
      </trkpt>
      <trkpt lat="44.40999" lon="4.90553">
        <ele>199.90039</ele>
        <time>2022-04-14T10:52:22+02:00</time>
      </trkpt>
      <trkpt lat="44.40994" lon="4.90565">
        <ele>199.7998</ele>
        <time>2022-04-14T10:52:27+02:00</time>
      </trkpt>
      <trkpt lat="44.40986" lon="4.90564">
        <ele>199.7002</ele>
        <time>2022-04-14T10:52:32+02:00</time>
      </trkpt>
      <trkpt lat="44.40971" lon="4.90561">
        <ele>199.60059</ele>
        <time>2022-04-14T10:52:37+02:00</time>
      </trkpt>
      <trkpt lat="44.40956" lon="4.90558">
        <ele>199.60059</ele>
        <time>2022-04-14T10:52:42+02:00</time>
      </trkpt>
      <trkpt lat="44.4094" lon="4.90553">
        <ele>199.7002</ele>
        <time>2022-04-14T10:52:47+02:00</time>
      </trkpt>
      <trkpt lat="44.40922" lon="4.90548">
        <ele>199.7002</ele>
        <time>2022-04-14T10:52:52+02:00</time>
      </trkpt>
      <trkpt lat="44.40904" lon="4.90544">
        <ele>199.7998</ele>
        <time>2022-04-14T10:52:57+02:00</time>
      </trkpt>
      <trkpt lat="44.40884" lon="4.90537">
        <ele>199.90039</ele>
        <time>2022-04-14T10:53:02+02:00</time>
      </trkpt>
      <trkpt lat="44.40866" lon="4.90526">
        <ele>200.2002</ele>
        <time>2022-04-14T10:53:07+02:00</time>
      </trkpt>
      <trkpt lat="44.4085" lon="4.90505">
        <ele>200.7002</ele>
        <time>2022-04-14T10:53:12+02:00</time>
      </trkpt>
      <trkpt lat="44.40838" lon="4.90483">
        <ele>200.7998</ele>
        <time>2022-04-14T10:53:17+02:00</time>
      </trkpt>
      <trkpt lat="44.40825" lon="4.90464">
        <ele>200.60059</ele>
        <time>2022-04-14T10:53:22+02:00</time>
      </trkpt>
      <trkpt lat="44.40808" lon="4.90449">
        <ele>200.2002</ele>
        <time>2022-04-14T10:53:27+02:00</time>
      </trkpt>
      <trkpt lat="44.40792" lon="4.90433">
        <ele>199.7998</ele>
        <time>2022-04-14T10:53:32+02:00</time>
      </trkpt>
      <trkpt lat="44.40778" lon="4.90417">
        <ele>199.2998</ele>
        <time>2022-04-14T10:53:37+02:00</time>
      </trkpt>
      <trkpt lat="44.40763" lon="4.90404">
        <ele>198.90039</ele>
        <time>2022-04-14T10:53:42+02:00</time>
      </trkpt>
      <trkpt lat="44.40753" lon="4.90396">
        <ele>198.60059</ele>
        <time>2022-04-14T10:53:47+02:00</time>
      </trkpt>
      <trkpt lat="44.40742" lon="4.90388">
        <ele>198.40039</ele>
        <time>2022-04-14T10:53:52+02:00</time>
      </trkpt>
      <trkpt lat="44.40731" lon="4.90379">
        <ele>198.10059</ele>
        <time>2022-04-14T10:53:57+02:00</time>
      </trkpt>
      <trkpt lat="44.40716" lon="4.90369">
        <ele>197.60059</ele>
        <time>2022-04-14T10:54:02+02:00</time>
      </trkpt>
      <trkpt lat="44.40703" lon="4.90352">
        <ele>197.2998</ele>
        <time>2022-04-14T10:54:07+02:00</time>
      </trkpt>
      <trkpt lat="44.40688" lon="4.90335">
        <ele>197.2002</ele>
        <time>2022-04-14T10:54:12+02:00</time>
      </trkpt>
      <trkpt lat="44.40673" lon="4.90319">
        <ele>197</ele>
        <time>2022-04-14T10:54:17+02:00</time>
      </trkpt>
      <trkpt lat="44.40659" lon="4.90296">
        <ele>197.2002</ele>
        <time>2022-04-14T10:54:22+02:00</time>
      </trkpt>
      <trkpt lat="44.4064" lon="4.90274">
        <ele>196.90039</ele>
        <time>2022-04-14T10:54:27+02:00</time>
      </trkpt>
      <trkpt lat="44.40619" lon="4.90255">
        <ele>195.7998</ele>
        <time>2022-04-14T10:54:32+02:00</time>
      </trkpt>
      <trkpt lat="44.40602" lon="4.90238">
        <ele>195.2002</ele>
        <time>2022-04-14T10:54:37+02:00</time>
      </trkpt>
      <trkpt lat="44.40588" lon="4.90211">
        <ele>194.60059</ele>
        <time>2022-04-14T10:54:42+02:00</time>
      </trkpt>
      <trkpt lat="44.40574" lon="4.9018">
        <ele>194.40039</ele>
        <time>2022-04-14T10:54:47+02:00</time>
      </trkpt>
      <trkpt lat="44.40562" lon="4.90155">
        <ele>194.40039</ele>
        <time>2022-04-14T10:54:52+02:00</time>
      </trkpt>
      <trkpt lat="44.4055" lon="4.9013">
        <ele>194.5</ele>
        <time>2022-04-14T10:54:57+02:00</time>
      </trkpt>
      <trkpt lat="44.40536" lon="4.90106">
        <ele>194.40039</ele>
        <time>2022-04-14T10:55:02+02:00</time>
      </trkpt>
      <trkpt lat="44.40519" lon="4.90083">
        <ele>193.90039</ele>
        <time>2022-04-14T10:55:07+02:00</time>
      </trkpt>
      <trkpt lat="44.40496" lon="4.90073">
        <ele>193.2002</ele>
        <time>2022-04-14T10:55:12+02:00</time>
      </trkpt>
      <trkpt lat="44.40473" lon="4.90065">
        <ele>192.7002</ele>
        <time>2022-04-14T10:55:17+02:00</time>
      </trkpt>
      <trkpt lat="44.40449" lon="4.90057">
        <ele>192.2998</ele>
        <time>2022-04-14T10:55:22+02:00</time>
      </trkpt>
      <trkpt lat="44.40424" lon="4.90048">
        <ele>192</ele>
        <time>2022-04-14T10:55:27+02:00</time>
      </trkpt>
      <trkpt lat="44.40399" lon="4.90039">
        <ele>191.7998</ele>
        <time>2022-04-14T10:55:32+02:00</time>
      </trkpt>
      <trkpt lat="44.40375" lon="4.90031">
        <ele>191.7002</ele>
        <time>2022-04-14T10:55:37+02:00</time>
      </trkpt>
      <trkpt lat="44.40358" lon="4.90027">
        <ele>191.60059</ele>
        <time>2022-04-14T10:55:42+02:00</time>
      </trkpt>
      <trkpt lat="44.4035" lon="4.90018">
        <ele>191.60059</ele>
        <time>2022-04-14T10:55:47+02:00</time>
      </trkpt>
      <trkpt lat="44.40354" lon="4.89995">
        <ele>191.60059</ele>
        <time>2022-04-14T10:55:52+02:00</time>
      </trkpt>
      <trkpt lat="44.4036" lon="4.89968">
        <ele>191.40039</ele>
        <time>2022-04-14T10:55:57+02:00</time>
      </trkpt>
      <trkpt lat="44.40371" lon="4.89945">
        <ele>191.5</ele>
        <time>2022-04-14T10:56:02+02:00</time>
      </trkpt>
      <trkpt lat="44.4038" lon="4.89924">
        <ele>191.7998</ele>
        <time>2022-04-14T10:56:07+02:00</time>
      </trkpt>
      <trkpt lat="44.40382" lon="4.89901">
        <ele>192.2998</ele>
        <time>2022-04-14T10:56:12+02:00</time>
      </trkpt>
      <trkpt lat="44.40381" lon="4.89873">
        <ele>192.60059</ele>
        <time>2022-04-14T10:56:17+02:00</time>
      </trkpt>
      <trkpt lat="44.40376" lon="4.89841">
        <ele>192.7002</ele>
        <time>2022-04-14T10:56:22+02:00</time>
      </trkpt>
      <trkpt lat="44.40372" lon="4.89809">
        <ele>192.60059</ele>
        <time>2022-04-14T10:56:27+02:00</time>
      </trkpt>
      <trkpt lat="44.40367" lon="4.89777">
        <ele>192.2998</ele>
        <time>2022-04-14T10:56:32+02:00</time>
      </trkpt>
      <trkpt lat="44.40363" lon="4.89746">
        <ele>192.10059</ele>
        <time>2022-04-14T10:56:37+02:00</time>
      </trkpt>
      <trkpt lat="44.40362" lon="4.89726">
        <ele>192.10059</ele>
        <time>2022-04-14T10:56:42+02:00</time>
      </trkpt>
      <trkpt lat="44.40359" lon="4.89714">
        <ele>192.10059</ele>
        <time>2022-04-14T10:56:47+02:00</time>
      </trkpt>
      <trkpt lat="44.40343" lon="4.89709">
        <ele>192</ele>
        <time>2022-04-14T10:56:52+02:00</time>
      </trkpt>
      <trkpt lat="44.40328" lon="4.89708">
        <ele>191.60059</ele>
        <time>2022-04-14T10:56:57+02:00</time>
      </trkpt>
      <trkpt lat="44.40312" lon="4.89707">
        <ele>190.7002</ele>
        <time>2022-04-14T10:57:02+02:00</time>
      </trkpt>
      <trkpt lat="44.40292" lon="4.8971">
        <ele>189.60059</ele>
        <time>2022-04-14T10:57:07+02:00</time>
      </trkpt>
      <trkpt lat="44.40262" lon="4.89715">
        <ele>187.7002</ele>
        <time>2022-04-14T10:57:12+02:00</time>
      </trkpt>
      <trkpt lat="44.40231" lon="4.8972">
        <ele>184.90039</ele>
        <time>2022-04-14T10:57:17+02:00</time>
      </trkpt>
      <trkpt lat="44.40201" lon="4.89726">
        <ele>182.2998</ele>
        <time>2022-04-14T10:57:22+02:00</time>
      </trkpt>
      <trkpt lat="44.40171" lon="4.89728">
        <ele>181.40039</ele>
        <time>2022-04-14T10:57:27+02:00</time>
      </trkpt>
      <trkpt lat="44.4014" lon="4.89731">
        <ele>181</ele>
        <time>2022-04-14T10:57:32+02:00</time>
      </trkpt>
      <trkpt lat="44.40124" lon="4.89732">
        <ele>180.7002</ele>
        <time>2022-04-14T10:57:37+02:00</time>
      </trkpt>
      <trkpt lat="44.40114" lon="4.8973">
        <ele>180.5</ele>
        <time>2022-04-14T10:57:42+02:00</time>
      </trkpt>
      <trkpt lat="44.40101" lon="4.89725">
        <ele>180.10059</ele>
        <time>2022-04-14T10:57:47+02:00</time>
      </trkpt>
      <trkpt lat="44.40085" lon="4.89724">
        <ele>179.5</ele>
        <time>2022-04-14T10:57:52+02:00</time>
      </trkpt>
      <trkpt lat="44.40067" lon="4.89719">
        <ele>178.90039</ele>
        <time>2022-04-14T10:57:57+02:00</time>
      </trkpt>
      <trkpt lat="44.40049" lon="4.89716">
        <ele>178</ele>
        <time>2022-04-14T10:58:02+02:00</time>
      </trkpt>
      <trkpt lat="44.40038" lon="4.89713">
        <ele>177.7002</ele>
        <time>2022-04-14T10:58:07+02:00</time>
      </trkpt>
      <trkpt lat="44.4002" lon="4.8971">
        <ele>176.60059</ele>
        <time>2022-04-14T10:58:12+02:00</time>
      </trkpt>
      <trkpt lat="44.39995" lon="4.89706">
        <ele>174.90039</ele>
        <time>2022-04-14T10:58:17+02:00</time>
      </trkpt>
      <trkpt lat="44.39974" lon="4.89703">
        <ele>172.2002</ele>
        <time>2022-04-14T10:58:22+02:00</time>
      </trkpt>
      <trkpt lat="44.3995" lon="4.89697">
        <ele>168.90039</ele>
        <time>2022-04-14T10:58:27+02:00</time>
      </trkpt>
      <trkpt lat="44.39933" lon="4.89693">
        <ele>167.5</ele>
        <time>2022-04-14T10:58:32+02:00</time>
      </trkpt>
      <trkpt lat="44.39921" lon="4.89689">
        <ele>166.5</ele>
        <time>2022-04-14T10:58:37+02:00</time>
      </trkpt>
      <trkpt lat="44.39906" lon="4.8969">
        <ele>165.40039</ele>
        <time>2022-04-14T10:58:42+02:00</time>
      </trkpt>
      <trkpt lat="44.399" lon="4.89688">
        <ele>165.10059</ele>
        <time>2022-04-14T10:58:47+02:00</time>
      </trkpt>
      <trkpt lat="44.39898" lon="4.89683">
        <ele>165.10059</ele>
        <time>2022-04-14T10:58:52+02:00</time>
      </trkpt>
      <trkpt lat="44.39902" lon="4.89671">
        <ele>165.40039</ele>
        <time>2022-04-14T10:58:57+02:00</time>
      </trkpt>
      <trkpt lat="44.39914" lon="4.89658">
        <ele>165.7998</ele>
        <time>2022-04-14T10:59:02+02:00</time>
      </trkpt>
      <trkpt lat="44.39922" lon="4.8964">
        <ele>166.40039</ele>
        <time>2022-04-14T10:59:07+02:00</time>
      </trkpt>
      <trkpt lat="44.39934" lon="4.89623">
        <ele>167.2998</ele>
        <time>2022-04-14T10:59:12+02:00</time>
      </trkpt>
      <trkpt lat="44.39946" lon="4.89605">
        <ele>168.2002</ele>
        <time>2022-04-14T10:59:17+02:00</time>
      </trkpt>
      <trkpt lat="44.39959" lon="4.89585">
        <ele>169.5</ele>
        <time>2022-04-14T10:59:22+02:00</time>
      </trkpt>
      <trkpt lat="44.39969" lon="4.89568">
        <ele>170.7998</ele>
        <time>2022-04-14T10:59:27+02:00</time>
      </trkpt>
      <trkpt lat="44.39976" lon="4.89556">
        <ele>172.2002</ele>
        <time>2022-04-14T10:59:32+02:00</time>
      </trkpt>
      <trkpt lat="44.39985" lon="4.89546">
        <ele>173.10059</ele>
        <time>2022-04-14T10:59:37+02:00</time>
      </trkpt>
      <trkpt lat="44.39995" lon="4.89524">
        <ele>175.2998</ele>
        <time>2022-04-14T10:59:42+02:00</time>
      </trkpt>
      <trkpt lat="44.40003" lon="4.89502">
        <ele>176.40039</ele>
        <time>2022-04-14T10:59:47+02:00</time>
      </trkpt>
      <trkpt lat="44.40011" lon="4.89482">
        <ele>177.7998</ele>
        <time>2022-04-14T10:59:52+02:00</time>
      </trkpt>
      <trkpt lat="44.40019" lon="4.89461">
        <ele>178.7998</ele>
        <time>2022-04-14T10:59:57+02:00</time>
      </trkpt>
      <trkpt lat="44.40028" lon="4.89441">
        <ele>179.7002</ele>
        <time>2022-04-14T11:00:02+02:00</time>
      </trkpt>
      <trkpt lat="44.40038" lon="4.8942">
        <ele>180.5</ele>
        <time>2022-04-14T11:00:07+02:00</time>
      </trkpt>
      <trkpt lat="44.40048" lon="4.89399">
        <ele>181.10059</ele>
        <time>2022-04-14T11:00:12+02:00</time>
      </trkpt>
      <trkpt lat="44.40057" lon="4.89384">
        <ele>181.7998</ele>
        <time>2022-04-14T11:00:17+02:00</time>
      </trkpt>
      <trkpt lat="44.40065" lon="4.89367">
        <ele>182.2002</ele>
        <time>2022-04-14T11:00:22+02:00</time>
      </trkpt>
      <trkpt lat="44.4008" lon="4.89349">
        <ele>182.10059</ele>
        <time>2022-04-14T11:00:27+02:00</time>
      </trkpt>
      <trkpt lat="44.40098" lon="4.89331">
        <ele>181.2002</ele>
        <time>2022-04-14T11:00:32+02:00</time>
      </trkpt>
      <trkpt lat="44.40112" lon="4.89319">
        <ele>180</ele>
        <time>2022-04-14T11:00:37+02:00</time>
      </trkpt>
      <trkpt lat="44.40135" lon="4.89313">
        <ele>179.7998</ele>
        <time>2022-04-14T11:00:42+02:00</time>
      </trkpt>
      <trkpt lat="44.40152" lon="4.89304">
        <ele>178.7998</ele>
        <time>2022-04-14T11:00:47+02:00</time>
      </trkpt>
      <trkpt lat="44.40163" lon="4.89292">
        <ele>177.2998</ele>
        <time>2022-04-14T11:00:52+02:00</time>
      </trkpt>
      <trkpt lat="44.40159" lon="4.89282">
        <ele>176.90039</ele>
        <time>2022-04-14T11:00:57+02:00</time>
      </trkpt>
      <trkpt lat="44.40145" lon="4.89269">
        <ele>176.10059</ele>
        <time>2022-04-14T11:01:02+02:00</time>
      </trkpt>
      <trkpt lat="44.4013" lon="4.89252">
        <ele>175.10059</ele>
        <time>2022-04-14T11:01:07+02:00</time>
      </trkpt>
      <trkpt lat="44.40125" lon="4.89229">
        <ele>174.10059</ele>
        <time>2022-04-14T11:01:12+02:00</time>
      </trkpt>
      <trkpt lat="44.40126" lon="4.89203">
        <ele>172.40039</ele>
        <time>2022-04-14T11:01:17+02:00</time>
      </trkpt>
      <trkpt lat="44.40128" lon="4.89174">
        <ele>169.7998</ele>
        <time>2022-04-14T11:01:22+02:00</time>
      </trkpt>
      <trkpt lat="44.4013" lon="4.8914">
        <ele>167.60059</ele>
        <time>2022-04-14T11:01:27+02:00</time>
      </trkpt>
      <trkpt lat="44.40132" lon="4.89106">
        <ele>166.7998</ele>
        <time>2022-04-14T11:01:32+02:00</time>
      </trkpt>
      <trkpt lat="44.40133" lon="4.89074">
        <ele>166.2998</ele>
        <time>2022-04-14T11:01:37+02:00</time>
      </trkpt>
      <trkpt lat="44.4012" lon="4.89054">
        <ele>166.40039</ele>
        <time>2022-04-14T11:01:42+02:00</time>
      </trkpt>
      <trkpt lat="44.401" lon="4.89048">
        <ele>166.2002</ele>
        <time>2022-04-14T11:01:47+02:00</time>
      </trkpt>
      <trkpt lat="44.40086" lon="4.89032">
        <ele>166</ele>
        <time>2022-04-14T11:01:52+02:00</time>
      </trkpt>
      <trkpt lat="44.40083" lon="4.89004">
        <ele>166.10059</ele>
        <time>2022-04-14T11:01:57+02:00</time>
      </trkpt>
      <trkpt lat="44.4008" lon="4.88974">
        <ele>167</ele>
        <time>2022-04-14T11:02:02+02:00</time>
      </trkpt>
      <trkpt lat="44.40079" lon="4.88954">
        <ele>167.5</ele>
        <time>2022-04-14T11:02:07+02:00</time>
      </trkpt>
      <trkpt lat="44.40071" lon="4.88938">
        <ele>168.2998</ele>
        <time>2022-04-14T11:02:12+02:00</time>
      </trkpt>
      <trkpt lat="44.40057" lon="4.88923">
        <ele>169</ele>
        <time>2022-04-14T11:02:17+02:00</time>
      </trkpt>
      <trkpt lat="44.40042" lon="4.88907">
        <ele>169.5</ele>
        <time>2022-04-14T11:02:22+02:00</time>
      </trkpt>
      <trkpt lat="44.40033" lon="4.88885">
        <ele>170.40039</ele>
        <time>2022-04-14T11:02:27+02:00</time>
      </trkpt>
      <trkpt lat="44.40026" lon="4.88862">
        <ele>171.2998</ele>
        <time>2022-04-14T11:02:32+02:00</time>
      </trkpt>
      <trkpt lat="44.4002" lon="4.88839">
        <ele>171.2002</ele>
        <time>2022-04-14T11:02:37+02:00</time>
      </trkpt>
      <trkpt lat="44.40016" lon="4.88815">
        <ele>171.10059</ele>
        <time>2022-04-14T11:02:42+02:00</time>
      </trkpt>
      <trkpt lat="44.40007" lon="4.88795">
        <ele>171</ele>
        <time>2022-04-14T11:02:47+02:00</time>
      </trkpt>
      <trkpt lat="44.3999" lon="4.8879">
        <ele>170.90039</ele>
        <time>2022-04-14T11:02:52+02:00</time>
      </trkpt>
      <trkpt lat="44.39976" lon="4.88776">
        <ele>170.7002</ele>
        <time>2022-04-14T11:02:57+02:00</time>
      </trkpt>
      <trkpt lat="44.39967" lon="4.88753">
        <ele>170.40039</ele>
        <time>2022-04-14T11:03:02+02:00</time>
      </trkpt>
      <trkpt lat="44.39956" lon="4.88733">
        <ele>170.10059</ele>
        <time>2022-04-14T11:03:07+02:00</time>
      </trkpt>
      <trkpt lat="44.39946" lon="4.88709">
        <ele>169.40039</ele>
        <time>2022-04-14T11:03:12+02:00</time>
      </trkpt>
      <trkpt lat="44.39938" lon="4.8868">
        <ele>168.40039</ele>
        <time>2022-04-14T11:03:17+02:00</time>
      </trkpt>
      <trkpt lat="44.39929" lon="4.88652">
        <ele>168</ele>
        <time>2022-04-14T11:03:22+02:00</time>
      </trkpt>
      <trkpt lat="44.39916" lon="4.88628">
        <ele>168.2002</ele>
        <time>2022-04-14T11:03:27+02:00</time>
      </trkpt>
      <trkpt lat="44.39903" lon="4.88605">
        <ele>168.60059</ele>
        <time>2022-04-14T11:03:32+02:00</time>
      </trkpt>
      <trkpt lat="44.39888" lon="4.88582">
        <ele>169.40039</ele>
        <time>2022-04-14T11:03:37+02:00</time>
      </trkpt>
      <trkpt lat="44.39873" lon="4.8856">
        <ele>170.2002</ele>
        <time>2022-04-14T11:03:42+02:00</time>
      </trkpt>
      <trkpt lat="44.39858" lon="4.88538">
        <ele>171.7002</ele>
        <time>2022-04-14T11:03:47+02:00</time>
      </trkpt>
      <trkpt lat="44.39842" lon="4.88515">
        <ele>172.7002</ele>
        <time>2022-04-14T11:03:52+02:00</time>
      </trkpt>
      <trkpt lat="44.39829" lon="4.88493">
        <ele>174.2998</ele>
        <time>2022-04-14T11:03:57+02:00</time>
      </trkpt>
      <trkpt lat="44.39818" lon="4.88475">
        <ele>175</ele>
        <time>2022-04-14T11:04:02+02:00</time>
      </trkpt>
      <trkpt lat="44.39809" lon="4.88461">
        <ele>175.40039</ele>
        <time>2022-04-14T11:04:07+02:00</time>
      </trkpt>
      <trkpt lat="44.398" lon="4.88449">
        <ele>175.5</ele>
        <time>2022-04-14T11:04:12+02:00</time>
      </trkpt>
      <trkpt lat="44.39788" lon="4.8843">
        <ele>176.10059</ele>
        <time>2022-04-14T11:04:17+02:00</time>
      </trkpt>
      <trkpt lat="44.39772" lon="4.88413">
        <ele>176.7002</ele>
        <time>2022-04-14T11:04:22+02:00</time>
      </trkpt>
      <trkpt lat="44.39756" lon="4.88396">
        <ele>177.7002</ele>
        <time>2022-04-14T11:04:27+02:00</time>
      </trkpt>
      <trkpt lat="44.3974" lon="4.88379">
        <ele>178.2002</ele>
        <time>2022-04-14T11:04:32+02:00</time>
      </trkpt>
      <trkpt lat="44.39726" lon="4.88363">
        <ele>178.7002</ele>
        <time>2022-04-14T11:04:37+02:00</time>
      </trkpt>
      <trkpt lat="44.39714" lon="4.88348">
        <ele>178.90039</ele>
        <time>2022-04-14T11:04:42+02:00</time>
      </trkpt>
      <trkpt lat="44.39702" lon="4.88334">
        <ele>179.40039</ele>
        <time>2022-04-14T11:04:47+02:00</time>
      </trkpt>
      <trkpt lat="44.39693" lon="4.88319">
        <ele>179.7002</ele>
        <time>2022-04-14T11:04:52+02:00</time>
      </trkpt>
      <trkpt lat="44.39692" lon="4.88312">
        <ele>180.40039</ele>
        <time>2022-04-14T11:04:57+02:00</time>
      </trkpt>
      <trkpt lat="44.39696" lon="4.883">
        <ele>181.10059</ele>
        <time>2022-04-14T11:05:02+02:00</time>
      </trkpt>
      <trkpt lat="44.39702" lon="4.88282">
        <ele>183.2002</ele>
        <time>2022-04-14T11:05:07+02:00</time>
      </trkpt>
      <trkpt lat="44.39707" lon="4.88264">
        <ele>184.40039</ele>
        <time>2022-04-14T11:05:12+02:00</time>
      </trkpt>
      <trkpt lat="44.39711" lon="4.88247">
        <ele>185.2002</ele>
        <time>2022-04-14T11:05:17+02:00</time>
      </trkpt>
      <trkpt lat="44.39714" lon="4.88236">
        <ele>185.5</ele>
        <time>2022-04-14T11:05:22+02:00</time>
      </trkpt>
      <trkpt lat="44.39714" lon="4.88231">
        <ele>185.60059</ele>
        <time>2022-04-14T11:05:27+02:00</time>
      </trkpt>
      <trkpt lat="44.39699" lon="4.8822">
        <ele>185.5</ele>
        <time>2022-04-14T11:05:32+02:00</time>
      </trkpt>
      <trkpt lat="44.39689" lon="4.88213">
        <ele>185.2002</ele>
        <time>2022-04-14T11:05:37+02:00</time>
      </trkpt>
      <trkpt lat="44.39676" lon="4.8821">
        <ele>185.10059</ele>
        <time>2022-04-14T11:05:42+02:00</time>
      </trkpt>
      <trkpt lat="44.39662" lon="4.88215">
        <ele>185.2998</ele>
        <time>2022-04-14T11:05:47+02:00</time>
      </trkpt>
      <trkpt lat="44.39647" lon="4.88222">
        <ele>185.2998</ele>
        <time>2022-04-14T11:05:52+02:00</time>
      </trkpt>
      <trkpt lat="44.39626" lon="4.88221">
        <ele>185.60059</ele>
        <time>2022-04-14T11:05:57+02:00</time>
      </trkpt>
      <trkpt lat="44.3961" lon="4.88208">
        <ele>186.10059</ele>
        <time>2022-04-14T11:06:02+02:00</time>
      </trkpt>
      <trkpt lat="44.3959" lon="4.88193">
        <ele>186.7002</ele>
        <time>2022-04-14T11:06:07+02:00</time>
      </trkpt>
      <trkpt lat="44.39582" lon="4.88179">
        <ele>186.60059</ele>
        <time>2022-04-14T11:06:12+02:00</time>
      </trkpt>
      <trkpt lat="44.39597" lon="4.88152">
        <ele>181.10059</ele>
        <time>2022-04-14T11:06:17+02:00</time>
      </trkpt>
      <trkpt lat="44.39615" lon="4.88118">
        <ele>178</ele>
        <time>2022-04-14T11:06:22+02:00</time>
      </trkpt>
      <trkpt lat="44.39626" lon="4.88096">
        <ele>177.7002</ele>
        <time>2022-04-14T11:06:27+02:00</time>
      </trkpt>
      <trkpt lat="44.39629" lon="4.88084">
        <ele>177</ele>
        <time>2022-04-14T11:06:32+02:00</time>
      </trkpt>
      <trkpt lat="44.39633" lon="4.88055">
        <ele>176.10059</ele>
        <time>2022-04-14T11:06:37+02:00</time>
      </trkpt>
      <trkpt lat="44.39639" lon="4.88017">
        <ele>175.5</ele>
        <time>2022-04-14T11:06:42+02:00</time>
      </trkpt>
      <trkpt lat="44.39641" lon="4.87981">
        <ele>175.5</ele>
        <time>2022-04-14T11:06:47+02:00</time>
      </trkpt>
      <trkpt lat="44.39637" lon="4.87942">
        <ele>175.90039</ele>
        <time>2022-04-14T11:06:52+02:00</time>
      </trkpt>
      <trkpt lat="44.39628" lon="4.87904">
        <ele>176</ele>
        <time>2022-04-14T11:06:57+02:00</time>
      </trkpt>
      <trkpt lat="44.3962" lon="4.87867">
        <ele>175.5</ele>
        <time>2022-04-14T11:07:02+02:00</time>
      </trkpt>
      <trkpt lat="44.3962" lon="4.87836">
        <ele>175.60059</ele>
        <time>2022-04-14T11:07:07+02:00</time>
      </trkpt>
      <trkpt lat="44.39632" lon="4.87805">
        <ele>175.40039</ele>
        <time>2022-04-14T11:07:12+02:00</time>
      </trkpt>
      <trkpt lat="44.39647" lon="4.87775">
        <ele>175.2998</ele>
        <time>2022-04-14T11:07:17+02:00</time>
      </trkpt>
      <trkpt lat="44.39669" lon="4.87753">
        <ele>175.2002</ele>
        <time>2022-04-14T11:07:22+02:00</time>
      </trkpt>
      <trkpt lat="44.39678" lon="4.87721">
        <ele>174.40039</ele>
        <time>2022-04-14T11:07:27+02:00</time>
      </trkpt>
      <trkpt lat="44.39679" lon="4.87683">
        <ele>174</ele>
        <time>2022-04-14T11:07:32+02:00</time>
      </trkpt>
      <trkpt lat="44.39689" lon="4.87645">
        <ele>174.40039</ele>
        <time>2022-04-14T11:07:37+02:00</time>
      </trkpt>
      <trkpt lat="44.39695" lon="4.87609">
        <ele>174.90039</ele>
        <time>2022-04-14T11:07:42+02:00</time>
      </trkpt>
      <trkpt lat="44.39697" lon="4.87579">
        <ele>175.40039</ele>
        <time>2022-04-14T11:07:47+02:00</time>
      </trkpt>
      <trkpt lat="44.39687" lon="4.87561">
        <ele>176.2002</ele>
        <time>2022-04-14T11:07:52+02:00</time>
      </trkpt>
      <trkpt lat="44.39671" lon="4.87545">
        <ele>176.40039</ele>
        <time>2022-04-14T11:07:57+02:00</time>
      </trkpt>
      <trkpt lat="44.3967" lon="4.87518">
        <ele>177.7998</ele>
        <time>2022-04-14T11:08:02+02:00</time>
      </trkpt>
      <trkpt lat="44.39679" lon="4.87488">
        <ele>178.90039</ele>
        <time>2022-04-14T11:08:07+02:00</time>
      </trkpt>
      <trkpt lat="44.39684" lon="4.87458">
        <ele>179.90039</ele>
        <time>2022-04-14T11:08:12+02:00</time>
      </trkpt>
      <trkpt lat="44.39683" lon="4.87428">
        <ele>181.60059</ele>
        <time>2022-04-14T11:08:17+02:00</time>
      </trkpt>
      <trkpt lat="44.39684" lon="4.87398">
        <ele>183.2002</ele>
        <time>2022-04-14T11:08:22+02:00</time>
      </trkpt>
      <trkpt lat="44.39684" lon="4.87366">
        <ele>183.60059</ele>
        <time>2022-04-14T11:08:27+02:00</time>
      </trkpt>
      <trkpt lat="44.39684" lon="4.87334">
        <ele>184.10059</ele>
        <time>2022-04-14T11:08:32+02:00</time>
      </trkpt>
      <trkpt lat="44.39685" lon="4.87303">
        <ele>185.2002</ele>
        <time>2022-04-14T11:08:37+02:00</time>
      </trkpt>
      <trkpt lat="44.39683" lon="4.87274">
        <ele>186.2002</ele>
        <time>2022-04-14T11:08:42+02:00</time>
      </trkpt>
      <trkpt lat="44.39673" lon="4.87249">
        <ele>186.90039</ele>
        <time>2022-04-14T11:08:47+02:00</time>
      </trkpt>
      <trkpt lat="44.39664" lon="4.87221">
        <ele>187.60059</ele>
        <time>2022-04-14T11:08:52+02:00</time>
      </trkpt>
      <trkpt lat="44.39656" lon="4.87188">
        <ele>188.5</ele>
        <time>2022-04-14T11:08:57+02:00</time>
      </trkpt>
      <trkpt lat="44.39646" lon="4.87157">
        <ele>189.5</ele>
        <time>2022-04-14T11:09:02+02:00</time>
      </trkpt>
      <trkpt lat="44.39634" lon="4.8713">
        <ele>190</ele>
        <time>2022-04-14T11:09:07+02:00</time>
      </trkpt>
      <trkpt lat="44.39618" lon="4.87105">
        <ele>190.40039</ele>
        <time>2022-04-14T11:09:12+02:00</time>
      </trkpt>
      <trkpt lat="44.39604" lon="4.87078">
        <ele>190.7002</ele>
        <time>2022-04-14T11:09:17+02:00</time>
      </trkpt>
      <trkpt lat="44.39596" lon="4.87049">
        <ele>191.10059</ele>
        <time>2022-04-14T11:09:22+02:00</time>
      </trkpt>
      <trkpt lat="44.39585" lon="4.87019">
        <ele>191.2998</ele>
        <time>2022-04-14T11:09:27+02:00</time>
      </trkpt>
      <trkpt lat="44.39576" lon="4.86991">
        <ele>191.2002</ele>
        <time>2022-04-14T11:09:32+02:00</time>
      </trkpt>
      <trkpt lat="44.39568" lon="4.86966">
        <ele>190.7002</ele>
        <time>2022-04-14T11:09:37+02:00</time>
      </trkpt>
      <trkpt lat="44.39564" lon="4.86949">
        <ele>190.2002</ele>
        <time>2022-04-14T11:09:42+02:00</time>
      </trkpt>
      <trkpt lat="44.39567" lon="4.86932">
        <ele>189.2002</ele>
        <time>2022-04-14T11:09:47+02:00</time>
      </trkpt>
      <trkpt lat="44.39571" lon="4.86915">
        <ele>187.90039</ele>
        <time>2022-04-14T11:09:52+02:00</time>
      </trkpt>
      <trkpt lat="44.3958" lon="4.86901">
        <ele>187.2998</ele>
        <time>2022-04-14T11:09:57+02:00</time>
      </trkpt>
      <trkpt lat="44.396" lon="4.86903">
        <ele>187.60059</ele>
        <time>2022-04-14T11:10:02+02:00</time>
      </trkpt>
      <trkpt lat="44.39629" lon="4.86903">
        <ele>187.60059</ele>
        <time>2022-04-14T11:10:07+02:00</time>
      </trkpt>
      <trkpt lat="44.39647" lon="4.86896">
        <ele>187.10059</ele>
        <time>2022-04-14T11:10:12+02:00</time>
      </trkpt>
      <trkpt lat="44.39658" lon="4.86892">
        <ele>186.7998</ele>
        <time>2022-04-14T11:10:17+02:00</time>
      </trkpt>
      <trkpt lat="44.39657" lon="4.86884">
        <ele>186.7998</ele>
        <time>2022-04-14T11:10:22+02:00</time>
      </trkpt>
      <trkpt lat="44.39653" lon="4.86883">
        <ele>186.7002</ele>
        <time>2022-04-14T11:10:27+02:00</time>
      </trkpt>
      <trkpt lat="44.39639" lon="4.86878">
        <ele>185.90039</ele>
        <time>2022-04-14T11:10:32+02:00</time>
      </trkpt>
      <trkpt lat="44.39619" lon="4.86872">
        <ele>185.2002</ele>
        <time>2022-04-14T11:10:37+02:00</time>
      </trkpt>
      <trkpt lat="44.39594" lon="4.86864">
        <ele>184.2998</ele>
        <time>2022-04-14T11:10:42+02:00</time>
      </trkpt>
      <trkpt lat="44.39568" lon="4.86853">
        <ele>183.60059</ele>
        <time>2022-04-14T11:10:47+02:00</time>
      </trkpt>
      <trkpt lat="44.39539" lon="4.8684">
        <ele>183.60059</ele>
        <time>2022-04-14T11:10:52+02:00</time>
      </trkpt>
      <trkpt lat="44.39509" lon="4.86829">
        <ele>184.10059</ele>
        <time>2022-04-14T11:10:57+02:00</time>
      </trkpt>
      <trkpt lat="44.39483" lon="4.86817">
        <ele>183.7998</ele>
        <time>2022-04-14T11:11:02+02:00</time>
      </trkpt>
      <trkpt lat="44.39457" lon="4.86808">
        <ele>182.7998</ele>
        <time>2022-04-14T11:11:07+02:00</time>
      </trkpt>
      <trkpt lat="44.39433" lon="4.86804">
        <ele>181.7998</ele>
        <time>2022-04-14T11:11:12+02:00</time>
      </trkpt>
      <trkpt lat="44.39412" lon="4.86801">
        <ele>181.40039</ele>
        <time>2022-04-14T11:11:17+02:00</time>
      </trkpt>
      <trkpt lat="44.39392" lon="4.86799">
        <ele>180.7998</ele>
        <time>2022-04-14T11:11:22+02:00</time>
      </trkpt>
      <trkpt lat="44.39368" lon="4.86794">
        <ele>180.60059</ele>
        <time>2022-04-14T11:11:27+02:00</time>
      </trkpt>
      <trkpt lat="44.39343" lon="4.86793">
        <ele>181</ele>
        <time>2022-04-14T11:11:32+02:00</time>
      </trkpt>
      <trkpt lat="44.39315" lon="4.86791">
        <ele>181.2002</ele>
        <time>2022-04-14T11:11:37+02:00</time>
      </trkpt>
      <trkpt lat="44.39289" lon="4.8679">
        <ele>181.10059</ele>
        <time>2022-04-14T11:11:42+02:00</time>
      </trkpt>
      <trkpt lat="44.39264" lon="4.86788">
        <ele>179.7998</ele>
        <time>2022-04-14T11:11:47+02:00</time>
      </trkpt>
      <trkpt lat="44.39239" lon="4.86784">
        <ele>178</ele>
        <time>2022-04-14T11:11:52+02:00</time>
      </trkpt>
      <trkpt lat="44.39219" lon="4.8677">
        <ele>175</ele>
        <time>2022-04-14T11:11:57+02:00</time>
      </trkpt>
      <trkpt lat="44.39199" lon="4.86751">
        <ele>174.2998</ele>
        <time>2022-04-14T11:12:02+02:00</time>
      </trkpt>
      <trkpt lat="44.39176" lon="4.86733">
        <ele>173.7002</ele>
        <time>2022-04-14T11:12:07+02:00</time>
      </trkpt>
      <trkpt lat="44.39153" lon="4.86714">
        <ele>173.10059</ele>
        <time>2022-04-14T11:12:12+02:00</time>
      </trkpt>
      <trkpt lat="44.39129" lon="4.867">
        <ele>172.90039</ele>
        <time>2022-04-14T11:12:17+02:00</time>
      </trkpt>
      <trkpt lat="44.39104" lon="4.86702">
        <ele>172</ele>
        <time>2022-04-14T11:12:22+02:00</time>
      </trkpt>
      <trkpt lat="44.39079" lon="4.86709">
        <ele>171.5</ele>
        <time>2022-04-14T11:12:27+02:00</time>
      </trkpt>
      <trkpt lat="44.39053" lon="4.86716">
        <ele>170.2998</ele>
        <time>2022-04-14T11:12:32+02:00</time>
      </trkpt>
      <trkpt lat="44.39025" lon="4.86716">
        <ele>170.5</ele>
        <time>2022-04-14T11:12:37+02:00</time>
      </trkpt>
      <trkpt lat="44.38997" lon="4.86715">
        <ele>170.60059</ele>
        <time>2022-04-14T11:12:42+02:00</time>
      </trkpt>
      <trkpt lat="44.38968" lon="4.86717">
        <ele>169.90039</ele>
        <time>2022-04-14T11:12:47+02:00</time>
      </trkpt>
      <trkpt lat="44.3894" lon="4.8672">
        <ele>169.2002</ele>
        <time>2022-04-14T11:12:52+02:00</time>
      </trkpt>
      <trkpt lat="44.38908" lon="4.86718">
        <ele>167.90039</ele>
        <time>2022-04-14T11:12:57+02:00</time>
      </trkpt>
      <trkpt lat="44.38875" lon="4.86718">
        <ele>167.2002</ele>
        <time>2022-04-14T11:13:02+02:00</time>
      </trkpt>
      <trkpt lat="44.38841" lon="4.86716">
        <ele>166.60059</ele>
        <time>2022-04-14T11:13:07+02:00</time>
      </trkpt>
      <trkpt lat="44.38808" lon="4.86714">
        <ele>166.2998</ele>
        <time>2022-04-14T11:13:12+02:00</time>
      </trkpt>
      <trkpt lat="44.38776" lon="4.86712">
        <ele>165.7998</ele>
        <time>2022-04-14T11:13:17+02:00</time>
      </trkpt>
      <trkpt lat="44.38743" lon="4.86709">
        <ele>166.7002</ele>
        <time>2022-04-14T11:13:22+02:00</time>
      </trkpt>
      <trkpt lat="44.3871" lon="4.86701">
        <ele>167.2002</ele>
        <time>2022-04-14T11:13:27+02:00</time>
      </trkpt>
      <trkpt lat="44.38678" lon="4.86693">
        <ele>167.90039</ele>
        <time>2022-04-14T11:13:32+02:00</time>
      </trkpt>
      <trkpt lat="44.38646" lon="4.86683">
        <ele>167.2998</ele>
        <time>2022-04-14T11:13:37+02:00</time>
      </trkpt>
      <trkpt lat="44.38614" lon="4.86677">
        <ele>166.2002</ele>
        <time>2022-04-14T11:13:42+02:00</time>
      </trkpt>
      <trkpt lat="44.38582" lon="4.86668">
        <ele>165.7998</ele>
        <time>2022-04-14T11:13:47+02:00</time>
      </trkpt>
      <trkpt lat="44.3855" lon="4.86658">
        <ele>166.7002</ele>
        <time>2022-04-14T11:13:52+02:00</time>
      </trkpt>
      <trkpt lat="44.38521" lon="4.8665">
        <ele>166.2002</ele>
        <time>2022-04-14T11:13:57+02:00</time>
      </trkpt>
      <trkpt lat="44.38492" lon="4.86648">
        <ele>164.7002</ele>
        <time>2022-04-14T11:14:02+02:00</time>
      </trkpt>
      <trkpt lat="44.38466" lon="4.86643">
        <ele>163.60059</ele>
        <time>2022-04-14T11:14:07+02:00</time>
      </trkpt>
      <trkpt lat="44.38442" lon="4.86641">
        <ele>166.5</ele>
        <time>2022-04-14T11:14:12+02:00</time>
      </trkpt>
      <trkpt lat="44.38427" lon="4.86638">
        <ele>166.5</ele>
        <time>2022-04-14T11:14:17+02:00</time>
      </trkpt>
      <trkpt lat="44.3841" lon="4.86633">
        <ele>167</ele>
        <time>2022-04-14T11:14:22+02:00</time>
      </trkpt>
      <trkpt lat="44.38385" lon="4.86622">
        <ele>170.7002</ele>
        <time>2022-04-14T11:14:27+02:00</time>
      </trkpt>
      <trkpt lat="44.38355" lon="4.86614">
        <ele>169.90039</ele>
        <time>2022-04-14T11:14:32+02:00</time>
      </trkpt>
      <trkpt lat="44.38324" lon="4.86603">
        <ele>169.2998</ele>
        <time>2022-04-14T11:14:37+02:00</time>
      </trkpt>
      <trkpt lat="44.38293" lon="4.8659">
        <ele>167.5</ele>
        <time>2022-04-14T11:14:42+02:00</time>
      </trkpt>
      <trkpt lat="44.38261" lon="4.86577">
        <ele>163</ele>
        <time>2022-04-14T11:14:47+02:00</time>
      </trkpt>
      <trkpt lat="44.38229" lon="4.86562">
        <ele>162</ele>
        <time>2022-04-14T11:14:52+02:00</time>
      </trkpt>
      <trkpt lat="44.38197" lon="4.86545">
        <ele>161.2998</ele>
        <time>2022-04-14T11:14:57+02:00</time>
      </trkpt>
      <trkpt lat="44.38165" lon="4.86528">
        <ele>160.7998</ele>
        <time>2022-04-14T11:15:02+02:00</time>
      </trkpt>
      <trkpt lat="44.38137" lon="4.86512">
        <ele>160.10059</ele>
        <time>2022-04-14T11:15:07+02:00</time>
      </trkpt>
      <trkpt lat="44.38121" lon="4.86503">
        <ele>160.5</ele>
        <time>2022-04-14T11:15:12+02:00</time>
      </trkpt>
      <trkpt lat="44.38106" lon="4.8649">
        <ele>159.90039</ele>
        <time>2022-04-14T11:15:17+02:00</time>
      </trkpt>
      <trkpt lat="44.3809" lon="4.86475">
        <ele>159.7998</ele>
        <time>2022-04-14T11:15:22+02:00</time>
      </trkpt>
      <trkpt lat="44.38071" lon="4.86455">
        <ele>160.2002</ele>
        <time>2022-04-14T11:15:27+02:00</time>
      </trkpt>
      <trkpt lat="44.3805" lon="4.86432">
        <ele>161</ele>
        <time>2022-04-14T11:15:32+02:00</time>
      </trkpt>
      <trkpt lat="44.38028" lon="4.86409">
        <ele>160</ele>
        <time>2022-04-14T11:15:37+02:00</time>
      </trkpt>
      <trkpt lat="44.38006" lon="4.86385">
        <ele>159.7998</ele>
        <time>2022-04-14T11:15:42+02:00</time>
      </trkpt>
      <trkpt lat="44.37982" lon="4.8636">
        <ele>159.7002</ele>
        <time>2022-04-14T11:15:47+02:00</time>
      </trkpt>
      <trkpt lat="44.37957" lon="4.86337">
        <ele>160</ele>
        <time>2022-04-14T11:15:52+02:00</time>
      </trkpt>
      <trkpt lat="44.37932" lon="4.86316">
        <ele>162.10059</ele>
        <time>2022-04-14T11:15:57+02:00</time>
      </trkpt>
      <trkpt lat="44.37909" lon="4.86292">
        <ele>162.7002</ele>
        <time>2022-04-14T11:16:02+02:00</time>
      </trkpt>
      <trkpt lat="44.37885" lon="4.8627">
        <ele>162.40039</ele>
        <time>2022-04-14T11:16:07+02:00</time>
      </trkpt>
      <trkpt lat="44.37863" lon="4.86247">
        <ele>162.5</ele>
        <time>2022-04-14T11:16:12+02:00</time>
      </trkpt>
      <trkpt lat="44.37842" lon="4.86224">
        <ele>161.7002</ele>
        <time>2022-04-14T11:16:17+02:00</time>
      </trkpt>
      <trkpt lat="44.37821" lon="4.86201">
        <ele>160.7998</ele>
        <time>2022-04-14T11:16:22+02:00</time>
      </trkpt>
      <trkpt lat="44.37801" lon="4.86174">
        <ele>161.60059</ele>
        <time>2022-04-14T11:16:27+02:00</time>
      </trkpt>
      <trkpt lat="44.37784" lon="4.86144">
        <ele>162</ele>
        <time>2022-04-14T11:16:32+02:00</time>
      </trkpt>
      <trkpt lat="44.37769" lon="4.86114">
        <ele>162.40039</ele>
        <time>2022-04-14T11:16:37+02:00</time>
      </trkpt>
      <trkpt lat="44.37755" lon="4.86084">
        <ele>163.40039</ele>
        <time>2022-04-14T11:16:42+02:00</time>
      </trkpt>
      <trkpt lat="44.3774" lon="4.86055">
        <ele>163.60059</ele>
        <time>2022-04-14T11:16:47+02:00</time>
      </trkpt>
      <trkpt lat="44.37728" lon="4.8603">
        <ele>163.40039</ele>
        <time>2022-04-14T11:16:52+02:00</time>
      </trkpt>
      <trkpt lat="44.37717" lon="4.86009">
        <ele>163.40039</ele>
        <time>2022-04-14T11:16:57+02:00</time>
      </trkpt>
      <trkpt lat="44.3771" lon="4.85992">
        <ele>163.40039</ele>
        <time>2022-04-14T11:17:02+02:00</time>
      </trkpt>
      <trkpt lat="44.37703" lon="4.85966">
        <ele>163.5</ele>
        <time>2022-04-14T11:17:07+02:00</time>
      </trkpt>
      <trkpt lat="44.37694" lon="4.85934">
        <ele>163.5</ele>
        <time>2022-04-14T11:17:12+02:00</time>
      </trkpt>
      <trkpt lat="44.37682" lon="4.85903">
        <ele>163.40039</ele>
        <time>2022-04-14T11:17:17+02:00</time>
      </trkpt>
      <trkpt lat="44.37668" lon="4.85871">
        <ele>163.10059</ele>
        <time>2022-04-14T11:17:22+02:00</time>
      </trkpt>
      <trkpt lat="44.37655" lon="4.85839">
        <ele>162.7998</ele>
        <time>2022-04-14T11:17:27+02:00</time>
      </trkpt>
      <trkpt lat="44.37641" lon="4.85806">
        <ele>162.90039</ele>
        <time>2022-04-14T11:17:32+02:00</time>
      </trkpt>
      <trkpt lat="44.37625" lon="4.85773">
        <ele>163.2998</ele>
        <time>2022-04-14T11:17:37+02:00</time>
      </trkpt>
      <trkpt lat="44.37608" lon="4.85741">
        <ele>164.2002</ele>
        <time>2022-04-14T11:17:42+02:00</time>
      </trkpt>
      <trkpt lat="44.37589" lon="4.8571">
        <ele>165</ele>
        <time>2022-04-14T11:17:47+02:00</time>
      </trkpt>
      <trkpt lat="44.37571" lon="4.85681">
        <ele>166.5</ele>
        <time>2022-04-14T11:17:52+02:00</time>
      </trkpt>
      <trkpt lat="44.37552" lon="4.85655">
        <ele>166.7002</ele>
        <time>2022-04-14T11:17:57+02:00</time>
      </trkpt>
      <trkpt lat="44.37532" lon="4.85633">
        <ele>167.60059</ele>
        <time>2022-04-14T11:18:02+02:00</time>
      </trkpt>
      <trkpt lat="44.37512" lon="4.85608">
        <ele>169.60059</ele>
        <time>2022-04-14T11:18:07+02:00</time>
      </trkpt>
      <trkpt lat="44.3749" lon="4.85585">
        <ele>169.90039</ele>
        <time>2022-04-14T11:18:12+02:00</time>
      </trkpt>
      <trkpt lat="44.37466" lon="4.85561">
        <ele>170.7002</ele>
        <time>2022-04-14T11:18:17+02:00</time>
      </trkpt>
      <trkpt lat="44.37443" lon="4.85536">
        <ele>170.40039</ele>
        <time>2022-04-14T11:18:22+02:00</time>
      </trkpt>
      <trkpt lat="44.3742" lon="4.85515">
        <ele>168.7998</ele>
        <time>2022-04-14T11:18:27+02:00</time>
      </trkpt>
      <trkpt lat="44.37395" lon="4.85495">
        <ele>167</ele>
        <time>2022-04-14T11:18:32+02:00</time>
      </trkpt>
      <trkpt lat="44.37365" lon="4.85476">
        <ele>164.5</ele>
        <time>2022-04-14T11:18:37+02:00</time>
      </trkpt>
      <trkpt lat="44.37337" lon="4.85457">
        <ele>164.10059</ele>
        <time>2022-04-14T11:18:42+02:00</time>
      </trkpt>
      <trkpt lat="44.3731" lon="4.8544">
        <ele>163.7002</ele>
        <time>2022-04-14T11:18:47+02:00</time>
      </trkpt>
      <trkpt lat="44.37284" lon="4.85425">
        <ele>162.90039</ele>
        <time>2022-04-14T11:18:52+02:00</time>
      </trkpt>
      <trkpt lat="44.37257" lon="4.85409">
        <ele>162.7998</ele>
        <time>2022-04-14T11:18:57+02:00</time>
      </trkpt>
      <trkpt lat="44.3723" lon="4.85387">
        <ele>163.7002</ele>
        <time>2022-04-14T11:19:02+02:00</time>
      </trkpt>
      <trkpt lat="44.37201" lon="4.85358">
        <ele>163.7002</ele>
        <time>2022-04-14T11:19:07+02:00</time>
      </trkpt>
      <trkpt lat="44.3717" lon="4.8533">
        <ele>163.7002</ele>
        <time>2022-04-14T11:19:12+02:00</time>
      </trkpt>
      <trkpt lat="44.37138" lon="4.85304">
        <ele>162.90039</ele>
        <time>2022-04-14T11:19:17+02:00</time>
      </trkpt>
      <trkpt lat="44.37104" lon="4.85285">
        <ele>162.40039</ele>
        <time>2022-04-14T11:19:22+02:00</time>
      </trkpt>
      <trkpt lat="44.37067" lon="4.85272">
        <ele>160.60059</ele>
        <time>2022-04-14T11:19:27+02:00</time>
      </trkpt>
      <trkpt lat="44.37031" lon="4.85254">
        <ele>159.60059</ele>
        <time>2022-04-14T11:19:32+02:00</time>
      </trkpt>
      <trkpt lat="44.36998" lon="4.85232">
        <ele>160.10059</ele>
        <time>2022-04-14T11:19:37+02:00</time>
      </trkpt>
      <trkpt lat="44.36967" lon="4.85212">
        <ele>159.90039</ele>
        <time>2022-04-14T11:19:42+02:00</time>
      </trkpt>
      <trkpt lat="44.36937" lon="4.85192">
        <ele>158.10059</ele>
        <time>2022-04-14T11:19:47+02:00</time>
      </trkpt>
      <trkpt lat="44.36908" lon="4.85175">
        <ele>157.5</ele>
        <time>2022-04-14T11:19:52+02:00</time>
      </trkpt>
      <trkpt lat="44.3688" lon="4.85158">
        <ele>157</ele>
        <time>2022-04-14T11:19:57+02:00</time>
      </trkpt>
      <trkpt lat="44.36852" lon="4.85141">
        <ele>156.5</ele>
        <time>2022-04-14T11:20:02+02:00</time>
      </trkpt>
      <trkpt lat="44.36826" lon="4.85123">
        <ele>156.2998</ele>
        <time>2022-04-14T11:20:07+02:00</time>
      </trkpt>
      <trkpt lat="44.36798" lon="4.85108">
        <ele>156</ele>
        <time>2022-04-14T11:20:12+02:00</time>
      </trkpt>
      <trkpt lat="44.36769" lon="4.85099">
        <ele>155.5</ele>
        <time>2022-04-14T11:20:17+02:00</time>
      </trkpt>
      <trkpt lat="44.36738" lon="4.85092">
        <ele>155.5</ele>
        <time>2022-04-14T11:20:22+02:00</time>
      </trkpt>
      <trkpt lat="44.36706" lon="4.85084">
        <ele>155.10059</ele>
        <time>2022-04-14T11:20:27+02:00</time>
      </trkpt>
      <trkpt lat="44.36676" lon="4.85074">
        <ele>154.7998</ele>
        <time>2022-04-14T11:20:32+02:00</time>
      </trkpt>
      <trkpt lat="44.36646" lon="4.85063">
        <ele>154.7002</ele>
        <time>2022-04-14T11:20:37+02:00</time>
      </trkpt>
      <trkpt lat="44.36629" lon="4.85049">
        <ele>154.40039</ele>
        <time>2022-04-14T11:20:42+02:00</time>
      </trkpt>
      <trkpt lat="44.36612" lon="4.85034">
        <ele>154.60059</ele>
        <time>2022-04-14T11:20:47+02:00</time>
      </trkpt>
      <trkpt lat="44.36583" lon="4.8502">
        <ele>154.5</ele>
        <time>2022-04-14T11:20:52+02:00</time>
      </trkpt>
      <trkpt lat="44.36552" lon="4.85004">
        <ele>153.7998</ele>
        <time>2022-04-14T11:20:57+02:00</time>
      </trkpt>
      <trkpt lat="44.36526" lon="4.84978">
        <ele>153</ele>
        <time>2022-04-14T11:21:02+02:00</time>
      </trkpt>
      <trkpt lat="44.365" lon="4.84952">
        <ele>152.60059</ele>
        <time>2022-04-14T11:21:07+02:00</time>
      </trkpt>
      <trkpt lat="44.36467" lon="4.84932">
        <ele>151.7002</ele>
        <time>2022-04-14T11:21:12+02:00</time>
      </trkpt>
      <trkpt lat="44.36432" lon="4.84912">
        <ele>152.10059</ele>
        <time>2022-04-14T11:21:17+02:00</time>
      </trkpt>
      <trkpt lat="44.36399" lon="4.84889">
        <ele>152.60059</ele>
        <time>2022-04-14T11:21:22+02:00</time>
      </trkpt>
      <trkpt lat="44.36371" lon="4.84866">
        <ele>152.7998</ele>
        <time>2022-04-14T11:21:27+02:00</time>
      </trkpt>
      <trkpt lat="44.36349" lon="4.84843">
        <ele>153.2998</ele>
        <time>2022-04-14T11:21:32+02:00</time>
      </trkpt>
      <trkpt lat="44.36332" lon="4.84823">
        <ele>154.7002</ele>
        <time>2022-04-14T11:21:37+02:00</time>
      </trkpt>
      <trkpt lat="44.36316" lon="4.84803">
        <ele>155.40039</ele>
        <time>2022-04-14T11:21:42+02:00</time>
      </trkpt>
      <trkpt lat="44.36296" lon="4.84783">
        <ele>155.2998</ele>
        <time>2022-04-14T11:21:47+02:00</time>
      </trkpt>
      <trkpt lat="44.36281" lon="4.84766">
        <ele>155.90039</ele>
        <time>2022-04-14T11:21:52+02:00</time>
      </trkpt>
      <trkpt lat="44.36266" lon="4.8475">
        <ele>156.7998</ele>
        <time>2022-04-14T11:21:57+02:00</time>
      </trkpt>
      <trkpt lat="44.36251" lon="4.84734">
        <ele>157.10059</ele>
        <time>2022-04-14T11:22:02+02:00</time>
      </trkpt>
      <trkpt lat="44.36234" lon="4.84716">
        <ele>157.60059</ele>
        <time>2022-04-14T11:22:07+02:00</time>
      </trkpt>
      <trkpt lat="44.36216" lon="4.84691">
        <ele>157.7002</ele>
        <time>2022-04-14T11:22:12+02:00</time>
      </trkpt>
      <trkpt lat="44.36197" lon="4.84664">
        <ele>156.90039</ele>
        <time>2022-04-14T11:22:17+02:00</time>
      </trkpt>
      <trkpt lat="44.36177" lon="4.84633">
        <ele>153.60059</ele>
        <time>2022-04-14T11:22:22+02:00</time>
      </trkpt>
      <trkpt lat="44.36157" lon="4.84599">
        <ele>153.40039</ele>
        <time>2022-04-14T11:22:27+02:00</time>
      </trkpt>
      <trkpt lat="44.36137" lon="4.84564">
        <ele>151.90039</ele>
        <time>2022-04-14T11:22:32+02:00</time>
      </trkpt>
      <trkpt lat="44.36118" lon="4.84534">
        <ele>151.60059</ele>
        <time>2022-04-14T11:22:37+02:00</time>
      </trkpt>
      <trkpt lat="44.361" lon="4.84512">
        <ele>151.90039</ele>
        <time>2022-04-14T11:22:42+02:00</time>
      </trkpt>
      <trkpt lat="44.36081" lon="4.84487">
        <ele>152.40039</ele>
        <time>2022-04-14T11:22:47+02:00</time>
      </trkpt>
      <trkpt lat="44.36061" lon="4.84459">
        <ele>153.2002</ele>
        <time>2022-04-14T11:22:52+02:00</time>
      </trkpt>
      <trkpt lat="44.36038" lon="4.84431">
        <ele>152.10059</ele>
        <time>2022-04-14T11:22:57+02:00</time>
      </trkpt>
      <trkpt lat="44.36012" lon="4.84405">
        <ele>152</ele>
        <time>2022-04-14T11:23:02+02:00</time>
      </trkpt>
      <trkpt lat="44.35989" lon="4.84377">
        <ele>151.5</ele>
        <time>2022-04-14T11:23:07+02:00</time>
      </trkpt>
      <trkpt lat="44.35968" lon="4.84347">
        <ele>150.10059</ele>
        <time>2022-04-14T11:23:12+02:00</time>
      </trkpt>
      <trkpt lat="44.35949" lon="4.84317">
        <ele>150</ele>
        <time>2022-04-14T11:23:17+02:00</time>
      </trkpt>
      <trkpt lat="44.35932" lon="4.84288">
        <ele>148.10059</ele>
        <time>2022-04-14T11:23:22+02:00</time>
      </trkpt>
      <trkpt lat="44.35916" lon="4.84257">
        <ele>147.40039</ele>
        <time>2022-04-14T11:23:27+02:00</time>
      </trkpt>
      <trkpt lat="44.35904" lon="4.84225">
        <ele>147.2998</ele>
        <time>2022-04-14T11:23:32+02:00</time>
      </trkpt>
      <trkpt lat="44.35891" lon="4.84196">
        <ele>147</ele>
        <time>2022-04-14T11:23:37+02:00</time>
      </trkpt>
      <trkpt lat="44.35882" lon="4.84171">
        <ele>146.40039</ele>
        <time>2022-04-14T11:23:42+02:00</time>
      </trkpt>
      <trkpt lat="44.35877" lon="4.84156">
        <ele>146.7998</ele>
        <time>2022-04-14T11:23:47+02:00</time>
      </trkpt>
      <trkpt lat="44.35876" lon="4.84143">
        <ele>147.2002</ele>
        <time>2022-04-14T11:23:52+02:00</time>
      </trkpt>
      <trkpt lat="44.3587" lon="4.84125">
        <ele>146.7002</ele>
        <time>2022-04-14T11:23:57+02:00</time>
      </trkpt>
      <trkpt lat="44.35853" lon="4.84117">
        <ele>146.60059</ele>
        <time>2022-04-14T11:24:02+02:00</time>
      </trkpt>
      <trkpt lat="44.35828" lon="4.84102">
        <ele>146</ele>
        <time>2022-04-14T11:24:07+02:00</time>
      </trkpt>
      <trkpt lat="44.35801" lon="4.84081">
        <ele>145.2002</ele>
        <time>2022-04-14T11:24:12+02:00</time>
      </trkpt>
      <trkpt lat="44.35779" lon="4.84057">
        <ele>143.90039</ele>
        <time>2022-04-14T11:24:17+02:00</time>
      </trkpt>
      <trkpt lat="44.35785" lon="4.84022">
        <ele>145.2002</ele>
        <time>2022-04-14T11:24:22+02:00</time>
      </trkpt>
      <trkpt lat="44.35791" lon="4.83995">
        <ele>148.40039</ele>
        <time>2022-04-14T11:24:27+02:00</time>
      </trkpt>
      <trkpt lat="44.35788" lon="4.83976">
        <ele>149.2002</ele>
        <time>2022-04-14T11:24:32+02:00</time>
      </trkpt>
      <trkpt lat="44.35777" lon="4.83967">
        <ele>147.90039</ele>
        <time>2022-04-14T11:24:37+02:00</time>
      </trkpt>
      <trkpt lat="44.35748" lon="4.83972">
        <ele>143.60059</ele>
        <time>2022-04-14T11:24:42+02:00</time>
      </trkpt>
      <trkpt lat="44.35713" lon="4.83974">
        <ele>141</ele>
        <time>2022-04-14T11:24:47+02:00</time>
      </trkpt>
      <trkpt lat="44.35684" lon="4.83956">
        <ele>138.90039</ele>
        <time>2022-04-14T11:24:52+02:00</time>
      </trkpt>
      <trkpt lat="44.35661" lon="4.83923">
        <ele>137.7998</ele>
        <time>2022-04-14T11:24:57+02:00</time>
      </trkpt>
      <trkpt lat="44.35638" lon="4.8389">
        <ele>139.2002</ele>
        <time>2022-04-14T11:25:02+02:00</time>
      </trkpt>
      <trkpt lat="44.35617" lon="4.83856">
        <ele>139.7002</ele>
        <time>2022-04-14T11:25:07+02:00</time>
      </trkpt>
      <trkpt lat="44.35601" lon="4.83826">
        <ele>139.40039</ele>
        <time>2022-04-14T11:25:12+02:00</time>
      </trkpt>
      <trkpt lat="44.35584" lon="4.83807">
        <ele>138.60059</ele>
        <time>2022-04-14T11:25:17+02:00</time>
      </trkpt>
      <trkpt lat="44.35573" lon="4.83808">
        <ele>136.90039</ele>
        <time>2022-04-14T11:25:22+02:00</time>
      </trkpt>
      <trkpt lat="44.35564" lon="4.83799">
        <ele>135.7002</ele>
        <time>2022-04-14T11:25:27+02:00</time>
      </trkpt>
      <trkpt lat="44.35554" lon="4.83787">
        <ele>136.2998</ele>
        <time>2022-04-14T11:25:32+02:00</time>
      </trkpt>
      <trkpt lat="44.35545" lon="4.83772">
        <ele>136</ele>
        <time>2022-04-14T11:25:37+02:00</time>
      </trkpt>
      <trkpt lat="44.35536" lon="4.83759">
        <ele>135.40039</ele>
        <time>2022-04-14T11:25:42+02:00</time>
      </trkpt>
      <trkpt lat="44.35525" lon="4.83745">
        <ele>135</ele>
        <time>2022-04-14T11:25:47+02:00</time>
      </trkpt>
      <trkpt lat="44.35515" lon="4.83731">
        <ele>134.5</ele>
        <time>2022-04-14T11:25:52+02:00</time>
      </trkpt>
      <trkpt lat="44.35518" lon="4.83722">
        <ele>135.5</ele>
        <time>2022-04-14T11:25:57+02:00</time>
      </trkpt>
      <trkpt lat="44.35524" lon="4.83713">
        <ele>135.5</ele>
        <time>2022-04-14T11:26:02+02:00</time>
      </trkpt>
      <trkpt lat="44.3552" lon="4.83707">
        <ele>136.40039</ele>
        <time>2022-04-14T11:26:07+02:00</time>
      </trkpt>
      <trkpt lat="44.35511" lon="4.8371">
        <ele>134.7998</ele>
        <time>2022-04-14T11:26:12+02:00</time>
      </trkpt>
      <trkpt lat="44.35501" lon="4.83698">
        <ele>134.7002</ele>
        <time>2022-04-14T11:26:17+02:00</time>
      </trkpt>
      <trkpt lat="44.35492" lon="4.83686">
        <ele>135.7998</ele>
        <time>2022-04-14T11:26:22+02:00</time>
      </trkpt>
      <trkpt lat="44.35484" lon="4.83672">
        <ele>136.10059</ele>
        <time>2022-04-14T11:26:27+02:00</time>
      </trkpt>
      <trkpt lat="44.35478" lon="4.83654">
        <ele>135.90039</ele>
        <time>2022-04-14T11:26:32+02:00</time>
      </trkpt>
      <trkpt lat="44.35471" lon="4.83635">
        <ele>136.7998</ele>
        <time>2022-04-14T11:26:37+02:00</time>
      </trkpt>
      <trkpt lat="44.35463" lon="4.83609">
        <ele>135.90039</ele>
        <time>2022-04-14T11:26:42+02:00</time>
      </trkpt>
      <trkpt lat="44.35452" lon="4.8358">
        <ele>134.90039</ele>
        <time>2022-04-14T11:26:47+02:00</time>
      </trkpt>
      <trkpt lat="44.35439" lon="4.83542">
        <ele>133.7998</ele>
        <time>2022-04-14T11:26:52+02:00</time>
      </trkpt>
      <trkpt lat="44.35424" lon="4.83507">
        <ele>133.40039</ele>
        <time>2022-04-14T11:26:57+02:00</time>
      </trkpt>
      <trkpt lat="44.35409" lon="4.83472">
        <ele>133</ele>
        <time>2022-04-14T11:27:02+02:00</time>
      </trkpt>
      <trkpt lat="44.35396" lon="4.83438">
        <ele>133.10059</ele>
        <time>2022-04-14T11:27:07+02:00</time>
      </trkpt>
      <trkpt lat="44.35384" lon="4.83406">
        <ele>134.40039</ele>
        <time>2022-04-14T11:27:12+02:00</time>
      </trkpt>
      <trkpt lat="44.35367" lon="4.8338">
        <ele>135</ele>
        <time>2022-04-14T11:27:17+02:00</time>
      </trkpt>
      <trkpt lat="44.3535" lon="4.83353">
        <ele>134.90039</ele>
        <time>2022-04-14T11:27:22+02:00</time>
      </trkpt>
      <trkpt lat="44.35337" lon="4.83325">
        <ele>135.5</ele>
        <time>2022-04-14T11:27:27+02:00</time>
      </trkpt>
      <trkpt lat="44.35322" lon="4.83298">
        <ele>135.40039</ele>
        <time>2022-04-14T11:27:32+02:00</time>
      </trkpt>
      <trkpt lat="44.3531" lon="4.83272">
        <ele>134.7002</ele>
        <time>2022-04-14T11:27:37+02:00</time>
      </trkpt>
      <trkpt lat="44.35299" lon="4.83244">
        <ele>133.2998</ele>
        <time>2022-04-14T11:27:42+02:00</time>
      </trkpt>
      <trkpt lat="44.35289" lon="4.83217">
        <ele>132.10059</ele>
        <time>2022-04-14T11:27:47+02:00</time>
      </trkpt>
      <trkpt lat="44.35276" lon="4.83191">
        <ele>132.5</ele>
        <time>2022-04-14T11:27:52+02:00</time>
      </trkpt>
      <trkpt lat="44.3526" lon="4.83164">
        <ele>132.5</ele>
        <time>2022-04-14T11:27:57+02:00</time>
      </trkpt>
      <trkpt lat="44.35245" lon="4.83136">
        <ele>132.5</ele>
        <time>2022-04-14T11:28:02+02:00</time>
      </trkpt>
      <trkpt lat="44.35229" lon="4.83107">
        <ele>132.7002</ele>
        <time>2022-04-14T11:28:07+02:00</time>
      </trkpt>
      <trkpt lat="44.35213" lon="4.83075">
        <ele>133.40039</ele>
        <time>2022-04-14T11:28:12+02:00</time>
      </trkpt>
      <trkpt lat="44.35194" lon="4.8304">
        <ele>132.60059</ele>
        <time>2022-04-14T11:28:17+02:00</time>
      </trkpt>
      <trkpt lat="44.35174" lon="4.83011">
        <ele>132</ele>
        <time>2022-04-14T11:28:22+02:00</time>
      </trkpt>
      <trkpt lat="44.35161" lon="4.82983">
        <ele>131.5</ele>
        <time>2022-04-14T11:28:27+02:00</time>
      </trkpt>
      <trkpt lat="44.35154" lon="4.82958">
        <ele>131.10059</ele>
        <time>2022-04-14T11:28:32+02:00</time>
      </trkpt>
      <trkpt lat="44.35148" lon="4.82938">
        <ele>131</ele>
        <time>2022-04-14T11:28:37+02:00</time>
      </trkpt>
      <trkpt lat="44.35146" lon="4.82932">
        <ele>130.5</ele>
        <time>2022-04-14T11:28:42+02:00</time>
      </trkpt>
      <trkpt lat="44.3514" lon="4.82925">
        <ele>130.5</ele>
        <time>2022-04-14T11:28:47+02:00</time>
      </trkpt>
      <trkpt lat="44.35129" lon="4.82915">
        <ele>129.7998</ele>
        <time>2022-04-14T11:28:52+02:00</time>
      </trkpt>
      <trkpt lat="44.35116" lon="4.82909">
        <ele>129.2002</ele>
        <time>2022-04-14T11:28:57+02:00</time>
      </trkpt>
      <trkpt lat="44.351" lon="4.82907">
        <ele>128.60059</ele>
        <time>2022-04-14T11:29:02+02:00</time>
      </trkpt>
      <trkpt lat="44.35081" lon="4.82904">
        <ele>127.40039</ele>
        <time>2022-04-14T11:29:07+02:00</time>
      </trkpt>
      <trkpt lat="44.35061" lon="4.82899">
        <ele>126.200195</ele>
        <time>2022-04-14T11:29:12+02:00</time>
      </trkpt>
      <trkpt lat="44.35044" lon="4.82889">
        <ele>125.700195</ele>
        <time>2022-04-14T11:29:17+02:00</time>
      </trkpt>
      <trkpt lat="44.35048" lon="4.82874">
        <ele>125.799805</ele>
        <time>2022-04-14T11:29:22+02:00</time>
      </trkpt>
      <trkpt lat="44.35058" lon="4.82861">
        <ele>126.200195</ele>
        <time>2022-04-14T11:29:27+02:00</time>
      </trkpt>
      <trkpt lat="44.35069" lon="4.82846">
        <ele>126.40039</ele>
        <time>2022-04-14T11:29:32+02:00</time>
      </trkpt>
      <trkpt lat="44.35064" lon="4.8282">
        <ele>126.5</ele>
        <time>2022-04-14T11:29:37+02:00</time>
      </trkpt>
      <trkpt lat="44.35048" lon="4.82802">
        <ele>125.90039</ele>
        <time>2022-04-14T11:29:42+02:00</time>
      </trkpt>
      <trkpt lat="44.35034" lon="4.82783">
        <ele>125.600586</ele>
        <time>2022-04-14T11:29:47+02:00</time>
      </trkpt>
      <trkpt lat="44.35018" lon="4.82762">
        <ele>125.200195</ele>
        <time>2022-04-14T11:29:52+02:00</time>
      </trkpt>
      <trkpt lat="44.35002" lon="4.82738">
        <ele>125.100586</ele>
        <time>2022-04-14T11:29:57+02:00</time>
      </trkpt>
      <trkpt lat="44.3499" lon="4.82714">
        <ele>125.100586</ele>
        <time>2022-04-14T11:30:02+02:00</time>
      </trkpt>
      <trkpt lat="44.34978" lon="4.82691">
        <ele>125.40039</ele>
        <time>2022-04-14T11:30:07+02:00</time>
      </trkpt>
      <trkpt lat="44.3497" lon="4.82666">
        <ele>125.299805</ele>
        <time>2022-04-14T11:30:12+02:00</time>
      </trkpt>
      <trkpt lat="44.34964" lon="4.82641">
        <ele>124.600586</ele>
        <time>2022-04-14T11:30:17+02:00</time>
      </trkpt>
      <trkpt lat="44.34959" lon="4.82612">
        <ele>124.200195</ele>
        <time>2022-04-14T11:30:22+02:00</time>
      </trkpt>
      <trkpt lat="44.34955" lon="4.82581">
        <ele>123.40039</ele>
        <time>2022-04-14T11:30:27+02:00</time>
      </trkpt>
      <trkpt lat="44.34952" lon="4.82546">
        <ele>122.700195</ele>
        <time>2022-04-14T11:30:32+02:00</time>
      </trkpt>
      <trkpt lat="44.34951" lon="4.82513">
        <ele>122.299805</ele>
        <time>2022-04-14T11:30:37+02:00</time>
      </trkpt>
      <trkpt lat="44.34951" lon="4.82483">
        <ele>121.700195</ele>
        <time>2022-04-14T11:30:42+02:00</time>
      </trkpt>
      <trkpt lat="44.34952" lon="4.82454">
        <ele>121.90039</ele>
        <time>2022-04-14T11:30:47+02:00</time>
      </trkpt>
      <trkpt lat="44.34954" lon="4.82426">
        <ele>121.90039</ele>
        <time>2022-04-14T11:30:52+02:00</time>
      </trkpt>
      <trkpt lat="44.34955" lon="4.82396">
        <ele>121.600586</ele>
        <time>2022-04-14T11:30:57+02:00</time>
      </trkpt>
      <trkpt lat="44.34954" lon="4.82367">
        <ele>121</ele>
        <time>2022-04-14T11:31:02+02:00</time>
      </trkpt>
      <trkpt lat="44.34954" lon="4.82338">
        <ele>120.799805</ele>
        <time>2022-04-14T11:31:07+02:00</time>
      </trkpt>
      <trkpt lat="44.34955" lon="4.82308">
        <ele>120.299805</ele>
        <time>2022-04-14T11:31:12+02:00</time>
      </trkpt>
      <trkpt lat="44.34955" lon="4.8228">
        <ele>119.90039</ele>
        <time>2022-04-14T11:31:17+02:00</time>
      </trkpt>
      <trkpt lat="44.34954" lon="4.82254">
        <ele>119.799805</ele>
        <time>2022-04-14T11:31:22+02:00</time>
      </trkpt>
      <trkpt lat="44.34952" lon="4.82229">
        <ele>119.799805</ele>
        <time>2022-04-14T11:31:27+02:00</time>
      </trkpt>
      <trkpt lat="44.34946" lon="4.82197">
        <ele>119.299805</ele>
        <time>2022-04-14T11:31:32+02:00</time>
      </trkpt>
      <trkpt lat="44.34933" lon="4.82159">
        <ele>119.40039</ele>
        <time>2022-04-14T11:31:37+02:00</time>
      </trkpt>
      <trkpt lat="44.34924" lon="4.82117">
        <ele>119.90039</ele>
        <time>2022-04-14T11:31:42+02:00</time>
      </trkpt>
      <trkpt lat="44.34918" lon="4.82078">
        <ele>121</ele>
        <time>2022-04-14T11:31:47+02:00</time>
      </trkpt>
      <trkpt lat="44.3492" lon="4.82039">
        <ele>122</ele>
        <time>2022-04-14T11:31:52+02:00</time>
      </trkpt>
      <trkpt lat="44.34922" lon="4.82003">
        <ele>122.600586</ele>
        <time>2022-04-14T11:31:57+02:00</time>
      </trkpt>
      <trkpt lat="44.34925" lon="4.81965">
        <ele>122.299805</ele>
        <time>2022-04-14T11:32:02+02:00</time>
      </trkpt>
      <trkpt lat="44.34927" lon="4.81924">
        <ele>122.90039</ele>
        <time>2022-04-14T11:32:07+02:00</time>
      </trkpt>
      <trkpt lat="44.34914" lon="4.8189">
        <ele>121.200195</ele>
        <time>2022-04-14T11:32:12+02:00</time>
      </trkpt>
      <trkpt lat="44.34895" lon="4.81867">
        <ele>119.799805</ele>
        <time>2022-04-14T11:32:17+02:00</time>
      </trkpt>
      <trkpt lat="44.34874" lon="4.81848">
        <ele>118.5</ele>
        <time>2022-04-14T11:32:22+02:00</time>
      </trkpt>
      <trkpt lat="44.34853" lon="4.8183">
        <ele>118.200195</ele>
        <time>2022-04-14T11:32:27+02:00</time>
      </trkpt>
      <trkpt lat="44.34831" lon="4.81812">
        <ele>118.100586</ele>
        <time>2022-04-14T11:32:32+02:00</time>
      </trkpt>
      <trkpt lat="44.34809" lon="4.81795">
        <ele>119</ele>
        <time>2022-04-14T11:32:37+02:00</time>
      </trkpt>
      <trkpt lat="44.34789" lon="4.8178">
        <ele>120</ele>
        <time>2022-04-14T11:32:42+02:00</time>
      </trkpt>
      <trkpt lat="44.34773" lon="4.8177">
        <ele>120</ele>
        <time>2022-04-14T11:32:47+02:00</time>
      </trkpt>
      <trkpt lat="44.34762" lon="4.81765">
        <ele>121</ele>
        <time>2022-04-14T11:32:52+02:00</time>
      </trkpt>
      <trkpt lat="44.34753" lon="4.81764">
        <ele>120.799805</ele>
        <time>2022-04-14T11:32:57+02:00</time>
      </trkpt>
      <trkpt lat="44.34744" lon="4.81763">
        <ele>120.799805</ele>
        <time>2022-04-14T11:33:02+02:00</time>
      </trkpt>
      <trkpt lat="44.34739" lon="4.81759">
        <ele>120.5</ele>
        <time>2022-04-14T11:33:07+02:00</time>
      </trkpt>
      <trkpt lat="44.34734" lon="4.81744">
        <ele>121.299805</ele>
        <time>2022-04-14T11:33:12+02:00</time>
      </trkpt>
      <trkpt lat="44.34735" lon="4.81728">
        <ele>122.200195</ele>
        <time>2022-04-14T11:33:17+02:00</time>
      </trkpt>
      <trkpt lat="44.34725" lon="4.81705">
        <ele>122.200195</ele>
        <time>2022-04-14T11:33:22+02:00</time>
      </trkpt>
      <trkpt lat="44.34718" lon="4.8168">
        <ele>121.700195</ele>
        <time>2022-04-14T11:33:27+02:00</time>
      </trkpt>
      <trkpt lat="44.34709" lon="4.81655">
        <ele>121.90039</ele>
        <time>2022-04-14T11:33:32+02:00</time>
      </trkpt>
      <trkpt lat="44.347" lon="4.81628">
        <ele>121</ele>
        <time>2022-04-14T11:33:37+02:00</time>
      </trkpt>
      <trkpt lat="44.3469" lon="4.81602">
        <ele>119.700195</ele>
        <time>2022-04-14T11:33:42+02:00</time>
      </trkpt>
      <trkpt lat="44.34682" lon="4.81577">
        <ele>119.40039</ele>
        <time>2022-04-14T11:33:47+02:00</time>
      </trkpt>
      <trkpt lat="44.34673" lon="4.81552">
        <ele>117.90039</ele>
        <time>2022-04-14T11:33:52+02:00</time>
      </trkpt>
      <trkpt lat="44.34663" lon="4.81523">
        <ele>116.90039</ele>
        <time>2022-04-14T11:33:57+02:00</time>
      </trkpt>
      <trkpt lat="44.34653" lon="4.81495">
        <ele>116.40039</ele>
        <time>2022-04-14T11:34:02+02:00</time>
      </trkpt>
      <trkpt lat="44.34644" lon="4.81467">
        <ele>116.700195</ele>
        <time>2022-04-14T11:34:07+02:00</time>
      </trkpt>
      <trkpt lat="44.34634" lon="4.81438">
        <ele>118.40039</ele>
        <time>2022-04-14T11:34:12+02:00</time>
      </trkpt>
      <trkpt lat="44.34623" lon="4.81408">
        <ele>118.700195</ele>
        <time>2022-04-14T11:34:17+02:00</time>
      </trkpt>
      <trkpt lat="44.34614" lon="4.8138">
        <ele>119.299805</ele>
        <time>2022-04-14T11:34:22+02:00</time>
      </trkpt>
      <trkpt lat="44.34604" lon="4.81366">
        <ele>118.700195</ele>
        <time>2022-04-14T11:34:27+02:00</time>
      </trkpt>
      <trkpt lat="44.34595" lon="4.81352">
        <ele>118.799805</ele>
        <time>2022-04-14T11:34:32+02:00</time>
      </trkpt>
      <trkpt lat="44.34584" lon="4.81345">
        <ele>118</ele>
        <time>2022-04-14T11:34:37+02:00</time>
      </trkpt>
      <trkpt lat="44.34572" lon="4.81331">
        <ele>117.200195</ele>
        <time>2022-04-14T11:34:42+02:00</time>
      </trkpt>
      <trkpt lat="44.34558" lon="4.81319">
        <ele>116.5</ele>
        <time>2022-04-14T11:34:47+02:00</time>
      </trkpt>
      <trkpt lat="44.34551" lon="4.81304">
        <ele>115.90039</ele>
        <time>2022-04-14T11:34:52+02:00</time>
      </trkpt>
      <trkpt lat="44.34544" lon="4.81303">
        <ele>115.40039</ele>
        <time>2022-04-14T11:34:57+02:00</time>
      </trkpt>
      <trkpt lat="44.34548" lon="4.81312">
        <ele>115.90039</ele>
        <time>2022-04-14T11:35:02+02:00</time>
      </trkpt>
      <trkpt lat="44.34551" lon="4.81304">
        <ele>115.90039</ele>
        <time>2022-04-14T11:35:07+02:00</time>
      </trkpt>
      <trkpt lat="44.34543" lon="4.81299">
        <ele>115.40039</ele>
        <time>2022-04-14T11:35:12+02:00</time>
      </trkpt>
      <trkpt lat="44.34539" lon="4.81289">
        <ele>115.40039</ele>
        <time>2022-04-14T11:35:17+02:00</time>
      </trkpt>
      <trkpt lat="44.34536" lon="4.8128">
        <ele>115.5</ele>
        <time>2022-04-14T11:35:22+02:00</time>
      </trkpt>
      <trkpt lat="44.34534" lon="4.8127">
        <ele>115.200195</ele>
        <time>2022-04-14T11:35:27+02:00</time>
      </trkpt>
      <trkpt lat="44.34529" lon="4.81252">
        <ele>115.299805</ele>
        <time>2022-04-14T11:35:32+02:00</time>
      </trkpt>
      <trkpt lat="44.34526" lon="4.81232">
        <ele>115.299805</ele>
        <time>2022-04-14T11:35:37+02:00</time>
      </trkpt>
      <trkpt lat="44.34522" lon="4.81211">
        <ele>115.5</ele>
        <time>2022-04-14T11:35:42+02:00</time>
      </trkpt>
      <trkpt lat="44.34517" lon="4.8119">
        <ele>115.100586</ele>
        <time>2022-04-14T11:35:47+02:00</time>
      </trkpt>
      <trkpt lat="44.34512" lon="4.81164">
        <ele>115.600586</ele>
        <time>2022-04-14T11:35:52+02:00</time>
      </trkpt>
      <trkpt lat="44.34507" lon="4.81138">
        <ele>115.100586</ele>
        <time>2022-04-14T11:35:57+02:00</time>
      </trkpt>
      <trkpt lat="44.34501" lon="4.81115">
        <ele>115.5</ele>
        <time>2022-04-14T11:36:02+02:00</time>
      </trkpt>
      <trkpt lat="44.34497" lon="4.81094">
        <ele>116</ele>
        <time>2022-04-14T11:36:07+02:00</time>
      </trkpt>
      <trkpt lat="44.34491" lon="4.81071">
        <ele>115.90039</ele>
        <time>2022-04-14T11:36:12+02:00</time>
      </trkpt>
      <trkpt lat="44.34487" lon="4.81049">
        <ele>116.40039</ele>
        <time>2022-04-14T11:36:17+02:00</time>
      </trkpt>
      <trkpt lat="44.34483" lon="4.81024">
        <ele>116.40039</ele>
        <time>2022-04-14T11:36:22+02:00</time>
      </trkpt>
      <trkpt lat="44.34477" lon="4.80998">
        <ele>116.40039</ele>
        <time>2022-04-14T11:36:27+02:00</time>
      </trkpt>
      <trkpt lat="44.34467" lon="4.80973">
        <ele>116</ele>
        <time>2022-04-14T11:36:32+02:00</time>
      </trkpt>
      <trkpt lat="44.34458" lon="4.80947">
        <ele>115.600586</ele>
        <time>2022-04-14T11:36:37+02:00</time>
      </trkpt>
      <trkpt lat="44.34449" lon="4.80923">
        <ele>115.90039</ele>
        <time>2022-04-14T11:36:42+02:00</time>
      </trkpt>
      <trkpt lat="44.34441" lon="4.80898">
        <ele>115.700195</ele>
        <time>2022-04-14T11:36:47+02:00</time>
      </trkpt>
      <trkpt lat="44.34433" lon="4.80875">
        <ele>115.700195</ele>
        <time>2022-04-14T11:36:52+02:00</time>
      </trkpt>
      <trkpt lat="44.34426" lon="4.80855">
        <ele>116.299805</ele>
        <time>2022-04-14T11:36:57+02:00</time>
      </trkpt>
      <trkpt lat="44.34418" lon="4.80834">
        <ele>116.299805</ele>
        <time>2022-04-14T11:37:02+02:00</time>
      </trkpt>
      <trkpt lat="44.34408" lon="4.80809">
        <ele>116.40039</ele>
        <time>2022-04-14T11:37:07+02:00</time>
      </trkpt>
      <trkpt lat="44.34398" lon="4.80781">
        <ele>117.5</ele>
        <time>2022-04-14T11:37:12+02:00</time>
      </trkpt>
      <trkpt lat="44.34387" lon="4.80753">
        <ele>120.100586</ele>
        <time>2022-04-14T11:37:17+02:00</time>
      </trkpt>
      <trkpt lat="44.34377" lon="4.80725">
        <ele>119.40039</ele>
        <time>2022-04-14T11:37:22+02:00</time>
      </trkpt>
      <trkpt lat="44.34369" lon="4.80693">
        <ele>119</ele>
        <time>2022-04-14T11:37:27+02:00</time>
      </trkpt>
      <trkpt lat="44.34361" lon="4.80661">
        <ele>117</ele>
        <time>2022-04-14T11:37:32+02:00</time>
      </trkpt>
      <trkpt lat="44.34352" lon="4.8063">
        <ele>116</ele>
        <time>2022-04-14T11:37:37+02:00</time>
      </trkpt>
      <trkpt lat="44.34357" lon="4.8061">
        <ele>115.5</ele>
        <time>2022-04-14T11:37:42+02:00</time>
      </trkpt>
      <trkpt lat="44.34355" lon="4.80583">
        <ele>115.100586</ele>
        <time>2022-04-14T11:37:47+02:00</time>
      </trkpt>
      <trkpt lat="44.34352" lon="4.80558">
        <ele>114</ele>
        <time>2022-04-14T11:37:52+02:00</time>
      </trkpt>
      <trkpt lat="44.3435" lon="4.80533">
        <ele>113.5</ele>
        <time>2022-04-14T11:37:57+02:00</time>
      </trkpt>
      <trkpt lat="44.34347" lon="4.80506">
        <ele>111.90039</ele>
        <time>2022-04-14T11:38:02+02:00</time>
      </trkpt>
      <trkpt lat="44.34345" lon="4.80478">
        <ele>111.600586</ele>
        <time>2022-04-14T11:38:07+02:00</time>
      </trkpt>
      <trkpt lat="44.34342" lon="4.8045">
        <ele>111.40039</ele>
        <time>2022-04-14T11:38:12+02:00</time>
      </trkpt>
      <trkpt lat="44.34339" lon="4.80416">
        <ele>111.100586</ele>
        <time>2022-04-14T11:38:17+02:00</time>
      </trkpt>
      <trkpt lat="44.34336" lon="4.80384">
        <ele>111.200195</ele>
        <time>2022-04-14T11:38:22+02:00</time>
      </trkpt>
      <trkpt lat="44.34332" lon="4.80355">
        <ele>112</ele>
        <time>2022-04-14T11:38:27+02:00</time>
      </trkpt>
      <trkpt lat="44.34328" lon="4.80326">
        <ele>112.299805</ele>
        <time>2022-04-14T11:38:32+02:00</time>
      </trkpt>
      <trkpt lat="44.34325" lon="4.80297">
        <ele>112.600586</ele>
        <time>2022-04-14T11:38:37+02:00</time>
      </trkpt>
      <trkpt lat="44.34323" lon="4.80269">
        <ele>112.299805</ele>
        <time>2022-04-14T11:38:42+02:00</time>
      </trkpt>
      <trkpt lat="44.34318" lon="4.80238">
        <ele>112.200195</ele>
        <time>2022-04-14T11:38:47+02:00</time>
      </trkpt>
      <trkpt lat="44.34314" lon="4.80205">
        <ele>112.40039</ele>
        <time>2022-04-14T11:38:52+02:00</time>
      </trkpt>
      <trkpt lat="44.3431" lon="4.80167">
        <ele>111.40039</ele>
        <time>2022-04-14T11:38:57+02:00</time>
      </trkpt>
      <trkpt lat="44.34305" lon="4.80131">
        <ele>110.600586</ele>
        <time>2022-04-14T11:39:02+02:00</time>
      </trkpt>
      <trkpt lat="44.343" lon="4.80095">
        <ele>109.700195</ele>
        <time>2022-04-14T11:39:07+02:00</time>
      </trkpt>
      <trkpt lat="44.34295" lon="4.80062">
        <ele>109.600586</ele>
        <time>2022-04-14T11:39:12+02:00</time>
      </trkpt>
      <trkpt lat="44.34291" lon="4.80028">
        <ele>109.700195</ele>
        <time>2022-04-14T11:39:17+02:00</time>
      </trkpt>
      <trkpt lat="44.34287" lon="4.79996">
        <ele>109.5</ele>
        <time>2022-04-14T11:39:22+02:00</time>
      </trkpt>
      <trkpt lat="44.34282" lon="4.79965">
        <ele>110.100586</ele>
        <time>2022-04-14T11:39:27+02:00</time>
      </trkpt>
      <trkpt lat="44.3428" lon="4.79939">
        <ele>110.5</ele>
        <time>2022-04-14T11:39:32+02:00</time>
      </trkpt>
      <trkpt lat="44.34279" lon="4.79916">
        <ele>110.700195</ele>
        <time>2022-04-14T11:39:37+02:00</time>
      </trkpt>
      <trkpt lat="44.34283" lon="4.7989">
        <ele>110.700195</ele>
        <time>2022-04-14T11:39:42+02:00</time>
      </trkpt>
      <trkpt lat="44.34279" lon="4.79862">
        <ele>110.600586</ele>
        <time>2022-04-14T11:39:47+02:00</time>
      </trkpt>
      <trkpt lat="44.34275" lon="4.79834">
        <ele>110</ele>
        <time>2022-04-14T11:39:52+02:00</time>
      </trkpt>
      <trkpt lat="44.3427" lon="4.79804">
        <ele>109.700195</ele>
        <time>2022-04-14T11:39:57+02:00</time>
      </trkpt>
      <trkpt lat="44.34266" lon="4.79773">
        <ele>108.700195</ele>
        <time>2022-04-14T11:40:02+02:00</time>
      </trkpt>
      <trkpt lat="44.34262" lon="4.79745">
        <ele>107.90039</ele>
        <time>2022-04-14T11:40:07+02:00</time>
      </trkpt>
      <trkpt lat="44.34261" lon="4.79713">
        <ele>108.200195</ele>
        <time>2022-04-14T11:40:12+02:00</time>
      </trkpt>
      <trkpt lat="44.34255" lon="4.79672">
        <ele>108.200195</ele>
        <time>2022-04-14T11:40:17+02:00</time>
      </trkpt>
      <trkpt lat="44.34249" lon="4.79626">
        <ele>107.799805</ele>
        <time>2022-04-14T11:40:22+02:00</time>
      </trkpt>
      <trkpt lat="44.34244" lon="4.79581">
        <ele>108.200195</ele>
        <time>2022-04-14T11:40:27+02:00</time>
      </trkpt>
      <trkpt lat="44.34238" lon="4.79538">
        <ele>107.90039</ele>
        <time>2022-04-14T11:40:32+02:00</time>
      </trkpt>
      <trkpt lat="44.34233" lon="4.79493">
        <ele>108.100586</ele>
        <time>2022-04-14T11:40:37+02:00</time>
      </trkpt>
      <trkpt lat="44.34225" lon="4.79448">
        <ele>107.100586</ele>
        <time>2022-04-14T11:40:42+02:00</time>
      </trkpt>
      <trkpt lat="44.34221" lon="4.79403">
        <ele>107.200195</ele>
        <time>2022-04-14T11:40:47+02:00</time>
      </trkpt>
      <trkpt lat="44.34215" lon="4.79362">
        <ele>106.700195</ele>
        <time>2022-04-14T11:40:52+02:00</time>
      </trkpt>
      <trkpt lat="44.34211" lon="4.79321">
        <ele>105.100586</ele>
        <time>2022-04-14T11:40:57+02:00</time>
      </trkpt>
      <trkpt lat="44.34205" lon="4.79279">
        <ele>104.799805</ele>
        <time>2022-04-14T11:41:02+02:00</time>
      </trkpt>
      <trkpt lat="44.34199" lon="4.79238">
        <ele>103.200195</ele>
        <time>2022-04-14T11:41:07+02:00</time>
      </trkpt>
      <trkpt lat="44.34193" lon="4.79195">
        <ele>102.200195</ele>
        <time>2022-04-14T11:41:12+02:00</time>
      </trkpt>
      <trkpt lat="44.34189" lon="4.7915">
        <ele>100.600586</ele>
        <time>2022-04-14T11:41:17+02:00</time>
      </trkpt>
      <trkpt lat="44.34186" lon="4.79109">
        <ele>100.5</ele>
        <time>2022-04-14T11:41:22+02:00</time>
      </trkpt>
      <trkpt lat="44.34183" lon="4.79074">
        <ele>100.700195</ele>
        <time>2022-04-14T11:41:27+02:00</time>
      </trkpt>
      <trkpt lat="44.34185" lon="4.79047">
        <ele>101.100586</ele>
        <time>2022-04-14T11:41:32+02:00</time>
      </trkpt>
      <trkpt lat="44.34199" lon="4.79042">
        <ele>101.600586</ele>
        <time>2022-04-14T11:41:37+02:00</time>
      </trkpt>
      <trkpt lat="44.34206" lon="4.79034">
        <ele>102</ele>
        <time>2022-04-14T11:41:42+02:00</time>
      </trkpt>
      <trkpt lat="44.34213" lon="4.79021">
        <ele>102</ele>
        <time>2022-04-14T11:41:47+02:00</time>
      </trkpt>
      <trkpt lat="44.3422" lon="4.79007">
        <ele>102.40039</ele>
        <time>2022-04-14T11:41:52+02:00</time>
      </trkpt>
      <trkpt lat="44.34229" lon="4.78992">
        <ele>102.600586</ele>
        <time>2022-04-14T11:41:57+02:00</time>
      </trkpt>
      <trkpt lat="44.34239" lon="4.78982">
        <ele>101.90039</ele>
        <time>2022-04-14T11:42:02+02:00</time>
      </trkpt>
      <trkpt lat="44.3425" lon="4.78972">
        <ele>102.40039</ele>
        <time>2022-04-14T11:42:07+02:00</time>
      </trkpt>
      <trkpt lat="44.34261" lon="4.78962">
        <ele>101.799805</ele>
        <time>2022-04-14T11:42:12+02:00</time>
      </trkpt>
      <trkpt lat="44.34272" lon="4.78956">
        <ele>102.200195</ele>
        <time>2022-04-14T11:42:17+02:00</time>
      </trkpt>
      <trkpt lat="44.34281" lon="4.78953">
        <ele>102.600586</ele>
        <time>2022-04-14T11:42:22+02:00</time>
      </trkpt>
      <trkpt lat="44.34287" lon="4.78951">
        <ele>101.5</ele>
        <time>2022-04-14T11:42:27+02:00</time>
      </trkpt>
      <trkpt lat="44.34293" lon="4.78947">
        <ele>102.100586</ele>
        <time>2022-04-14T11:42:32+02:00</time>
      </trkpt>
      <trkpt lat="44.34317" lon="4.78937">
        <ele>103.299805</ele>
        <time>2022-04-14T11:42:37+02:00</time>
      </trkpt>
      <trkpt lat="44.34344" lon="4.78922">
        <ele>102.799805</ele>
        <time>2022-04-14T11:42:42+02:00</time>
      </trkpt>
      <trkpt lat="44.3436" lon="4.78912">
        <ele>101.90039</ele>
        <time>2022-04-14T11:42:47+02:00</time>
      </trkpt>
      <trkpt lat="44.34375" lon="4.78907">
        <ele>101.100586</ele>
        <time>2022-04-14T11:42:52+02:00</time>
      </trkpt>
      <trkpt lat="44.34393" lon="4.78902">
        <ele>100.600586</ele>
        <time>2022-04-14T11:42:57+02:00</time>
      </trkpt>
      <trkpt lat="44.3441" lon="4.78901">
        <ele>99.299805</ele>
        <time>2022-04-14T11:43:02+02:00</time>
      </trkpt>
      <trkpt lat="44.34426" lon="4.789">
        <ele>98.200195</ele>
        <time>2022-04-14T11:43:07+02:00</time>
      </trkpt>
      <trkpt lat="44.34442" lon="4.78903">
        <ele>98.40039</ele>
        <time>2022-04-14T11:43:12+02:00</time>
      </trkpt>
      <trkpt lat="44.34459" lon="4.78905">
        <ele>98</ele>
        <time>2022-04-14T11:43:17+02:00</time>
      </trkpt>
      <trkpt lat="44.34474" lon="4.7891">
        <ele>97.700195</ele>
        <time>2022-04-14T11:43:22+02:00</time>
      </trkpt>
      <trkpt lat="44.34488" lon="4.78914">
        <ele>97.700195</ele>
        <time>2022-04-14T11:43:27+02:00</time>
      </trkpt>
      <trkpt lat="44.34503" lon="4.78918">
        <ele>98.299805</ele>
        <time>2022-04-14T11:43:32+02:00</time>
      </trkpt>
      <trkpt lat="44.34518" lon="4.78923">
        <ele>98.299805</ele>
        <time>2022-04-14T11:43:37+02:00</time>
      </trkpt>
      <trkpt lat="44.34537" lon="4.7893">
        <ele>98.799805</ele>
        <time>2022-04-14T11:43:42+02:00</time>
      </trkpt>
      <trkpt lat="44.34559" lon="4.78939">
        <ele>99.799805</ele>
        <time>2022-04-14T11:43:47+02:00</time>
      </trkpt>
      <trkpt lat="44.34577" lon="4.78946">
        <ele>100</ele>
        <time>2022-04-14T11:43:52+02:00</time>
      </trkpt>
      <trkpt lat="44.34583" lon="4.78947">
        <ele>100.200195</ele>
        <time>2022-04-14T11:43:57+02:00</time>
      </trkpt>
      <trkpt lat="44.34584" lon="4.78948">
        <ele>100.200195</ele>
        <time>2022-04-14T11:44:02+02:00</time>
      </trkpt>
      <trkpt lat="44.34592" lon="4.78949">
        <ele>100.200195</ele>
        <time>2022-04-14T11:44:07+02:00</time>
      </trkpt>
      <trkpt lat="44.34609" lon="4.78953">
        <ele>101.5</ele>
        <time>2022-04-14T11:44:12+02:00</time>
      </trkpt>
      <trkpt lat="44.34623" lon="4.78951">
        <ele>100.90039</ele>
        <time>2022-04-14T11:44:17+02:00</time>
      </trkpt>
      <trkpt lat="44.34633" lon="4.7893">
        <ele>100.200195</ele>
        <time>2022-04-14T11:44:22+02:00</time>
      </trkpt>
      <trkpt lat="44.34642" lon="4.78901">
        <ele>99.200195</ele>
        <time>2022-04-14T11:44:27+02:00</time>
      </trkpt>
      <trkpt lat="44.34651" lon="4.78869">
        <ele>99.100586</ele>
        <time>2022-04-14T11:44:32+02:00</time>
      </trkpt>
      <trkpt lat="44.3466" lon="4.7884">
        <ele>99.200195</ele>
        <time>2022-04-14T11:44:37+02:00</time>
      </trkpt>
      <trkpt lat="44.34668" lon="4.78813">
        <ele>99.200195</ele>
        <time>2022-04-14T11:44:42+02:00</time>
      </trkpt>
      <trkpt lat="44.34677" lon="4.78788">
        <ele>99.40039</ele>
        <time>2022-04-14T11:44:47+02:00</time>
      </trkpt>
      <trkpt lat="44.34686" lon="4.78764">
        <ele>99.700195</ele>
        <time>2022-04-14T11:44:52+02:00</time>
      </trkpt>
      <trkpt lat="44.34695" lon="4.78741">
        <ele>99.90039</ele>
        <time>2022-04-14T11:44:57+02:00</time>
      </trkpt>
      <trkpt lat="44.34705" lon="4.78719">
        <ele>99.600586</ele>
        <time>2022-04-14T11:45:02+02:00</time>
      </trkpt>
      <trkpt lat="44.34722" lon="4.7871">
        <ele>99.700195</ele>
        <time>2022-04-14T11:45:07+02:00</time>
      </trkpt>
      <trkpt lat="44.34737" lon="4.78703">
        <ele>99.90039</ele>
        <time>2022-04-14T11:45:12+02:00</time>
      </trkpt>
      <trkpt lat="44.34752" lon="4.78691">
        <ele>99.700195</ele>
        <time>2022-04-14T11:45:17+02:00</time>
      </trkpt>
      <trkpt lat="44.34767" lon="4.78677">
        <ele>99.5</ele>
        <time>2022-04-14T11:45:22+02:00</time>
      </trkpt>
      <trkpt lat="44.34783" lon="4.78664">
        <ele>99.799805</ele>
        <time>2022-04-14T11:45:27+02:00</time>
      </trkpt>
      <trkpt lat="44.34798" lon="4.78649">
        <ele>99.600586</ele>
        <time>2022-04-14T11:45:32+02:00</time>
      </trkpt>
      <trkpt lat="44.34815" lon="4.78635">
        <ele>99.40039</ele>
        <time>2022-04-14T11:45:37+02:00</time>
      </trkpt>
      <trkpt lat="44.34832" lon="4.78621">
        <ele>99.200195</ele>
        <time>2022-04-14T11:45:42+02:00</time>
      </trkpt>
      <trkpt lat="44.34847" lon="4.78606">
        <ele>99.200195</ele>
        <time>2022-04-14T11:45:47+02:00</time>
      </trkpt>
      <trkpt lat="44.34861" lon="4.78588">
        <ele>99.299805</ele>
        <time>2022-04-14T11:45:52+02:00</time>
      </trkpt>
      <trkpt lat="44.34877" lon="4.78566">
        <ele>99.600586</ele>
        <time>2022-04-14T11:45:57+02:00</time>
      </trkpt>
      <trkpt lat="44.34893" lon="4.78541">
        <ele>100.40039</ele>
        <time>2022-04-14T11:46:02+02:00</time>
      </trkpt>
      <trkpt lat="44.34908" lon="4.78515">
        <ele>100.90039</ele>
        <time>2022-04-14T11:46:07+02:00</time>
      </trkpt>
      <trkpt lat="44.3492" lon="4.78489">
        <ele>100.90039</ele>
        <time>2022-04-14T11:46:12+02:00</time>
      </trkpt>
      <trkpt lat="44.34933" lon="4.78462">
        <ele>100.40039</ele>
        <time>2022-04-14T11:46:17+02:00</time>
      </trkpt>
      <trkpt lat="44.34946" lon="4.78433">
        <ele>99.90039</ele>
        <time>2022-04-14T11:46:22+02:00</time>
      </trkpt>
      <trkpt lat="44.34961" lon="4.78402">
        <ele>100</ele>
        <time>2022-04-14T11:46:27+02:00</time>
      </trkpt>
      <trkpt lat="44.34975" lon="4.78372">
        <ele>100.299805</ele>
        <time>2022-04-14T11:46:32+02:00</time>
      </trkpt>
      <trkpt lat="44.34992" lon="4.78345">
        <ele>100.799805</ele>
        <time>2022-04-14T11:46:37+02:00</time>
      </trkpt>
      <trkpt lat="44.3501" lon="4.78319">
        <ele>101.5</ele>
        <time>2022-04-14T11:46:42+02:00</time>
      </trkpt>
      <trkpt lat="44.35026" lon="4.7829">
        <ele>103.600586</ele>
        <time>2022-04-14T11:46:47+02:00</time>
      </trkpt>
      <trkpt lat="44.35038" lon="4.78265">
        <ele>103</ele>
        <time>2022-04-14T11:46:52+02:00</time>
      </trkpt>
      <trkpt lat="44.35054" lon="4.78245">
        <ele>101.90039</ele>
        <time>2022-04-14T11:46:57+02:00</time>
      </trkpt>
      <trkpt lat="44.3507" lon="4.78226">
        <ele>100.700195</ele>
        <time>2022-04-14T11:47:02+02:00</time>
      </trkpt>
      <trkpt lat="44.35086" lon="4.78212">
        <ele>99.799805</ele>
        <time>2022-04-14T11:47:07+02:00</time>
      </trkpt>
      <trkpt lat="44.35104" lon="4.78198">
        <ele>101.40039</ele>
        <time>2022-04-14T11:47:12+02:00</time>
      </trkpt>
      <trkpt lat="44.35121" lon="4.78183">
        <ele>101.799805</ele>
        <time>2022-04-14T11:47:17+02:00</time>
      </trkpt>
      <trkpt lat="44.35139" lon="4.78167">
        <ele>102.90039</ele>
        <time>2022-04-14T11:47:22+02:00</time>
      </trkpt>
      <trkpt lat="44.35157" lon="4.78149">
        <ele>102.100586</ele>
        <time>2022-04-14T11:47:27+02:00</time>
      </trkpt>
      <trkpt lat="44.35178" lon="4.78131">
        <ele>101.600586</ele>
        <time>2022-04-14T11:47:32+02:00</time>
      </trkpt>
      <trkpt lat="44.35201" lon="4.78111">
        <ele>99.299805</ele>
        <time>2022-04-14T11:47:37+02:00</time>
      </trkpt>
      <trkpt lat="44.35227" lon="4.78092">
        <ele>98.799805</ele>
        <time>2022-04-14T11:47:42+02:00</time>
      </trkpt>
      <trkpt lat="44.35253" lon="4.78076">
        <ele>98.700195</ele>
        <time>2022-04-14T11:47:47+02:00</time>
      </trkpt>
      <trkpt lat="44.35275" lon="4.78061">
        <ele>99.5</ele>
        <time>2022-04-14T11:47:52+02:00</time>
      </trkpt>
      <trkpt lat="44.35295" lon="4.78046">
        <ele>98.90039</ele>
        <time>2022-04-14T11:47:57+02:00</time>
      </trkpt>
      <trkpt lat="44.35313" lon="4.78022">
        <ele>98.200195</ele>
        <time>2022-04-14T11:48:02+02:00</time>
      </trkpt>
      <trkpt lat="44.35334" lon="4.77996">
        <ele>98</ele>
        <time>2022-04-14T11:48:07+02:00</time>
      </trkpt>
      <trkpt lat="44.35357" lon="4.77974">
        <ele>97.700195</ele>
        <time>2022-04-14T11:48:12+02:00</time>
      </trkpt>
      <trkpt lat="44.3538" lon="4.77952">
        <ele>96.600586</ele>
        <time>2022-04-14T11:48:17+02:00</time>
      </trkpt>
      <trkpt lat="44.35403" lon="4.7793">
        <ele>96</ele>
        <time>2022-04-14T11:48:22+02:00</time>
      </trkpt>
      <trkpt lat="44.35426" lon="4.77909">
        <ele>95.100586</ele>
        <time>2022-04-14T11:48:27+02:00</time>
      </trkpt>
      <trkpt lat="44.35449" lon="4.77892">
        <ele>93.600586</ele>
        <time>2022-04-14T11:48:32+02:00</time>
      </trkpt>
      <trkpt lat="44.35472" lon="4.77877">
        <ele>92.799805</ele>
        <time>2022-04-14T11:48:37+02:00</time>
      </trkpt>
      <trkpt lat="44.35492" lon="4.77864">
        <ele>92.299805</ele>
        <time>2022-04-14T11:48:42+02:00</time>
      </trkpt>
      <trkpt lat="44.35503" lon="4.77883">
        <ele>92.600586</ele>
        <time>2022-04-14T11:48:47+02:00</time>
      </trkpt>
      <trkpt lat="44.35509" lon="4.7791">
        <ele>92.90039</ele>
        <time>2022-04-14T11:48:52+02:00</time>
      </trkpt>
      <trkpt lat="44.35516" lon="4.77937">
        <ele>93.100586</ele>
        <time>2022-04-14T11:48:57+02:00</time>
      </trkpt>
      <trkpt lat="44.35524" lon="4.77964">
        <ele>94.100586</ele>
        <time>2022-04-14T11:49:02+02:00</time>
      </trkpt>
      <trkpt lat="44.35531" lon="4.77989">
        <ele>94.700195</ele>
        <time>2022-04-14T11:49:07+02:00</time>
      </trkpt>
      <trkpt lat="44.35537" lon="4.78013">
        <ele>96.90039</ele>
        <time>2022-04-14T11:49:12+02:00</time>
      </trkpt>
      <trkpt lat="44.35544" lon="4.78039">
        <ele>97.600586</ele>
        <time>2022-04-14T11:49:17+02:00</time>
      </trkpt>
      <trkpt lat="44.3555" lon="4.78067">
        <ele>99.5</ele>
        <time>2022-04-14T11:49:22+02:00</time>
      </trkpt>
      <trkpt lat="44.35556" lon="4.78096">
        <ele>100.299805</ele>
        <time>2022-04-14T11:49:27+02:00</time>
      </trkpt>
      <trkpt lat="44.35561" lon="4.78122">
        <ele>101</ele>
        <time>2022-04-14T11:49:32+02:00</time>
      </trkpt>
      <trkpt lat="44.35564" lon="4.78146">
        <ele>102.600586</ele>
        <time>2022-04-14T11:49:37+02:00</time>
      </trkpt>
      <trkpt lat="44.35566" lon="4.78169">
        <ele>102.90039</ele>
        <time>2022-04-14T11:49:42+02:00</time>
      </trkpt>
      <trkpt lat="44.35569" lon="4.78197">
        <ele>105.40039</ele>
        <time>2022-04-14T11:49:47+02:00</time>
      </trkpt>
      <trkpt lat="44.35571" lon="4.78229">
        <ele>106.700195</ele>
        <time>2022-04-14T11:49:52+02:00</time>
      </trkpt>
      <trkpt lat="44.35574" lon="4.7826">
        <ele>109.40039</ele>
        <time>2022-04-14T11:49:57+02:00</time>
      </trkpt>
      <trkpt lat="44.35578" lon="4.7829">
        <ele>111.299805</ele>
        <time>2022-04-14T11:50:02+02:00</time>
      </trkpt>
      <trkpt lat="44.35589" lon="4.78321">
        <ele>114.700195</ele>
        <time>2022-04-14T11:50:07+02:00</time>
      </trkpt>
      <trkpt lat="44.35597" lon="4.78354">
        <ele>116.600586</ele>
        <time>2022-04-14T11:50:12+02:00</time>
      </trkpt>
      <trkpt lat="44.35606" lon="4.78385">
        <ele>116.90039</ele>
        <time>2022-04-14T11:50:17+02:00</time>
      </trkpt>
      <trkpt lat="44.35616" lon="4.78405">
        <ele>119.299805</ele>
        <time>2022-04-14T11:50:22+02:00</time>
      </trkpt>
      <trkpt lat="44.35624" lon="4.78411">
        <ele>119.299805</ele>
        <time>2022-04-14T11:50:27+02:00</time>
      </trkpt>
      <trkpt lat="44.35628" lon="4.78419">
        <ele>117.799805</ele>
        <time>2022-04-14T11:50:32+02:00</time>
      </trkpt>
      <trkpt lat="44.35635" lon="4.7843">
        <ele>120</ele>
        <time>2022-04-14T11:50:37+02:00</time>
      </trkpt>
      <trkpt lat="44.35643" lon="4.78434">
        <ele>118.700195</ele>
        <time>2022-04-14T11:50:42+02:00</time>
      </trkpt>
      <trkpt lat="44.35652" lon="4.78434">
        <ele>117.5</ele>
        <time>2022-04-14T11:50:47+02:00</time>
      </trkpt>
      <trkpt lat="44.35654" lon="4.78434">
        <ele>117.5</ele>
        <time>2022-04-14T11:50:52+02:00</time>
      </trkpt>
      <trkpt lat="44.35649" lon="4.78433">
        <ele>118.700195</ele>
        <time>2022-04-14T11:50:57+02:00</time>
      </trkpt>
      <trkpt lat="44.35647" lon="4.78428">
        <ele>118.700195</ele>
        <time>2022-04-14T11:51:03+02:00</time>
      </trkpt>
      <trkpt lat="44.35648" lon="4.78425">
        <ele>118.700195</ele>
        <time>2022-04-14T11:51:08+02:00</time>
      </trkpt>
      <trkpt lat="44.35649" lon="4.78425">
        <ele>118.700195</ele>
        <time>2022-04-14T11:51:11+02:00</time>
      </trkpt>
    </trkseg>
  </trk>
</gpx>